     2.11           OBSERVATION DATA    G (GPS)             RINEX VERSION / TYPE
teqc 2010Oct21 OPUS Account 20111025 20:08:31UTC            PGM / RUN BY / DATE
B 1522                                                      MARKER NAME
1183                                                        MARKER NUMBER
CSMIDDLETON NGS                                             OBSERVER / AGENCY
4624K01583 TRIMBLE NETR5 4.41                               REC # / TYPE / VERS
60154430 TRM41249.00 NONE                                   ANT # / TYPE
  -739671.1100 -5489287.1166  3152134.0982                  APPROX POSITION XYZ
        2.0000        0.0000        0.0000                  ANTENNA: DELTA H/E/N
     1     1                                                WAVELENGTH FACT L1/2
     5    L1    L2    C1    P1    P2                        # / TYPES OF OBSERV
    15                                                      LEAP SECONDS
  2011     7    28    17    30   30.0000000     GPS         TIME OF FIRST OBS
                                                            END OF HEADER
 11  7 28 17 30 30.0000000  0 12G11G06G08G07G16G28G20G03G19G10G13G23
 133003216.20916 103638924.61852  25309673.938                    25309685.500
 117927507.37317  91891600.18155  22440859.172                    22440867.793
 128440100.86916 100083239.25953  24441339.766                    24441349.227
 117577133.82817  91618578.29517  22374184.898                    22374192.109
 120221266.96417  93678939.21855  22877346.117                    22877354.125
 132088190.89916 102925784.23952  25135517.352                    25135529.086
 129652372.49116 101027883.16352  24672032.852                    24672042.004
 109737983.11418  85510146.66856  20882444.297                    20882452.215
 112131836.63317  87375478.76756  21337979.180                    21337984.797
 125214943.11317  97570123.75254  23827611.688                    23827621.496
 105578854.93418  82269264.56656  20090988.320                    20090995.172
 106496098.44518  82983993.51456  20265534.195                    20265539.281
 11  7 28 17 31  0.0000000  0 12G11G06G08G07G16G28G20G03G19G10G13G23
 132934692.275 6 103585529.49942  25296634.758                    25296646.719
 117977733.995 7  91930737.78045  22450417.016                    22450425.906
 128372665.141 6 100030692.01543  24428506.516                    24428516.672
 117519699.429 7  91573824.239 7  22363255.570                    22363263.012
 120311202.719 7  93749018.97744  22894460.797                    22894467.953
 132007277.096 6 102862734.65942  25120120.758                    25120132.621
 129737761.356 6 101094419.74142  24688281.969                    24688291.391
 109761960.599 8  85528830.42046  20887006.695                    20887014.820
 112083280.720 7  87337643.01746  21328738.922                    21328745.125
 125220349.962 7  97574336.82444  23828640.727                    23828650.840
 105560259.227 8  82254774.40046  20087450.227                    20087456.699
 106538950.168 8  83017384.43746  20273688.438                    20273693.816
 11  7 28 17 31 30.0000000  0 12G11G06G08G07G16G28G20G03G19G10G13G23
 132865944.075 6 103531959.61442  25283552.898                    25283565.012
 118028456.213 7  91970261.56045  22460068.977                    22460077.551
 128305173.832 6  99978101.47743  24415663.203                    24415673.516
 117462296.837 7  91529094.986 7  22352331.930                    22352339.695
 120401206.141 7  93819151.46344  22911587.906                    22911594.918
 131926548.964 6 102799829.72942  25104758.797                    25104770.781
 129823010.830 6 101160847.70642  24704504.570                    24704514.609
 109786561.770 8  85548000.16145  20891687.813                    20891696.027
 112035241.155 8  87300209.61346  21319597.977                    21319603.945
 125226242.318 6  97578928.24343  23829762.234                    23829771.809
 105542213.691 8  82240712.92846  20084015.617                    20084022.219
 106582352.195 8  83051204.17046  20281947.594                    20281953.082
 11  7 28 17 32  0.0000000  0 12G11G06G08G07G16G28G20G03G19G10G13G23
 132796973.154 6 103478216.17842  25270427.164                    25270439.566
 118079672.078 7  92010169.99345  22469814.883                    22469823.496
 128237626.641 6  99925467.36743  24402809.875                    24402818.902
 117404926.493 7  91484390.845 7  22341414.352                    22341422.414
 120491274.977 7  93889334.93945  22928727.625                    22928734.527
 131846006.371 5 102737069.31142  25089431.070                    25089442.848
 129908118.323 6 101227165.06843  24720700.734                    24720710.051
 109811785.422 8  85567654.96446  20896488.297                    20896496.145
 111987719.523 8  87263179.79846  21310554.664                    21310560.691
 125232618.557 7  97583896.71443  23830976.203                    23830984.961
 105524719.200 8  82227080.85346  20080686.656                    20080693.160
 106626303.623 8  83085452.00946  20290311.281                    20290316.770
 11  7 28 17 32 30.0000000  0 12G11G06G08G07G16G28G20G03G19G10G13G23
 132727780.448 6 103424299.91542  25257260.602                    25257273.641
 118131378.958 7  92050461.03845  22479654.594                    22479663.219
 128170022.270 6  99872788.67043  24389944.781                    24389954.621
 117347587.852 7  91439711.398 7  22330503.227                    22330511.320
 120581406.339 7  93959567.13244  22945879.047                    22945886.004
 131765649.420 5                  25074140.008
 129993080.724 6 101293369.33843  24736868.547                    24736878.680
 109837629.697 8  85587793.36146  20901405.914                    20901414.270
 111940717.736 8  87226555.05146  21301609.969                    21301616.340
 125239476.737 7  97589240.74444  23832280.750                    23832290.109
 105507776.545 8  82213878.77346  20077462.289                    20077469.352
 106670802.471 8  83120126.41546  20298779.031                    20298784.605
 11  7 28 17 33  0.0000000  0 12G11G06G08G07G16G28G20G03G19G10G13G23
 132658368.118 6 103370212.53242  25244050.336                    25244064.039
 118183575.319 7  92091133.49445  22489586.992                    22489595.676
 128102360.362 6  99820065.17643  24377068.727                    24377079.379
 117290281.599 7  91395057.210 7  22319598.328                    22319606.109
 120671598.247 7  94029846.48844  22963041.484                    22963048.910
 131685479.013 5                  25058884.539
 130077895.613 6 101359458.63043  24753008.547                    24753018.555
 109864094.014 8  85608414.91145  20906441.828                    20906450.055
 111894237.984 8  87190337.08446  21292765.711                    21292771.496
 125246815.835 7  97594959.49643  23833676.914                    23833687.004
 105491386.903 8  82201107.61146  20074343.555                    20074350.469
 106715848.207 8  83155226.95946  20307351.070                    20307356.453
 11  7 28 17 33 30.0000000  0 12G11G06G08G07G16G28G20G03G19G10G13G23
 132588738.029 6 103315955.46542  25230800.891                    25230813.258
 118236260.017 7  92132186.49645  22499612.492                    22499621.352
 128034641.688 6  99767297.46443  24364182.602                    24364193.066
 117233008.359 7  91350428.744 7  22308699.750                    22308707.027
 120761848.948 7  94100171.66444  22980216.367                    22980222.977
 131605496.149 5                  25043664.195
 130162561.109 7 101425431.51043  24769120.922                    24769130.449
 109891177.547 8  85629518.96545  20911595.422                    20911603.590
 111848282.671 8  87154527.76746  21284020.695                    21284026.316
 125254635.033 7  97601052.34143  23835164.977                    23835174.777
 105475552.096 8  82188768.79146  20071330.383                    20071336.750
 106761439.958 8  83190752.97446  20316026.789                    20316032.250
 11  7 28 17 34  0.0000000  0 12G11G06G08G07G16G28G20G03G19G10G13G23
 132518892.801 6 103261530.68642  25217509.547                    25217522.031
 118289431.242 7  92173618.59645  22509731.188                    22509739.445
 127966866.417 6  99714485.62743  24351285.367                    24351294.648
 117175768.985 7  91305826.678 7  22297807.367                    22297815.348
 120852156.720 7  94170541.30944  22997400.969                    22997408.820
 131525701.946 5 102487478.87852  25028478.617                    25028489.816
 130247074.738 6 101491286.08343  24785201.609                    24785212.867
 109918879.837 8  85651105.15646  20916867.289                    20916874.973
 111802854.074 7  87119128.87046  21275376.195                    21275382.176
 125262933.060 7  97607518.33643  23836743.578                    23836753.629
 105460273.695 8  82176863.53546  20068422.898                    20068429.496
 106807577.113 8  83226703.97346  20324806.664                    20324812.160
 11  7 28 17 34 30.0000000  0 12G11G06G08G07G16G28G20G03G19G10G13G23
 132448834.401 6 103206939.76642  25204177.703                    25204190.332
 118343087.813 7  92215428.88845  22519941.055                    22519949.645
 127899034.387 6  99661629.50143  24338377.188                    24338386.438
 117118564.270 7  91261251.578 7  22286921.445                    22286929.066
 120942519.811 7  94240954.03444  23014596.766                    23014603.633
 131446097.234 6 102425449.36042  25013330.891                    25013342.098
 130331435.115 6 101557021.23743  24801254.758                    24801267.324
 109947200.322 8  85673173.05645  20922256.977                    20922264.535
 111757954.802 8  87084142.45946  21266831.563                    21266837.703
 125271709.252 7  97614356.87944  23838414.523                    23838423.727
 105445553.501 8  82165393.24946  20065621.891                    20065628.824
 106854259.185 8  83263079.59346  20333689.875                    20333695.273
 11  7 28 17 35  0.0000000  0 12G11G06G08G07G16G28G20G03G19G10G13G23
 132378564.731 6 103152184.27343  25190805.906                    25190818.582
 118397228.119 7  92257616.10545  22530244.164                    22530252.848
 127831145.519 6  99608729.17443  24325457.141                    24325467.660
 117061394.640 7  91216703.855 7  22276042.320                    22276050.559
 121032936.384 7  94311408.47844  23031802.766                    23031809.512
 131366683.343 6 102363568.50743  24998218.758                    24998230.227
 130415639.517 6 101622634.86943  24817278.820                    24817290.813
 109976137.653 8  85695721.63545  20927763.484                    20927770.824
 111713587.005 8  87049570.17346  21258388.742                    21258394.867
 125280962.494 7  97621567.21043  23840175.125                    23840184.480
 105431392.913 8  82154359.01346  20062927.133                    20062933.676
 106901485.115 8  83299878.99746  20342676.594                    20342682.223
 11  7 28 17 35 30.0000000  0 12G11G06G08G07G16G28G20G03G19G10G13G23
 132308085.840 5 103097265.75642  25177394.070                    25177406.801
 118451850.099 7  92300178.68244  22540638.352                    22540646.469
 127763199.451 6  99555784.24443  24312527.398                    24312538.301
 117004260.615 7  91172183.867 7  22265170.320                    22265178.277
 121123404.576 7  94381903.12744  23049018.430                    23049025.656
 131287460.243 6 102301836.34043  24983143.586                    24983154.594
 130499685.474 6 101688125.03443  24833272.523                    24833284.145
 110005690.758 8  85718750.02246  20933386.680                    20933394.582
 111669752.741 8  87015413.63046  21250047.250                    21250053.301
 125290691.131 7  97629147.95243  23842026.102                    23842035.387
 105417792.959 8  82143761.64446  20060339.109                    20060345.988
 106949253.659 8  83337101.21046  20351766.766                    20351772.082
 11  7 28 17 36  0.0000000  0 12G11G06G08G07G16G28G20G03G19G10G13G23
 132237399.776 6 103042185.82642  25163943.680                    25163956.043
 118506952.202 7  92343115.37545  22551124.203                    22551132.176
 127695196.216 6  99502794.79243  24299587.836                    24299597.734
 116947162.696 7  91127691.992 7  22254305.078                    22254312.477
 121213922.274 7  94452436.32944  23066242.844                    23066250.379
 131208429.107 7 102240253.71144  24968104.109                    24968115.855
 130583571.037 6 101753490.16542  24849235.297                    24849247.246
 110035859.091 8  85742257.79746  20939127.922                    20939135.918
 111626454.097 8  86981674.44846  21241807.852                    21241813.750
 125300894.128 7  97637098.31243  23843967.766                    23843976.813
 105404754.991 8  82133602.17746  20057858.234                    20057864.738
 106997564.331 8  83374745.86546  20360959.852                    20360965.594
 11  7 28 17 36 30.0000000  0 12G11G06G08G07G16G28G20G03G19G10G13G23
 132166508.714 6 102986946.13542  25150452.750                    25150465.094
 118562532.827 7  92386424.94145  22561700.734                    22561709.242
 127627136.069 6  99449760.96643  24286635.117                    24286645.320
 116890101.690 7  91083228.896 7  22243446.531                    22243454.160
 121304487.623 7  94523006.68944  23083477.094                    23083484.438
 131129590.683 7 102178821.26843  24953101.313                    24953112.996
 130667293.832 6 101818728.50243  24865167.016                    24865179.234
 110066641.464 8  85766244.04746  20944985.414                    20944993.453
 111583693.470 8  86948354.51146  21233671.258                    21233676.789
 125311570.367 7  97645417.39644  23845998.906                    23846009.152
 105392280.495 8  82123881.77946  20055484.273                    20055491.422
 107046416.319 8  83412812.32446  20370255.961                    20370261.566
 11  7 28 17 37  0.0000000  0 12G11G06G08G07G16G28G20G03G19G10G13G23
 132095414.826 6 102931548.35543  25136924.578                    25136936.199
 118618590.249 7  92430106.03544  22572367.641                    22572376.117
 127559019.079 6  99396682.86343  24273673.867                    24273682.961
 116833078.050 7  91038794.930 7  22232595.484                    22232603.164
 121395098.638 7  94593612.64144  23100719.938                    23100727.387
 131050945.664 6 102117539.51943  24938135.586                    24938147.680
 130750851.583 6 101883838.21643  24881067.758                    24881080.152
 110098036.701 7  85790707.85245  20950959.586                    20950967.668
 111541472.952 8  86915455.43846  21225636.336                    21225642.297
 125322718.245 7  97654104.03643  23848120.867                    23848130.641
 105380370.755 8  82114601.45946  20053218.102                    20053225.262
 107095808.294 8  83451299.55246  20379654.977                    20379660.871
 11  7 28 17 37 30.0000000  0 12G11G06G08G07G16G28G20G03G19G10G13G23
 132024119.540 6 102875993.63742  25123358.094                    25123369.895
 118675122.427 7  92474157.07144  22583125.859                    22583133.504
 127490844.822 6  99343560.14843  24260700.555                    24260710.988
 116776092.098 7  90994390.316 7  22221751.813                    22221759.035
 121485753.426 7  94664252.68944  23117970.922                    23117978.102
 130972494.716 7 102056408.99744  24923206.961                    24923218.418
 130834241.952 5 101948817.53143  24896936.719                    24896949.496
 110130043.931 8  85815648.53745  20957050.531                    20957058.766
 111499794.550 7  86882978.78946  21217705.484                    21217711.176
 125334336.331 7  97663157.07143  23850331.883                    23850341.086
 105369026.767 8  82105761.98046  20051059.359                    20051065.797
 107145738.851 8  83490206.45246  20389156.477                    20389162.457
 11  7 28 17 38  0.0000000  0 12G11G06G08G07G16G28G20G03G19G10G13G23
 131952624.976 6 102820283.73442  25109751.813                    25109764.555
 118732127.540 7  92518576.61645  22593973.453                    22593982.098
 127422613.131 6  99290392.66143  24247716.078                    24247726.023
 116719145.037 7  90950015.976 7  22210914.633                    22210922.414
 121576450.202 6  94734925.45644  23135229.500                    23135237.395
 130894238.558 7 101995430.26343  24908315.539                    24908326.785
 130917462.913 5 102013664.83642  24912773.281                    24912785.563
 110162662.148 8  85841065.31445  20963257.539                    20963265.566
 111458660.274 8  86850926.13146  21209877.758                    21209883.520
 125346423.522 6  97672575.67243  23852631.922                    23852641.258
 105358249.736 8  82097364.28446  20049008.820                    20049015.188
 107196207.350 8  83529532.52846  20398760.492                    20398766.039
 11  7 28 17 38 30.0000000  0 12G11G06G08G07G16G28G20G03G19G10G13G23
 131880933.309 5 102764420.18442  25096109.375                    25096122.000
 118789603.914 7  92563363.38745  22604910.977                    22604918.844
 127354324.191 6  99237180.55243  24234720.914                    24234731.152
 116662236.804 7  90905671.918 7  22200085.273                    22200093.082
 121667187.122 7  94805629.51644  23152496.305                    23152504.242
 130816177.760 6 101934603.81443  24893461.188                    24893472.125
 131000512.031 5 102078378.16543  24928577.336                    24928589.367
 110195889.943 8  85866957.08945  20969580.758                    20969588.723
 111418071.688 7  86819298.68946  21202153.586                    21202159.414
 125358978.365 7  97682358.63243  23855021.172                    23855030.418
 105348041.047 7  82089409.45746  20047065.906                    20047072.738
 107247212.639 8  83569276.88146  20408466.391                    20408472.211
 11  7 28 17 39  0.0000000  0 12G11G06G08G07G16G28G20G03G19G10G13G23
 131809046.761 6 102708404.76342  25082429.891                    25082442.785
 118847549.771 7  92608515.98345  22615937.578                    22615945.742
 127285977.639 6  99183923.56443  24221715.781                    24221725.418
 116605368.439 7  90861358.925 7  22189263.633                    22189271.523
 121757962.380 6  94876363.42444  23169769.867                    23169778.445
 130738312.980 6 101873930.05042  24878643.086                    24878655.305
 131083387.120 5 102142955.98342  24944347.781                    24944359.828
 110229726.220 8  85893323.00746  20976019.633                    20976027.371
 111378031.019 8  86788098.19646  21194534.484                    21194540.609
 125371999.564 7  97692505.00943  23857499.164                    23857508.414
 105338401.563 8  82081898.15946  20045231.852                    20045238.266
 107298753.411 8  83609438.49046  20418274.539                    20418279.934
 11  7 28 17 39 30.0000000  0 12G11G06G08G07G16G28G20G03G19G10G13G23
 131736967.460 5 102652239.19242  25068713.570                    25068726.152
 118905963.339 7  92654033.02045  22627053.453                    22627062.098
 127217573.760 7  99130621.93144  24208698.547                    24208708.379
 116548540.538 7  90817077.458 7  22178449.750                    22178457.188
 121848774.106 7  94947125.74044  23187051.688                    23187059.281
 130660644.989 4 101813409.67142  24863860.227                    24863875.328
 131166086.212 6 102207396.66642  24960084.766                    24960097.371
 110264170.051 8  85920162.35745  20982573.570                    20982581.824
 111338540.513 8  86757326.38846  21187019.930                    21187025.344
 125385485.685 6  97703013.63243  23860064.695                    23860074.961
 105329332.859 8  82074831.63246  20043506.055                    20043512.883
 107350828.831 8  83650016.71446  20428183.820                    20428189.523
 11  7 28 17 40  0.0000000  0 12G11G06G08G07G16G28G20G03G19G10G13G23
 131664697.369 5 102595924.94942  25054960.695                    25054972.953
 118964842.592 7  92699912.93445  22638257.313                    22638266.215
 127149112.404 7  99077275.46243  24195671.617                    24195680.707
 116491753.312 7  90772827.691 7  22167643.250                    22167650.961
 121939620.342 7  95017914.97644  23204338.984                    23204346.738
 130583174.44115                  24849120.328
 131248607.37515 102271698.24653  24975789.031                    24975801.121
 110299219.940 8  85947473.95345  20989243.609                    20989251.793
 111299602.250 8  86726984.90446  21179609.969                    21179615.637
 125399435.283 7  97713883.42443  23862719.375                    23862729.402
 105320836.047 8  82068210.72846  20041889.148                    20041895.734
 107403437.539 8  83691010.48446  20438195.164                    20438201.176
 11  7 28 17 40 30.0000000  0 12G11G06G08G07G16G28G20G03G19G10G13G23
 131592238.434 5 102539463.62442  25041171.641                    25041184.863
 119024185.724 7  92746154.31745  22649550.602                    22649558.520
 127080593.361 6  99023884.06844  24182632.734                    24182642.656
 116435007.551 7  90728610.246 7  22156844.805                    22156852.395
 122030499.248 7  95088729.65444  23221632.984                    23221641.051
 130505902.046 5                  24834416.336
 131330947.12015 102335859.27652  24991456.891                    24991470.074
 110334874.559 8  85975256.75845  20996028.617                    20996036.602
 111261217.690 8  86697074.88046  21172305.383                    21172311.590
 125413846.967 7  97725113.27343  23865461.984                    23865472.184
 105312911.856 8  82062036.03146  20040381.211                    20040388.477
 107456578.354 8  83732418.88346  20448307.570                    20448313.262
 11  7 28 17 41  0.0000000  0 12G11G06G08G07G16G28G20G03G19G10G13G23
 131519592.867 6                  25027348.523
 119083990.642 7  92792755.52845  22660930.469                    22660939.336
 127012017.094 6  98970448.08444  24169583.141                    24169592.414
 116378304.115 7  90684425.749 7  22146054.656                    22146062.242
 122121408.808 7  95159568.22244  23238932.695                    23238939.723
 130428828.447 6                  24819750.023
 131413104.42516 102399877.72652  25007091.617                    25007104.363
 110371132.302 8  86003509.54646  21002928.594                    21002935.984
 111223388.935 8  86667597.94346  21165106.883                    21165113.047
 125428719.282 7  97736702.04243  23868292.727                    23868302.492
 105305561.439 8  82056308.42746  20038982.664                    20038989.371
 107510249.971 8  83774240.89146  20458520.797                    20458526.199
 11  7 28 17 41 30.0000000  0 12G11G06G08G07G16G28G20G03G19G10G13G23
 131446762.875 5                  25013489.859
 119144255.800 7  92839715.36245  22672399.258                    22672407.121
 126943383.290 6  98916967.29544  24156521.961                    24156532.180
 116321643.500 7  90640274.646 7  22135272.266                    22135279.648
 122212347.321 7  95230429.38344  23256237.875                    23256244.727
 130351954.043 6 101572873.71352  24805121.219                    24805133.359
 131495076.725 6 102463752.08042  25022690.977                    25022702.418
 110407992.531 8  86032231.79746  21009942.789                    21009950.902
 111186117.794 8  86638555.51346  21158014.578                    21158020.563
 125444050.702 7  97748648.56543  23871210.063                    23871219.258
 105298786.077 8  82051028.90946  20037693.313                    20037700.121
 107564451.230 8  83816475.60646  20468835.172                    20468840.770
 11  7 28 17 42  0.0000000  0 12G11G06G08G07G16G28G20G03G19G10G13G23
 131373750.240 6                  24999594.773
 119204979.004 7  92887032.13244  22683955.234                    22683962.391
 126874691.851 6  98863441.56643  24143449.992                    24143459.664
 116265026.396 7  90596157.446 7  22124498.578                    22124505.891
 122303313.049 7  95301311.71644  23273547.297                    23273555.168
 130275279.717 6 101513127.50042  24790531.320                    24790542.082
 131576861.821 6 102527480.53642  25038254.250                    25038265.820
 110445453.664 8  86061422.29345  21017071.141                    21017078.891
 111149406.035 8  86609948.96346  21151028.789                    21151034.457
 125459839.345 7  97760951.41443  23874214.141                    23874224.148
 105292586.473 8  82046198.04346  20036512.984                    20036520.535
 107619180.928 8  83859122.09046  20479249.578                    20479255.156
 11  7 28 17 42 30.0000000  0 12G11G06G08G07G16G28G20G03G19G10G13G23
 131300557.522 5                  24985666.445
 119266158.546 7  92934704.48344  22695596.172                    22695604.938
 126805942.936 6  98809871.03143  24130367.555                    24130377.516
 116208453.857 7  90552074.944 7  22113733.633                    22113740.738
 122394304.584 7  95372214.14444  23290862.578                    23290870.551
 130198806.174 7 101453537.84643  24775978.563                    24775988.992
 131658457.623 6 102591061.52542  25053782.016                    25053794.641
 110483514.515 8  86091080.08445  21024313.906                    21024321.730
 111113255.764 8  86581779.94446  21144149.234                    21144155.043
 125476084.059 7  97773609.56543  23877305.680                    23877315.227
 105286964.191 8  82041817.03946  20035443.328                    20035450.598
 107674438.079 8  83902179.57946  20489764.742                    20489770.574
 11  7 28 17 43  0.0000000  0 12G11G06G08G07G16G28G20G03G19G10G13G23
 131227186.543 6                  24971704.703
 119327792.390 7  92982730.82644  22707324.789                    22707333.227
 126737136.559 6  98756255.74043  24117273.539                    24117284.223
 116151925.980 7  90508027.289 7  22102976.422                    22102983.785
 122485319.658 7  95443134.90844  23308182.398                    23308190.184
 130122533.590 6 101394104.73943  24761464.234                    24761475.266
 131739862.232 6 102654493.45642  25069272.289                    25069285.785
 110522173.285 8  86121203.79245  21031670.484                    21031678.422
 111077668.240 8  86554049.43146  21137377.047                    21137382.816
 125492783.154 7  97786621.82543  23880483.055                    23880493.227
 105281919.645 8  82037886.21546  20034483.555                    20034490.410
 107730220.998 8  83945646.75446  20500379.992                    20500385.871
 11  7 28 17 43 30.0000000  0 12G11G06G08G07G16G28G20G03G19G10G13G23
 131153639.682 5 102197691.16852  24957708.336                    24957720.680
 119389878.557 7  93031109.63145  22719140.086                    22719147.926
 126668273.088 7  98702595.96543  24104169.633                    24104180.051
 116095443.669 7  90464015.119 7  22092228.094                    22092235.684
 122576356.575 7  95514072.72044  23325506.102                    23325513.613
 130046462.842 7 101334828.93943  24746988.555                    24746999.402
 131821073.187 6 102717774.55342  25084726.367                    25084739.012
 110561428.824 8  86151792.51645  21039140.789                    21039148.684
 111042645.510 8  86526759.01346  21130712.602                    21130718.426
 125509935.524 7  97799987.28543  23883747.906                    23883757.395
 105277454.175 8  82034406.61946  20033633.883                    20033640.375
 107786528.588 8  83989522.77046  20511095.055                    20511100.727
 11  7 28 17 44  0.0000000  0 12G11G06G08G07G16G28G20G03G19G10G13G23
 131079918.692 5 102140246.43052  24943679.586                    24943692.082
 119452414.912 7  93079839.24145  22731039.695                    22731048.477
 126599351.708 6  98648891.08243  24091054.422                    24091064.230
 116039007.531 7  90420038.928 7  22081488.625                    22081495.973
 122667413.504 7  95585026.12044  23342833.523                    23342840.848
 129970594.303 6 101275710.69043  24732551.109                    24732561.383
 131902088.414 6 102780903.11043  25100143.852                    25100155.199
 110601279.728 8  86182845.14845  21046723.992                    21046732.059
 111008189.442 8  86499910.15946  21124155.688                    21124161.629
 125527539.207 7  97813704.39443  23887097.766                    23887106.656
 105273568.158 8  82031378.54546  20032894.500                    20032901.055
 107843359.270 8  84033806.38146  20521909.609                    20521915.523
 11  7 28 17 44 30.0000000  0 12G11G06G08G07G16G28G20G03G19G10G13G23
 131006026.291 6 102082668.04142  24929619.516                    24929631.066
 119515399.644 7  93128918.22744  22743025.328                    22743034.258
 126530372.986 7  98595141.47943  24077928.445                    24077938.074
 115982618.339 7  90376099.316 7  22070757.797                    22070765.559
 122758489.128 7  95655994.07844  23360165.188                    23360172.777
 129894928.764 6 101216750.63043  24718152.367                    24718163.465
 131982906.044 6 102843877.69042  25115522.164                    25115534.613
 110641724.785 8  86214360.76345  21054420.539                    21054427.930
 110974301.937 7  86473504.31446  21117707.289                    21117712.875
 125545592.451 7  97827771.83643  23890532.563                    23890541.879
 105270263.342 8  82028803.35846  20032265.492                    20032272.395
 107900711.931 8  84078496.72946  20532823.758                    20532829.293
 11  7 28 17 45  0.0000000  0 12G11G06G08G07G16G28G20G03G19G10G13G23
 130931964.490 6 102024957.64042  24915525.180                    24915537.555
 119578830.783 7  93178345.05544  22755095.898                    22755104.633
 126461337.129 7  98541347.38543  24064791.094                    24064800.652
 115926276.849 8  90332196.875 7  22060036.672                    22060044.043
 122849581.656 6  95726975.21844  23377499.375                    23377507.109
 129819466.614 6 101157949.07143  24703791.664                    24703803.156
 132063523.736 6 102906696.48743  25130863.445                    25130876.367
 110682762.038 8  86246337.81545  21062229.555                    21062237.406
 110940984.546 8  86447542.73246  21111367.234                    21111372.719
 125564093.746 7  97842188.39543  23894053.672                    23894063.207
 105267540.320 8  82026681.50446  20031747.438                    20031754.082
 107958585.121 8  84123592.68746  20543836.359                    20543841.809
 11  7 28 17 45 30.0000000  0 12G11G06G08G07G16G28G20G03G19G10G13G23
 130857735.244 6 101967116.83442  24901399.133                    24901412.152
 119642706.209 7  93228118.09044  22767250.656                    22767259.648
 126392243.894 6  98487508.55843  24051642.938                    24051652.773
 115869983.829 8  90288332.186 7  22049324.500                    22049332.000
 122940688.809 6  95797967.78844  23394836.391                    23394844.070
 129744208.671 6 101099306.63243  24689470.344                    24689481.051
 132143939.230 6 102969357.71243  25146166.492                    25146179.777
 110724390.140 8  86278775.27845  21070151.148                    21070158.797
 110908239.027 8  86422026.75946  21105136.016                    21105141.906
 125583041.426 7  97856952.79143  23897659.867                    23897668.852
 105265399.601 8  82025013.39946  20031340.250                    20031346.688
 108016977.238 8  84169092.99846  20554947.969                    20554953.867
 11  7 28 17 46  0.0000000  0 12G11G06G08G07G16G28G20G03G19G10G13G23
 130783340.734 6 101909147.23242  24887243.336                    24887254.945
 119707023.987 7  93278235.81144  22779490.742                    22779498.832
 126323093.216 7  98433624.93243  24038484.305                    24038493.262
 115813739.988 7  90244505.834 7  22038621.234                    22038628.613
 123031809.125 6  95868970.56244  23412175.734                    23412184.254
 129669155.140 6 101040823.44743  24675188.406                    24675198.789
 132224150.742 6 103031859.95042  25161430.367                    25161442.461
 110766607.655 8  86311672.02845  21078185.234                    21078192.867
 110876066.620 7  86396957.37046  21099013.609                    21099019.828
 125602433.845 7  97872063.72243  23901349.711                    23901358.836
 105263841.985 7  82023799.66646  20031043.844                    20031050.152
 108075887.020 8  84214996.68746  20566158.141                    20566163.695
 11  7 28 17 46 30.0000000  0 12G11G06G08G07G16G28G20G03G19G10G13G23
 130708783.289 6 101851050.54942  24873055.227                    24873066.660
 119771781.884 7  93328696.48744  22791812.852                    22791821.863
 126253885.485 7  98379696.88943  24025314.203                    24025324.234
 115757545.813 8  90200718.186 7  22027928.461                    22027936.273
 123122941.030 6  95939982.37844  23429518.055                    23429525.559
 129594306.601 6 100982500.04242  24660944.711                    24660956.094
 132304156.060 6 103094201.56842  25176654.242                    25176667.566
 110809413.282 8  86345027.05145  21086330.523                    21086338.477
 110844469.094 8  86372335.93446  21093000.625                    21093006.406
 125622269.364 7  97887519.94343  23905123.484                    23905133.797
 105262868.554 8  82023041.13546  20030858.641                    20030865.391
 108135313.148 8  84261302.71646  20577466.844                    20577472.105
 11  7 28 17 47  0.0000000  0 12G11G06G08G07G16G28G20G03G19G10G13G23
 130634065.211 6 101792828.75842  24858836.234                    24858848.184
 119836978.026 7  93379498.62945  22804219.961                    22804228.813
 126184620.646 7  98325724.34143  24012133.602                    24012142.652
 115701402.328 7  90156970.028 7  22017244.203                    22017252.125
 123214082.763 6  96011001.85644  23446862.164                    23446869.609
 129519663.734 6 100924336.84343  24646740.477                    24646752.086
 132383953.211 6 103156380.98442  25191839.742                    25191853.023
 110852805.258 8  86378838.96545  21094587.930                    21094595.723
 110813448.099 8  86348163.74746  21087097.711                    21087103.703
 125642546.380 6  97903320.18043  23908982.555                    23908992.457
 105262480.191 8  82022738.50446  20030784.492                    20030791.285
 108195253.982 8  84308009.82446  20588872.945                    20588878.566
 11  7 28 17 47 30.0000000  0 12G11G06G08G07G16G28G20G03G19G10G13G23
 130559188.419 6 101734483.34542  24844588.742                    24844599.414
 119902610.289 7  93430640.61844  22816708.977                    22816717.801
 126115298.816 7  98271707.37443  23998942.359                    23998951.125
 115645310.416 7  90113262.083 7  22006570.148                    22006578.328
 123305232.774 6  96082027.77644  23464207.102                    23464214.918
 129445226.842 6 100866334.19743  24632576.320                    24632586.164
 132463540.163 6 103218396.67042  25206984.391                    25206999.098
 110896781.768 8  86413106.34945  21102956.086                    21102964.250
 110783005.520 8  86324442.27646  21081304.672                    21081310.715
 125663263.343 7  97919463.21543  23912925.203                    23912935.336
 105262677.458 8  82022892.20046  20030821.969                    20030829.031
 108255708.202 8  84355116.97746  20600377.094                    20600382.672
 11  7 28 17 48  0.0000000  0 12G11G06G08G07G16G28G20G03G19G10G13G23
 130484155.413 6 101676016.18242  24830310.047                    24830320.973
 119968676.377 7  93482120.65745  22829281.430                    22829289.934
 126045920.031 7  98217646.07544  23985739.602                    23985749.117
 115589270.504 7  90069594.644 7  21995906.297                    21995913.863
 123396389.012 6  96153058.56644  23481553.820                    23481561.633
 129370996.435 6 100808492.41043  24618450.172                    24618461.340
 132542914.532 6 103280246.55542  25222089.461                    25222103.191
 110941341.334 8  86447828.08345  21111435.281                    21111443.215
 110753142.579 8  86301172.46046  21075622.352                    21075628.027
 125684418.278 7  97935947.54643  23916950.773                    23916960.047
 105263460.972 7  82023502.72146  20030971.102                    20030977.910
 108316673.939 8  84402622.70446  20611978.719                    20611984.336
 11  7 28 17 48 30.0000000  0 12G11G06G08G07G16G28G20G03G19G10G13G23
 130408968.684 6 101617429.24943  24816002.500                    24816013.305
 120035174.526 7  93533937.36244  22841935.195                    22841944.305
 125976484.389 7  98163540.43644  23972526.453                    23972536.211
 115533283.705 7  90025968.579 7  21985252.164                    21985259.930
 123487550.295 7  96224093.28444  23498901.234                    23498908.930
 129296973.298 6 100750812.15142  24604364.109                    24604374.574
 132622074.658 6 103341929.60343  25237153.852                    25237166.602
 110986482.614 8  86483003.09545  21120025.664                    21120033.586
 110723860.942 8  86278355.62346  21070049.844                    21070055.430
 125706009.491 7  97952771.80643  23921059.180                    23921069.043
 105264832.053 8  82024571.08046  20031231.945                    20031238.789
 108378150.071 8  84450526.14446  20623677.352                    20623682.805
 11  7 28 17 49  0.0000000  0 12G11G06G08G07G16G28G20G03G19G10G13G23
 130333629.990 6 101558723.90643  24801665.523                    24801676.883
 120102102.424 7  93586088.93244  22854671.547                    22854680.172
 125906991.957 7  98109390.56744  23959302.555                    23959312.355
 115477350.432 7  89982384.243 7  21974608.656                    21974615.820
 123578714.493 7  96295130.27044  23516249.578                    23516256.523
 129223157.647 6 100693293.57143  24590318.141                    24590327.770
 132701018.361 6 103403444.01243  25252176.063                    25252189.203
 111032203.305 8  86518629.58645  21128726.023                    21128734.219
 110695161.772 7  86255992.65146  21064588.633                    21064594.254
 125728034.896 6  97969934.42143  23925250.563                    23925259.977
 105266790.668 8  82026097.26446  20031605.188                    20031611.438
 108440134.752 8  84498825.85346  20635472.609                    20635478.289
 11  7 28 17 49 30.0000000  0 12G11G06G08G07G16G28G20G03G19G10G13G23
 130258142.132 6 101499902.29642  24787300.492                    24787312.586
 120169458.114 7  93638573.84944  22867488.836                    22867497.309
 125837443.138 7  98055196.74743  23946067.945                    23946077.207
 115421471.699 7  89938842.380 7  21963975.156                    21963983.344
 123669880.223 6  96366168.43444  23533597.375                    23533604.984
 129149550.161 6 100635937.19743  24576309.953                    24576321.441
 132779743.687 6 103464788.29443  25267157.203                    25267170.570
 111078502.217 8  86554706.65045  21137536.492                    21137544.207
 110667047.024 7  86234085.08046  21059238.383                    21059244.145
 125750493.046 7  97987434.23343  23929524.039                    23929533.926
 105269338.098 8  82028082.25646  20032089.328                    20032096.270
 108502626.687 8  84547520.82946  20647364.406                    20647370.145
 11  7 28 17 50  0.0000000  0 12G11G06G08G07G16G28G20G03G19G10G13G23
 130182506.891 6 101440965.84842  24772907.008                    24772918.977
 120237239.102 7  93691390.17044  22880386.891                    22880395.656
 125767837.588 7  98000958.71143  23932822.227                    23932832.230
 115365648.134 7  89895343.511 7  21953352.586                    21953359.910
 123761045.857 7  96437206.54644  23550945.813                    23550953.438
 129076150.987 6 100578743.14243  24562343.172                    24562354.223
 132858248.439 6 103525960.57842  25282095.078                    25282109.805
 111125377.424 8  86591232.75745  21146456.711                    21146464.566
 110639517.608 7  86212633.60046  21053999.461                    21054005.762
 125773382.340 6  98005270.00543  23933879.375                    23933890.270
 105272474.387 7  82030526.09546  20032686.547                    20032693.254
 108565624.017 8  84596609.61646  20659352.969                    20659357.961
 11  7 28 17 50 30.0000000  0 12G11G06G08G07G16G28G20G03G19G10G13G23
 130106726.777 6 101381916.51442  24758486.406                    24758498.094
 120305443.459 7  93744536.37444  22893365.750                    22893374.418
 125698175.714 7  97946676.80244  23919565.930                    23919575.820
 115309880.723 8  89851888.405 7  21942740.469                    21942747.859
 123852209.725 6  96508243.28544  23568293.672                    23568301.895
 129002960.359 6 100521711.61643  24548414.945                    24548425.422
 132936530.612 5 103586959.50542  25296992.672                    25297006.781
 111172826.958 8  86628206.40145  21155486.063                    21155493.836
 110612575.020 7  86191639.38946  21048872.492                    21048878.480
 125796700.587 6  98023440.02843  23938317.414                    23938327.223
 105276200.057 8  82033429.20546  20033395.438                    20033402.098
 108629125.205 8  84646091.02146  20671436.594                    20671442.098
 11  7 28 17 51  0.0000000  0 12G11G06G08G07G16G28G20G03G19G10G13G23
 130030804.286 6 101322756.28742  24744039.742                    24744050.770
 120374069.285 7  93798011.02144  22906425.016                    22906433.488
 125628457.652 6  97892351.11243  23906298.656                    23906308.285
 115254170.416 7  89808477.780 7  21932138.984                    21932146.422
 123943370.569 6  96579277.63944  23585641.477                    23585648.785
 128929979.192 6 100464843.26743  24534527.141                    24534537.547
 133014588.856 6 103647783.95342  25311847.453                    25311861.063
 111220849.677 8  86665626.68245  21164624.484                    21164632.551
 110586221.043 8  86171103.83346  21043857.352                    21043863.273
 125820445.721 7  98041942.67644  23942836.508                    23942846.145
 105280516.291 8  82036792.48646  20034216.500                    20034223.516
 108693128.933 8  84695964.01346  20683615.828                    20683621.617
 11  7 28 17 51 30.0000000  0 12G11G06G08G07G16G28G20G03G19G10G13G23
 129954741.396 6 101263486.57142  24729564.820                    24729575.645
 120443114.235 7  93851812.25344  22919564.117                    22919572.570
 125558683.456 7  97837981.65443  23893021.289                    23893030.078
 115198517.850 8  89765112.161 7  21921548.531                    21921556.082
 124034526.269 6  96650308.00244  23602987.328                    23602995.219
 128857207.796 6 100408138.40143  24520678.781                    24520689.645
 133092420.409 5 103708431.86042  25326657.383                    25326671.359
 111269443.427 8  86703491.92745  21173871.453                    21173879.543
 110560456.925 8  86151027.91946  21038954.617                    21038960.648
 125844616.186 7  98060776.77244  23947435.313                    23947445.641
 105285423.326 8  82040616.13446  20035150.563                    20035157.535
 108757632.998 8  84746226.87646  20695890.531                    20695895.766
 11  7 28 17 52  0.0000000  0 12G11G06G08G07G16G28G20G03G19G10G13G23
 129878540.779 6 101204109.60243  24715064.383                    24715075.156
 120512576.153 7  93905938.37844  22932782.070                    22932790.277
 125488853.419 7  97783568.68544  23879733.477                    23879741.926
 115142924.179 7  89721792.426 7  21910969.836                    21910976.504
 124125675.417 6  96721333.25244  23620332.055                    23620340.527
 128784646.601 6 100351597.36343  24506871.094                    24506881.656
 133170023.80314 103768901.89052  25341423.492                    25341439.406
 111318606.422 8  86741800.73845  21183226.727                    21183235.465
 110535284.263 8  86131412.85146  21034164.688                    21034170.633
 125869210.439 7  98079941.07543  23952115.938                    23952125.262
 105290921.827 8  82044900.66146  20036196.633                    20036203.551
 108822636.089 8  84796878.58446  20708260.344                    20708266.051
 11  7 28 17 52 30.0000000  0 12G11G06G08G07G16G28G20G03G19G10G13G23
 129802204.251 6 101144626.71543  24700537.359                    24700549.582
 120582452.742 7  93960387.64244  22946079.578                    22946087.313
 125418967.584 7  97729112.26643  23866434.336                    23866443.828
 115087389.938 7  89678519.013 7  21900401.672                    21900409.379
 124216816.764 6  96792352.42344  23637676.156                    23637683.816
 128712296.067 6 100295220.41143  24493103.430                    24493114.227
 133247396.96215                  25356149.914
 111368337.044 8  86780551.85845  21192690.594                    21192698.215
 110510703.852 8  86112259.29746  21029487.016                    21029493.133
 125894226.257 7  98099433.85743  23956876.320                    23956885.105
 105297012.325 8  82049646.48446  20037355.742                    20037362.703
 108888136.426 8  84847917.77546  20720724.734                    20720730.430
 11  7 28 17 53  0.0000000  0 12G11G06G08G07G16G28G20G03G19G10G13G23
 129725734.465 6 101085040.01343  24685985.781                    24685997.262
 120652741.743 7  94015158.28444  22959454.703                    22959463.023
 125349026.164 7  97674612.54243  23853124.789                    23853134.332
 115031916.027 7  89635292.593 7  21889845.172                    21889852.965
 124307948.388 6  96863363.98644  23655017.656                    23655025.832
 128640156.611 6 100239007.90943  24479375.180                    24479385.684
 133324537.841 4                  25370828.375
 111418633.300 8  86819743.72845  21202261.328                    21202268.898
 110486717.022 8  86093568.25946  21024922.813                    21024928.559
 125919661.895 6  98119253.77343  23961716.773                    23961726.586
 105303695.209 8  82054853.90546  20038627.273                    20038634.496
 108954132.279 8  84899343.07446  20733283.008                    20733288.902
 11  7 28 17 53 30.0000000  0 12G11G06G08G07G16G28G20G03G19G10G13G23
 129649133.722 6 101025351.25243  24671409.078                    24671420.875
 120723441.231 7  94070248.75444  22972908.477                    22972917.172
 125279029.480 7  97620069.73244  23839804.586                    23839814.000
 114976503.322 7  89592113.873 7  21879300.430                    21879308.250
 124399068.992 6  96934366.98044  23672357.820                    23672366.012
 128568228.287 6 100182959.91143  24465687.969                    24465697.863
 133401444.599 5                  25385464.211
 111469493.459 8  86859375.00045  21211939.203                    21211947.586
 110463325.323 8  86075340.97246  21020471.367                    21020477.355
 125945515.505 6  98139399.40743  23966636.227                    23966646.320
 105310971.207 8  82060523.49146  20040012.516                    20040019.086
 109020621.965 8  84951153.16546  20745935.586                    20745941.566
 11  7 28 17 54  0.0000000  0 12G11G06G08G07G16G28G20G03G19G10G13G23
 129572404.460 6 100965562.33043  24656807.695                    24656819.352
 120794548.684 7  94125657.15444  22986439.500                    22986448.617
 125208977.629 7  97565483.92044  23826473.906                    23826483.691
 114921152.628 7  89548983.480 7  21868767.805                    21868775.027
 124490176.743 6  97005359.92744  23689694.836                    23689703.168
 128496511.596 6 100127076.88742  24452040.727                    24452050.441
 133478115.36414                  25400051.688
 111520915.587 8  86899444.16945  21221725.016                    21221732.918
 110440529.754 8  86057578.19646  21016133.297                    21016139.387
 125971784.744 7  98159868.90043  23971635.648                    23971645.117
 105318840.265 8  82066655.20946  20041509.555                    20041516.523
 109087603.604 8  85003346.61946  20758681.813                    20758687.621
 11  7 28 17 54 30.0000000  0 12G11G06G08G07G16G28G20G03G19G10G13G23
 129495548.815 6 100905674.92942  24642183.016                    24642193.422
 120866061.909 7  94181381.70844  23000048.234                    23000056.672
 125138871.021 7  97510855.50044  23813133.398                    23813142.438
 114865864.871 7  89505902.126 7  21858246.617                    21858253.820
 124581270.152 6  97076341.72843  23707029.406                    23707037.184
 128425006.967 6 100071359.05143  24438433.195                    24438444.020
 133554547.972 5                  25414597.852
 111572897.640 8  86939949.65245  21231616.906                    21231624.867
 110418331.363 8  86040280.74846  21011909.313                    21011915.000
 125998467.623 6  98180660.71043  23976712.891                    23976722.348
 105327302.839 8  82073249.40946  20043119.789                    20043126.801
 109155075.542 8  85055922.11146  20771521.523                    20771527.422
 11  7 28 17 55  0.0000000  0 12G11G06G08G07G16G28G20G03G19G10G13G23
 129418569.262 6 100845690.97642  24627533.430                    24627544.512
 120937978.461 7  94237420.57244  23013733.547                    23013742.082
 125068709.341 7  97456184.10443  23799782.383                    23799790.621
 114810641.062 7  89462870.594 7  21847737.938                    21847745.477
 124672347.745 7  97147311.23843  23724361.898                    23724368.480
 128353714.590 6 100015806.56543  24424866.188                    24424877.246
 133630740.696 5                  25429097.742
 111625437.429 8  86980889.74045  21241614.594                    21241623.000
 110396731.599 8  86023449.78446  21007799.078                    21007804.805
 126025562.449 6  98201773.53143  23981868.531                    23981878.625
 105336359.212 8  82080306.30846  20044843.508                    20044850.047
 109223035.934 8  85108878.21946  20784454.055                    20784460.172
 11  7 28 17 55 30.0000000  0 12G11G06G08G07G16G28G20G03G19G10G13G23
 129341468.228 6 100785612.39642  24612861.586                    24612873.262
 121010296.698 7  94293772.39744  23027495.477                    23027503.383
 124998493.145 7  97401470.23343  23786420.352                    23786429.727
 114755482.615 8  89419889.996 7  21837241.648                    21837249.344
 124763408.217 7  97218267.39543  23741689.203                    23741696.957
 128282635.307 6  99960420.20743  24411340.781                    24411351.199
 133706691.543 6                  25443550.750
 111678533.602 8  87022263.36045  21251718.789                    21251727.004
 110375731.499 8  86007086.09046  21003802.672                    21003808.738
 126053067.349 6  98223205.86843  23987102.750                    23987113.129
 105346010.413 8  82087826.70746  20046679.688                    20046686.789
 109291483.335 8  85162213.81346  20797479.141                    20797485.324
 11  7 28 17 56  0.0000000  0 12G11G06G08G07G16G28G20G03G19G10G13G23
 129264248.198 6 100725440.99942  24598167.313                    24598177.852
 121083014.034 7  94350435.24244  23041333.125                    23041340.914
 124928222.636 7  97346714.08144  23773048.352                    23773058.109
 114700389.596 8  89376960.383 7  21826757.711                    21826765.000
 124854450.069 6  97289209.04943  23759014.344                    23759021.875
 128211768.935 6  99905199.71143  24397855.391                    24397865.832
 133782398.669 5                  25457956.516
 111732183.747 8  87064068.64745  21261927.984                    21261935.492
 110355332.332 8  85991190.65346  20999920.953                    20999926.574
 126080980.419 6  98244956.26543  23992414.867                    23992424.563
 105356256.491 8  82095810.65346  20048629.453                    20048636.699
 109360415.605 8  85215927.22946  20810596.758                    20810602.508
 11  7 28 17 56 30.0000000  0 12G11G06G08G07G16G28G20G03G19G10G13G23
 129186911.704 6 100665178.92642  24583450.367                    24583461.305
 121156128.211 7  94407407.29944  23055246.078                    23055255.090
 124857898.307 7  97291915.99743  23759665.563                    23759675.262
 114645363.441 8  89334082.887 7  21816286.453                    21816294.543
 124945471.723 6  97360134.95643  23776334.563                    23776342.805
 128141116.200 6  99850145.72243  24384410.617                    24384421.449
 133857860.627 5                  25472317.844
 111786386.165 8  87106304.27145  21272242.477                    21272250.527
 110335535.307 8  85975764.41746  20996153.578                    20996159.391
 126109299.387 6  98267022.95243  23997803.297                    23997813.836
 105367097.711 8  82104258.33746  20050692.742                    20050699.543
 109429830.960 8  85270017.07646  20823805.695                    20823811.844
 11  7 28 17 57  0.0000000  0 12G11G06G08G07G16G28G20G03G19G10G13G23
 129109460.844 6 100604827.67943  24568712.281                    24568723.492
 121229637.067 7  94464686.89944  23069234.234                    23069243.391
 124787520.116 7  97237075.92644  23746273.102                    23746282.188
 114590404.823 8  89291257.990 7  21805828.773                    21805835.465
 125036471.740 7  97431043.98443  23793651.688                    23793659.152
 128070677.143 6  99795258.18043  24371006.336                    24371016.930
 133933074.865 5                  25486630.352
 111841139.209 8  87148968.97145  21282661.633                    21282669.285
 110316341.441 8  85960808.17546  20992501.031                    20992506.883
 126138022.106 6  98289404.27443  24003269.141                    24003279.527
 105378534.394 8  82113170.02646  20052868.930                    20052875.730
 109499727.652 8  85324481.98346  20837106.906                    20837112.773
 11  7 28 17 57 30.0000000  0 12G11G06G08G07G16G28G20G03G19G10G13G23
 129031898.032 6 100544389.26342  24553952.977                    24553962.816
 121303538.133 7  94522272.11844  23083297.242                    23083306.406
 124717088.214 7  97182193.98844  23732870.555                    23732880.328
 114535514.845 8  89248486.599 7  21795383.266                    21795389.941
 125127448.517 7  97501934.93243  23810964.656                    23810971.500
 128000452.196 6  99740537.51043  24357643.352                    24357653.570
 134008039.847 5                  25500897.070
 111896440.456 8  87192060.82445  21293185.391                    21293193.066
 110297751.568 8  85946322.57446  20988963.688                    20988969.496
 126167146.850 6  98312098.80543  24008811.578                    24008821.887
 105390566.459 8  82122545.64446  20055158.469                    20055165.672
 109570103.553 8  85379320.30746  20850499.016                    20850504.438
 11  7 28 17 58  0.0000000  0 12G11G06G08G07G16G28G20G03G19G10G13G23
 128954225.872 6 100483865.56642  24539171.633                    24539182.379
 121377829.044 6  94580161.12344  23097434.656                    23097443.270
 124646603.093 7  97127270.55544  23719457.422                    23719466.871
 114480694.428 8  89205769.419 7  21784951.711                    21784958.594
 125218400.674 7  97572806.68043  23828271.695                    23828279.496
 127930441.657 6  99685983.96543  24344320.406                    24344330.777
 134082753.364 5                  25515113.227
 111952287.796 8  87235578.21645  21303812.195                    21303820.785
 110279766.612 8  85932308.34446  20985540.953                    20985547.277
 126196671.282 6  98335104.77643  24014429.750                    24014440.137
 105403194.205 8  82132385.43046  20057561.961                    20057568.859
 109640956.705 8  85434530.52046  20863981.961                    20863987.777
 11  7 28 17 58 30.0000000  0 12G11G06G08G07G16G28G20G03G19G10G13G23
 128876446.852 6 100423258.56742  24524370.641                    24524382.359
 121452507.556 6  94638352.13544  23111645.031                    23111653.934
 124576065.100 7  97072305.94144  23706034.852                    23706043.488
 114425944.492 8  89163107.150 7  21774532.461                    21774540.098
 125309326.888 7  97643658.22544  23845574.703                    23845582.625
 127860645.630 7  99631597.53543  24331038.352                    24331048.984
 134157214.47114                  25529282.500
 112008678.863 7  87279519.27445  21314543.586                    21314551.621
 110262387.545 8  85918766.22946  20982233.852                    20982239.672
 126226593.282 6  98358420.60343  24020123.586                    24020134.027
 105416417.902 8  82142689.60146  20060077.977                    20060085.051
 109712285.319 8  85490111.20646  20877555.602                    20877561.238
 11  7 28 17 59  0.0000000  0 12G11G06G08G07G16G28G20G03G19G10G13G23
 128798563.356 6 100362570.16943  24509550.180                    24509561.727
 121527571.390 7  94696843.40144  23125929.695                    23125937.934
 124505474.313 7  97017300.19944  23692601.766                    23692610.965
 114371266.099 8  89120500.619 7  21764127.398                    21764135.285
 125400225.724 7  97714488.43143  23862871.797                    23862880.668
 127791064.542 7  99577378.59443  24317797.484                    24317808.230
 134231420.95915                  25543404.219
 112065611.909 7  87323882.69545  21325377.430                    21325385.535
 110245615.418 8  85905697.04646  20979042.211                    20979048.086
 126256910.876 6  98382044.63043  24025892.617                    24025903.086
 105430237.900 8  82153458.41146  20062708.180                    20062714.785
 109784087.629 8  85546061.01746  20891218.930                    20891224.758
 11  7 28 17 59 30.0000000  0 12G11G06G08G07G16G28G20G03G19G10G13G23
 128720577.908 6 100301802.40143  24494710.430                    24494720.656
 121603018.120 7  94755633.05744  23140286.109                    23140295.313
 124434831.276 7  96962253.71944  23679158.547                    23679167.859
 114316660.021 8  89077950.437 7  21753736.508                    21753744.152
 125491095.637 6  97785296.09244  23880163.781                    23880172.301
 127721698.520 7  99523327.22743  24304597.797                    24304608.074
 134305370.89114                  25557477.391
 112123084.934 7  87368666.84045  21336314.391                    21336322.082
 110229451.147 8  85893101.51846  20975966.703                    20975972.313
 126287621.895 6  98405975.23943  24031737.828                    24031747.320
 105444654.191 8  82164691.86646  20065451.242                    20065458.398
 109856361.500 8  85602378.27946  20904972.063                    20904978.207
 11  7 28 18  0  0.0000000  0 11G11G06G08G07G16G28G03G19G10G13G23
 128642493.423 6 100240957.41443  24479851.031                    24479861.629
 121678846.157 7  94814719.78544  23154717.133                    23154724.977
 124364136.419 7  96907166.85043  23665705.469                    23665714.352
 114262128.031 8  89035457.988 7  21743358.953                    21743366.891
 125581935.806 6  97856080.54743  23897451.266                    23897458.066
 127652548.488 7  99469444.19243  24291439.258                    24291449.355
 112181096.405 7  87413870.57545  21347353.227                    21347361.516
 110213896.288 7  85880980.85346  20973006.758                    20973012.672
 126318725.055 6  98430211.44043  24037656.508                    24037665.797
 105459667.552 8  82176390.57346  20068308.336                    20068314.953
 109929105.509 8  85659061.86646  20918815.078                    20918820.441
 11  7 28 18  0 30.0000000  0 11G11G06G08G07G16G28G03G19G10G13G23
 128564311.899 6 100180036.82943  24464973.109                    24464984.223
 121755052.655 7  94874101.43944  23169218.445                    23169226.914
 124293389.964 7  96852039.82744  23652243.141                    23652252.152
 114207670.742 8  88993023.752 7  21732996.625                    21733003.902
 125672744.544 6  97926840.56543  23914730.625                    23914738.441
 127583614.113 6  99415729.19543  24278320.719                    24278331.254
 112239643.270 7  87459491.49745  21358494.594                    21358502.883
 110198951.261 8  85869335.38846  20970162.508                    20970168.367
 126350217.666 6  98454751.09443  24043648.867                    24043659.309
 105475277.329 8  82188554.02646  20071278.492                    20071285.055
 110002317.377 8  85716110.02446  20932747.117                    20932752.840
 11  7 28 18  1  0.0000000  0 12G11G06G08G07G16G28G20G03G19G10G13G23
 128486034.866 6 100119041.81542  24450078.500                    24450088.938
 121831634.348 6  94933775.45944  23183790.914                    23183799.738
 124222591.455 7  96796872.19844  23638770.461                    23638779.504
 114153288.186 8  88950647.755 7  21722647.617                    21722655.184
 125763519.424 6  97997574.16043  23932003.836                    23932012.969
 127514895.120 6  99362182.05743  24265244.336                    24265254.266
 134525622.19215                  25599399.109
 112298723.106 8  87505527.71345  21369737.336                    21369744.746
 110184615.904 8  85858164.99246  20967434.484                    20967440.332
 126382096.437 6  98479591.66143  24049714.602                    24049725.719
 105491483.169 8  82201181.93146  20074362.484                    20074369.559
 110075994.158 8  85773520.45646  20946767.195                    20946772.883
 11  7 28 18  1 30.0000000  0 12G11G06G08G07G16G28G20G03G19G10G13G23
 128407666.247 6 100057975.39743  24435165.023                    24435175.500
 121908589.785 7  94993740.68844  23198434.445                    23198443.805
 124151741.659 7  96741664.60944  23625288.375                    23625297.637
 114098982.328 8  88908331.523 7  21712313.789                    21712321.078
 125854260.154 6  98068281.13343  23949271.914                    23949280.734
 127446392.667 6  99308803.64843  24252208.461                    24252218.824
 134598528.45514                  25613270.805
 112358334.395 8  87551978.05745  21381080.680                    21381089.043
 110170892.266 7  85847471.25846  20964823.031                    20964828.828
 126414360.249 6  98504732.20543  24055855.055                    24055865.168
 105508286.050 8  82214275.06946  20077560.102                    20077567.125
 110150134.814 8  85831292.34946  20960875.695                    20960881.383
 11  7 28 18  2  0.0000000  0 12G11G06G08G07G16G28G20G03G19G10G13G23
 128329207.920 6  99996839.11343  24420234.594                    24420246.035
 121985916.476 7  95053995.19444  23213149.844                    23213159.109
 124080841.189 7  96686417.56344  23611796.430                    23611805.066
 114044754.215 8  88866075.853 7  21701994.469                    21702001.305
 125944965.191 6  98138960.28043  23966532.953                    23966540.824
 127378106.328 6  99255593.62943  24239213.305                    24239223.930
 134671169.314 5                  25627093.227
 112418474.821 7  87598840.69845  21392524.852                    21392533.215
 110157780.295 8  85837254.15046  20962328.172                    20962334.063
 126447006.701 6  98530170.95043  24062067.359                    24062078.539
 105525685.399 8  82227832.99346  20080871.219                    20080878.055
 110224737.008 8  85889423.87246  20975072.063                    20975077.805
 11  7 28 18  2 30.0000000  0 12G11G06G08G07G16G28G20G03G19G10G13G23
 128250662.561 6  99935635.01443  24405288.219                    24405298.813
 122063611.937 7  95114537.08544  23227934.625                    23227943.746
 124009890.303 7  96631131.20644  23598295.320                    23598303.691
 113990604.697 8  88823881.445 7  21691690.016                    21691697.336
 126035632.838 7  98209610.36343  23983787.258                    23983794.004
 127310036.423 6  99202552.32043  24226259.891                    24226270.027
 134743543.340 4                  25640866.133
 112479142.177 7  87646113.95445  21404069.586                    21404077.539
 110145281.168 8  85827514.58746  20959949.750                    20959954.957
 126480033.922 6  98555906.38443  24068352.203                    24068362.293
 105543681.355 8  82241855.79646  20084295.625                    20084302.582
 110299798.868 8  85947913.57946  20989355.633                    20989361.516
 11  7 28 18  3  0.0000000  0 12G11G06G08G07G16G28G20G03G19G10G13G23
 128172032.951 6  99874365.29043  24390324.102                    24390335.918
 122141674.116 7  95175364.71744  23242789.703                    23242798.707
 123938889.333 7  96575805.82944  23584783.758                    23584792.234
 113936535.041 8  88781749.259 7  21681401.031                    21681408.203
 126126262.309 7  98280230.66443  24001032.766                    24001040.316
 127242183.247 6  99149679.89143  24213348.125                    24213358.398
 134815648.33315                  25654588.328
 112540334.162 7  87693796.00245  21415714.438                    21415722.223
 110133395.896 8  85818253.35046  20957687.664                    20957693.691
 126513439.705 6  98581936.82643  24074709.094                    24074720.078
 105562274.084 8  82256343.63246  20087833.805                    20087840.563
 110375318.449 8  86006759.95246  21003726.453                    21003732.871
 11  7 28 18  3 30.0000000  0 12G11G06G08G07G16G28G20G03G19G10G13G23
 128093321.295 6  99813031.60443  24375346.656                    24375357.426
 122220100.426 7  95236476.08644  23257713.711                    23257722.195
 123867838.806 7  96520441.87244  23571263.359                    23571272.504
 113882546.043 8  88739679.923 7  21671127.289                    21671134.074
 126216852.103 7  98350820.04043  24018271.102                    24018279.012
 127174547.118 6  99096976.59243  24200477.805                    24200487.684
 134887482.87515                  25668257.563
 112602048.497 7  87741885.06945  21427457.797                    21427465.984
 110122124.975 8  85809470.82346  20955542.820                    20955548.949
 126547221.665 6  98608260.34344  24081137.789                    24081147.902
 105581463.570 8  82271296.46246  20091485.086                    20091492.094
 110451293.443 8  86065961.19146  21018184.375                    21018190.383
 11  7 28 18  4  0.0000000  0 12G11G06G08G07G16G28G20G03G19G10G13G23
 128014530.293 6  99751636.12643  24360353.445                    24360363.941
 122298888.380 7  95297869.27544  23272706.609                    23272715.113
 123796738.740 7  96465039.28144  23557733.531                    23557742.129
 113828638.959 8  88697674.414 7  21660868.602                    21660876.320
 126307400.820 7  98421377.42143  24035502.172                    24035509.680
 127107128.296 6  99044442.57643  24187647.836                    24187657.719
 134959045.80515                  25681875.953
 112664282.838 7  87790379.34045  21439300.656                    21439308.883
 110111468.961 8  85801167.45646  20953515.422                    20953521.215
 126581377.560 6  98634875.26143  24087638.117                    24087648.023
 105601249.472 8  82286714.04146  20095250.547                    20095257.344
 110527721.725 8  86125515.64346  21032728.031                    21032733.922
 11  7 28 18  4 30.0000000  0 12G11G06G08G07G16G28G20G03G19G10G13G23
 127935662.143 7  99690180.46843  24345345.070                    24345355.605
 122378035.603 7  95359542.39244  23287768.203                    23287776.418
 123725589.828 7  96409598.65044  23544193.930                    23544203.141
 113774814.803 8  88655733.545 7  21650626.594                    21650634.188
 126397907.423 6  98491902.02543  24052724.938                    24052732.961
 127039926.469 6  98992077.63243  24174859.219                    24174870.352
 135030334.37114                  25695441.086
 112727035.272 7  87839277.31245  21451242.633                    21451250.160
 110101428.500 8  85793343.73546  20951604.469                    20951610.305
 126615905.334 6  98661779.97843  24094207.930                    24094218.031
 105621631.577 8  82302596.17846  20099128.742                    20099136.148
 110604601.222 8  86185421.68846  21047357.898                    21047363.836
 11  7 28 18  5  0.0000000  0 12G11G06G08G07G16G28G20G03G19G10G13G23
 127856719.787 7  99628667.02443  24330322.859                    24330333.832
 122457539.797 7  95421493.68644  23302897.305                    23302905.531
 123654392.663 6  96354120.38944  23530645.461                    23530654.121
 113721074.654 8  88613858.102 7  21640400.531                    21640407.609
 126488370.226 7  98562392.45043  24069939.547                    24069947.754
 126972941.794 6  98939881.89043  24162113.391                    24162123.055
 135101347.76215                  25708954.641
 112790303.506 7  87888577.22345  21463281.867                    21463289.930
 110092004.251 8  85786000.17646  20949811.281                    20949816.805
 126650802.590 6  98688972.62043  24100848.789                    24100858.969
 105642609.888 8  82318942.89846  20103121.188                    20103127.910
 110681929.918 8  86245677.76346  21062072.750                    21062079.238
 11  7 28 18  5 30.0000000  0 12G11G06G08G07G16G28G20G03G19G10G13G23
 127777705.575 7  99567097.60143  24315286.594                    24315297.621
 122537398.288 7  95483721.05044  23318093.477                    23318102.551
 123583147.137 6  96298604.43244  23517088.383                    23517096.781
 113667419.235 8  88572048.712 7  21630189.523                    21630197.023
 126578788.066 7  98632847.89443  24087145.273                    24087153.621
 126906174.597 6  98887855.60343  24149406.953                    24149417.285
 135172083.625 4                  25722416.523
 112854085.146 7  87938277.18445  21475418.922                    21475427.313
 110083196.697 8  85779137.16246  20948135.219                    20948140.547
 126686066.776 6  98716451.13743  24107559.836                    24107569.938
 105664184.046 8  82335753.92146  20107226.359                    20107233.398
 110759705.361 8  86306281.94846  21076873.180                    21076879.328
 11  7 28 18  6  0.0000000  0 12G11G06G08G07G16G28G20G03G19G10G13G23
 127698622.604 7  99505474.57143  24300238.852                    24300247.859
 122617609.094 7  95546222.95244  23333357.383                    23333365.566
 123511854.186 7  96243051.53944  23503520.688                    23503530.695
 113613850.247 8  88530306.663 7  21619995.727                    21620003.734
 126669159.864 6  98703267.43243  24104343.641                    24104349.887
 126839625.312 6  98835999.09343  24136742.844                    24136753.582
 135242537.83115                  25735823.055
 112918377.614 7  87988375.18345  21487653.477                    21487661.594
 110075006.737 8  85772755.39646  20946576.438                    20946581.988
 126721695.970 6  98744214.09243  24114339.586                    24114349.660
 105686354.027 8  82353029.21046  20111445.180                    20111452.188
 110837925.820 8  86367232.90645  21091758.055                    21091763.906
 11  7 28 18  6 30.0000000  0 12G11G06G08G07G16G28G20G03G19G10G13G23
 127619472.984 7  99443799.64643  24285176.734                    24285186.156
 122698169.501 6  95608997.24943  23348687.086                    23348696.234
 123440513.813 7  96187461.70744  23489945.586                    23489955.086
 113560368.720 8  88488632.775 7  21609818.602                    21609826.121
 126759484.224 6  98773649.96043  24121531.109                    24121538.145
 126773293.707 6  98784312.19343  24124120.156                    24124131.059
 135312711.69314                  25749178.492
 112983178.952 7  88038869.70245  21499984.969                    21499992.801
 110067434.492 7  85766854.95846  20945135.688                    20945141.188
 126757687.895 7  98772259.67243  24121188.656                    24121198.715
 105709119.977 8  82370768.89446  20115777.359                    20115784.438
 110916588.621 8  86428528.53945  21106727.211                    21106733.117
 11  7 28 18  7  0.0000000  0 12G11G06G08G07G16G28G20G03G19G10G13G23
 127540259.194 6  99382074.67943  24270102.172                    24270112.492
 122779077.096 6  95672042.11144  23364083.469                    23364092.055
 123369127.031 7  96131835.67044  23476361.305                    23476369.328
 113506975.764 8  88447027.894 7  21599658.227                    21599665.473
 126849759.817 6  98843994.57343  24138709.773                    24138717.613
 126707179.858 7  98732794.98043  24111540.164                    24111549.449
 135382606.44215                  25762477.820
 113048486.691 7  88089758.83445  21512412.602                    21512420.164
 110060480.522 8  85761436.30946  20943812.570                    20943817.941
 126794039.944 7  98800585.90643  24128105.781                    24128116.965
 105732481.123 8  82388972.36446  20120222.914                    20120230.102
 110995691.887 8  86490167.38946  21121780.156                    21121786.238
 11  7 28 18  7 30.0000000  0 12G11G06G08G07G16G28G20G03G19G10G13G23
 127460984.113 6  99320301.96943  24255016.094                    24255027.059
 122860329.626 6  95735355.75344  23379545.719                    23379554.371
 123297693.963 7  96076173.60744  23462768.352                    23462777.109
 113453672.726 8  88405493.055 7  21589515.094                    21589522.430
 126939985.797 6  98914300.43943  24155879.609                    24155887.895
 126641284.261 6  98681447.85443  24099000.938                    24099010.355
 135452217.73014                  25775726.672
 113114298.447 8  88141040.69845  21524936.188                    21524944.406
 110054145.523 8  85756499.96146  20942606.781                    20942612.590
 126830750.258 6  98829191.29943  24135091.453                    24135101.758
 105756437.565 8  82407639.70446  20124781.938                    20124788.832
 111075233.657 8  86552147.93746  21136916.508                    21136922.488
 11  7 28 18  8  0.0000000  0 12G11G06G08G07G16G28G20G03G19G10G13G23
 127381650.239 6  99258483.41143  24239920.516                    24239929.855
 122941924.432 6  95798936.05844  23395072.609                    23395081.645
 123226214.786 7  96020475.62844  23449166.039                    23449174.500
 113400460.510 8  88364029.020 7  21579388.758                    21579396.277
 127030160.534 6  98984566.36643  24173039.461                    24173047.934
 126575606.736 7  98630270.58043  24086502.641                    24086512.344
 135521546.35015                  25788918.305
 113180611.612 8  88192713.27045  21537554.969                    21537563.195
 110048429.831 8  85752046.18646  20941519.227                    20941524.695
 126867816.155 7  98858073.76343  24142144.453                    24142155.668
 105780988.321 8  82426770.14546  20129453.734                    20129460.617
 111155211.313 8  86614468.12746  21152135.930                    21152142.004
 11  7 28 18  8 30.0000000  0 11G11G06G08G07G16G28G03G19G10G13G23
 127302260.693 6  99196621.54043  24224812.023                    24224822.484
 123023859.241 6  95862781.36444  23410663.680                    23410672.430
 123154690.350 7  95964742.32944  23435554.797                    23435563.672
 113347340.266 8  88322636.635 7  21569280.711                    21569287.859
 127120283.212 6  99054791.73143  24190189.297                    24190197.887
 126510147.682 6  98579263.54043  24074046.125                    24074055.254
 113247424.440 8  88244775.19745  21550269.305                    21550277.074
 110043334.115 8  85748075.51946  20940549.273                    20940554.969
 126905235.685 7  98887231.77943  24149266.531                    24149276.293
 105806134.087 8  82446364.22646  20134238.703                    20134245.539
 111235622.979 8  86677126.51745  21167437.828                    21167444.027
 11  7 28 18  9  0.0000000  0 11G11G06G08G07G16G28G03G19G10G13G23
 127222817.720 6  99134718.01243  24209694.016                    24209704.758
 123106131.500 7  95926889.58744  23426320.195                    23426328.879
 123083120.816 7  95908973.90944  23421935.359                    23421944.621
 113294312.992 8  88281316.690 7  21559190.094                    21559197.180
 127210352.287 6  99124975.35843  24207328.172                    24207336.473
 126444906.782 6  98528426.53843  24061630.477                    24061640.832
 113314734.018 8  88297224.21145  21563077.672                    21563085.820
 110038858.257 8  85744587.84546  20939697.352                    20939703.281
 126943006.279 6  98916663.29943  24156453.539                    24156463.164
 105831873.975 8  82466421.26546  20139137.047                    20139143.824
 111316465.905 8  86740120.94545  21182821.727                    21182827.996
 11  7 28 18  9 30.0000000  0 11G11G06G08G07G16G28G03G19G10G13G23
 127143324.069 6  99072774.96443  24194567.414                    24194577.805
 123188738.956 6  95991258.99243  23442039.641                    23442048.539
 123011507.058 7  95853171.04144  23408307.750                    23408317.000
 113241380.526 8  88240070.645 7  21549116.906                    21549124.547
 127300367.081 6  99195116.68843  24224457.563                    24224465.953
 126379884.310 6  98477759.70443  24049258.125                    24049267.516
 113382537.836 7  88350058.32045  21575980.719                    21575988.066
 110035003.134 8  85741583.86446  20938963.875                    20938969.691
 126981125.507 6  98946366.53343  24163707.805                    24163717.383
 105858207.599 8  82486940.95746  20144148.125                    20144155.129
 111397738.511 8  86803450.18845  21198287.555                    21198293.668
 11  7 28 18 10  0.0000000  0 11G11G06G08G07G16G28G03G19G10G13G23
 127063782.167 6  99010794.34543  24179430.727                    24179440.734
 123271678.799 7  96055887.39044  23457822.813                    23457831.570
 122939849.522 7  95797334.04344  23394672.445                    23394681.328
 113188543.639 8  88198899.059 7  21539062.445                    21539070.211
 127390326.107 6  99265214.53743  24241576.086                    24241585.184
 126315080.285 6  98427263.10643  24036926.117                    24036935.441
 113450833.628 7  88403275.79945  21588976.930                    21588984.848
 110031768.691 8  85739063.53746  20938348.461                    20938354.039
 127019590.788 6  98976339.42743  24171026.773                    24171037.551
 105885134.528 8  82507922.95746  20149272.063                    20149278.910
 111479438.006 8  86867112.07046  21213834.125                    21213840.539
 11  7 28 18 10 30.0000000  0 11G11G06G08G07G16G28G03G19G10G13G23
 126984194.766 6  98948778.25643  24164285.891                    24164296.680
 123354948.682 6  96120772.96444  23473668.344                    23473676.973
 122868148.575 7  95741463.22244  23381027.719                    23381036.738
 113135803.290 8  88157802.708 7  21529026.805                    21529034.055
 127480227.944 6  99335267.85243  24258684.188                    24258692.770
 126250494.596 6  98376936.63443  24024635.664                    24024644.781
 113519618.876 7  88456874.67045  21602065.773                    21602073.820
 110029155.359 8  85737027.18346  20937851.156                    20937857.160
 127058400.025 6  99006580.30543  24178412.406                    24178422.688
 105912654.530 8  82529367.09246  20154509.148                    20154515.750
 111561562.111 8  86931104.82045  21229462.133                    21229468.168
 11  7 28 18 11  0.0000000  0 11G11G06G08G07G16G28G03G19G10G13G23
 126904564.329 6  98886728.62143  24149133.484                    24149143.773
 123438545.957 7  96185913.65444  23489576.727                    23489585.074
 122796404.759 7  95685558.97544  23367375.508                    23367384.219
 113083160.676 8  88116782.504 7  21519008.805                    21519015.902
 127570071.538 6  99405275.75543  24275781.289                    24275790.012
 126186127.303 6  98326780.34443  24012385.906                    24012396.305
 113588890.991 7  88510852.92645  21615248.352                    21615256.559
 110027163.020 8  85735474.72546  20937471.930                    20937477.926
 127097550.341 6  99037087.01343  24185862.664                    24185872.547
 105940766.839 8  82551272.76846  20159858.742                    20159865.449
 111644108.576 8  86995426.67346  21245170.242                    21245176.473
 11  7 28 18 11 30.0000000  0 11G11G06G08G07G16G28G03G19G10G13G23
 126824893.676 6  98824647.67043  24133972.688                    24133982.254
 123522468.105 7  96251307.47644  23505545.867                    23505555.449
 122724618.504 7  95629621.67944  23353714.227                    23353724.199
 113030617.170 8  88075839.526 7  21509009.977                    21509017.355
 127659855.870 6  99475237.50943  24292866.523                    24292875.059
 126121978.534 6  98276794.26343  24000179.969                    24000188.848
 113658647.451 7  88565208.57745  21628522.453                    21628530.152
 110025792.087 8  85734406.48246  20937210.969                    20937217.262
 127137039.735 6  99067857.92243  24193376.461                    24193387.441
 105969470.842 8  82573639.50546  20165320.875                    20165327.898
 111727074.942 8  87060075.72745  21260958.281                    21260964.180
 11  7 28 18 12  0.0000000  0 11G11G06G08G07G16G28G03G19G10G13G23
 126745185.283 7  98762537.33643  24118804.125                    24118814.477
 123606712.768 7  96316952.61344  23521577.977                    23521586.625
 122652790.128 7  95573651.59744  23340046.422                    23340055.309
 112978173.819 8  88034974.604 7  21499030.703                    21499037.605
 127749579.383 7  99545151.86043  24309941.156                    24309949.152
 126058048.193 6  98226978.49843  23988013.227                    23988023.102
 113728886.057 7  88619939.94745  21641888.055                    21641896.453
 110025042.665 8  85733822.52246  20937068.305                    20937073.949
 127176865.564 6  99098890.98543  24200956.125                    24200965.949
 105998766.010 8  82596466.89046  20170895.727                    20170902.664
 111810458.981 8  87125050.23145  21276826.008                    21276832.215
 11  7 28 18 12 30.0000000  0 11G11G06G08G07G16G28G03G19G10G13G23
 126665442.204 6  98700399.91143  24103629.625                    24103639.266
 123691277.607 7  96382847.23244  23537669.711                    23537679.004
 122580920.496 7  95517649.30244  23326370.383                    23326378.781
 112925832.117 8  87994188.875 7  21489070.047                    21489077.383
 127839241.382 7  99615018.26443  24327003.180                    24327011.094
 125994336.330 6  98177332.93643  23975889.813                    23975898.699
 113799604.034 8  88675044.83545  21655345.570                    21655353.910
 110024915.321 8  85733723.29046  20937044.055                    20937050.207
 127217025.741 6  99130184.55743  24208598.445                    24208608.336
 106028652.223 8  82619754.82746  20176582.781                    20176590.168
 111894258.374 8  87190348.40645  21292772.180                    21292777.996
 11  7 28 18 13  0.0000000  0 11G11G06G08G07G16G28G03G19G10G13G23
 126585666.975 6  98638237.41643  24088448.422                    24088458.531
 123776159.801 7  96448989.17044  23553822.906                    23553831.215
 122509009.819 7  95461615.07244  23312685.617                    23312694.320
 112873593.124 8  87953483.193 7  21479129.266                    21479136.895
 127928840.613 6  99684835.82143  24344052.633                    24344061.262
 125930842.873 6  98127857.57743  23963808.125                    23963816.625
 113870798.775 7  88730521.24945  21668892.789                    21668900.980
 110025409.820 8  85734108.62046  20937138.430                    20937144.070
 127257517.350 6  99161736.44743  24216302.953                    24216313.430
 106059128.448 8  82643502.51346  20182382.273                    20182389.297
 111978470.537 8  87255968.20545  21308797.617                    21308803.207
 11  7 28 18 13 30.0000000  0 11G11G06G08G07G16G28G03G19G10G13G23
 126505862.305 6  98576052.05943  24073262.148                    24073272.090
 123861357.259 7  96515376.75444  23570035.102                    23570044.000
 122437059.116 7  95405549.60844  23298993.883                    23299002.324
 112821458.248 8  87912858.622 7  21469208.414                    21469216.047
 128018376.138 6  99754603.66142  24361090.633                    24361098.250
 125867568.112 6  98078552.65343  23951766.570                    23951776.289
 113942467.869 7  88786367.25945  21682531.703                    21682539.285
 110026526.700 8  85734978.92646  20937350.586                    20937356.012
 127298338.174 6  99193544.79643  24224071.469                    24224081.656
 106090194.525 8  82667709.82146  20188293.844                    20188300.984
 112063093.349 8  87321907.98445  21324900.297                    21324906.695
 11  7 28 18 14  0.0000000  0 11G11G06G08G07G16G28G03G19G10G13G23
 126426030.760 6  98513845.74243  24058070.734                    24058081.184
 123946867.135 7  96582007.75944  23586307.031                    23586316.141
 122365068.803 7  95349453.33244  23285294.609                    23285304.059
 112769428.509 8  87872315.990 7  21459307.680                    21459315.191
 128107846.644 6  99824320.90143  24378116.984                    24378123.980
 125804511.740 6  98029417.90443  23939766.906                    23939777.156
 114014608.704 7  88842580.87945  21696259.609                    21696267.977
 110028265.613 8  85736333.92746  20937681.703                    20937687.496
 127339485.675 6  99225607.68743  24231901.391                    24231911.664
 106121849.457 8  82692375.97846  20194317.586                    20194324.660
 112148124.313 8  87388165.81445  21341081.242                    21341087.762
 11  7 28 18 14 30.0000000  0 11G11G06G08G07G16G28G03G19G10G13G23
 126346175.599 6  98451620.97943  24042874.273                    24042884.805
 124032687.330 6  96648880.57044  23602637.961                    23602647.648
 122293039.675 7  95293326.79544  23271587.695                    23271596.457
 112717505.538 8  87831856.556 7  21449426.844                    21449434.398
 128197251.331 6  99893986.81442  24395129.320                    24395137.801
 125741674.110 6  97980453.61743  23927809.172                    23927818.957
 114087219.032 7  88899160.32645  21710076.922                    21710084.926
 110030627.115 8  85738174.07146  20938131.109                    20938136.984
 127380957.524 6  99257923.35843  24239793.172                    24239803.055
 106154093.259 8  82717500.99246  20200453.242                    20200460.441
 112233561.284 8  87454740.02145  21357339.555                    21357345.238
 11  7 28 18 15  0.0000000  0 11G11G06G08G07G16G28G03G19G10G13G23
 126266299.219 6  98389379.67343  24027674.516                    24027684.918
 124118814.924 6  96715992.95244  23619027.695                    23619036.754
 122220972.030 7  95237170.19544  23257873.617                    23257882.531
 112665690.491 8  87791481.210 7  21439566.953                    21439574.230
 128286589.186 5  99963600.72042  24412129.617                    24412138.996
 125679054.711 6  97931659.38443  23915893.813                    23915902.902
 114160296.291 8  88956103.62645  21723983.289                    21723991.090
 110033610.900 7  85740499.10846  20938698.836                    20938704.430
 127422751.001 6  99290489.66043  24247745.891                    24247756.676
 106186924.851 8  82743084.03946  20206700.883                    20206707.922
 112319401.748 8  87521628.62345  21373674.539                    21373680.719
 11  7 28 18 15 30.0000000  0 11G11G06G08G07G16G28G03G19G10G13G23
 126186403.983 6  98327123.70843  24012470.438                    24012481.559
 124205247.542 6  96783342.99744  23635474.922                    23635484.418
 122148866.783 7  95180984.32844  23244153.016                    23244161.305
 112613984.290 8  87751190.687 7  21429727.586                    21429734.777
 128375858.925 5 100033161.43642  24429117.766                    24429126.250
 125616653.316 6  97883035.03144  23904019.297                    23904028.469
 114233837.703 7  89013408.58745  21737977.508                    21737985.758
 110037216.838 8  85743308.94346  20939385.039                    20939390.859
 127464863.763 6  99323304.70743  24255760.906                    24255770.477
 106220343.036 8  82769124.16046  20213060.164                    20213067.402
 112405642.898 8  87588829.45945  21390085.602                    21390091.492
 11  7 28 18 16  0.0000000  0 11G11G06G08G07G16G28G03G19G10G13G23
 126106493.118 7  98264855.57843  23997264.703                    23997275.043
 124291982.756 6  96850928.80244  23651980.406                    23651990.016
 122076724.544 7  95124769.63144  23230424.547                    23230433.520
 112562389.014 8  87710986.575 7  21419909.156                    21419916.449
 128465059.592 6 100102668.39042  24446091.234                    24446100.031
 125554470.491 6  97834581.03143  23892185.945                    23892195.695
 114307840.966 8  89071073.44345  21752059.781                    21752067.992
 110041445.081 8  85746603.68646  20940189.750                    20940195.520
 127507293.468 6  99356366.78743  24263833.805                    24263844.777
 106254347.724 8  82795621.29446  20219531.047                    20219537.781
 112492282.513 8  87656340.76945  21406572.844                    21406578.859
 11  7 28 18 16 30.0000000  0 11G11G06G08G07G16G28G03G19G10G13G23
 126026569.068 7  98202577.16843  23982055.578                    23982065.539
 124379017.901 6  96918748.32944  23668542.773                    23668551.719
 122004545.662 7  95068526.39944  23216689.531                    23216698.867
 112510905.028 8  87670869.211 7  21410112.094                    21410119.066
 128554189.927 6 100172120.55343  24463053.398                    24463061.566
 125492505.749 7  97786296.94843  23880393.695                    23880403.680
 114382302.816 8  89129095.63245  21766229.531                    21766238.270
 110046295.497 8  85750383.23846  20941112.594                    20941117.973
 127550037.267 6  99389673.57343  24271968.180                    24271978.832
 106288937.794 8  82822574.57346  20226113.617                    20226120.547
 112579318.043 8  87724160.59945  21423135.039                    21423141.691
 11  7 28 18 17  0.0000000  0 11G11G06G08G07G16G28G03G19G10G13G23
 125946634.713 7  98140290.68943  23966844.570                    23966854.418
 124466350.443 6  96986799.63244  23685161.703                    23685170.797
 121932330.955 7  95012255.24344  23202947.039                    23202956.172
 112459534.331 8  87630840.117 7  21400336.789                    21400343.574
 128643249.150 6 100241517.27043  24480000.680                    24480009.391
 125430759.296 7  97738182.93743  23868644.633                    23868653.074
 114457221.279 7  89187473.62845  21780485.648                    21780494.258
 110051768.018 8  85754647.55646  20942153.938                    20942159.691
 127593092.935 6  99423223.39843  24280161.992                    24280172.230
 106324112.673 8  82849983.54746  20232807.234                    20232814.090
 112666747.341 8  87792287.25445  21439772.680                    21439779.086
 11  7 28 18 17 30.0000000  0 11G11G06G08G07G16G28G03G19G10G13G23
 125866693.039 6  98077998.54543  23951631.742                    23951642.695
 124553977.731 6  97055080.58943  23701836.156                    23701845.723
 121860080.779 7  94955956.44444  23189198.195                    23189207.070
 112408277.628 8  87590899.839 7  21390582.711                    21390590.031
 128732236.129 6 100310857.72543  24496934.313                    24496943.027
 125369230.277 7  97690238.37843  23856935.352                    23856945.887
 114532593.243 7  89246204.98045  21794828.898                    21794837.355
 110057862.388 8  85759396.42946  20943313.477                    20943319.598
 127636457.674 6  99457014.03543  24288414.070                    24288424.461
 106359871.186 8  82877847.29746  20239611.813                    20239619.004
 112754567.866 8  87860718.76245  21456484.227                    21456490.359
 11  7 28 18 18  0.0000000  0 11G11G06G08G07G16G28G03G19G10G13G23
 125786746.595 6  98015702.69143  23936418.563                    23936428.516
 124641897.620 6  97123589.54943  23718567.906                    23718576.363
 121787796.142 7  94899630.78644  23175442.898                    23175451.738
 112357136.789 8  87551049.866 7  21380850.953                    21380858.660
 128821149.769 6 100380141.03343  24513854.313                    24513862.555
 125307919.467 6  97642463.83943  23845267.867                    23845277.656
 114608416.259 7  89305287.80545  21809257.820                    21809266.109
 110064578.724 8  85764629.94446  20944591.742                    20944597.500
 127680129.271 6  99491043.79243  24296724.938                    24296734.793
 106396213.010 8  82906165.57146  20246527.570                    20246534.652
 112842776.813 8  87929452.93945  21473269.938                    21473276.324
 11  7 28 18 18 30.0000000  0 11G11G06G08G07G16G28G03G19G10G13G23
 125706797.960 6  97953405.15043  23921204.258                    23921214.746
 124730107.200 6  97192324.29343  23735353.383                    23735362.168
 121715477.703 7  94843278.77244  23161680.883                    23161690.070
 112306112.978 8  87511291.042 7  21371141.719                    21371148.688
 128909989.320 7 100449366.59443  24530759.867                    24530768.137
 125246826.645 7  97594859.12143  23833642.820                    23833652.105
 114684688.129 7  89364720.38445  21823772.000                    21823779.793
 110071916.681 8  85770347.82846  20945988.305                    20945994.266
 127724104.928 7  99525310.47243  24305092.773                    24305103.484
 106433137.107 8  82934937.56146  20253553.766                    20253561.137
 112931372.097 8  87998488.14745  21490129.406                    21490135.316
 11  7 28 18 19  0.0000000  0 11G11G06G08G07G16G28G03G19G10G13G23
 125626850.330 6  97891108.38443  23905991.813                    23906001.699
 124818604.239 6  97261282.98043  23752193.234                    23752202.254
 121643126.115 7  94786900.94044  23147913.523                    23147922.008
 112255207.606 8  87471624.536 7  21361454.414                    21361462.156
 128998753.634 6 100518533.52544  24547651.047                    24547660.117
 125185951.358 7  97547423.90044  23822058.172                    23822067.801
 114761405.645 7  89424500.23845  21838370.742                    21838378.836
 110079876.242 8  85776550.08646  20947502.766                    20947508.543
 127768382.054 6  99559812.04543  24313518.680                    24313528.668
 106470642.494 8  82964162.51646  20260690.805                    20260697.793
 113020350.925 8  88067822.21845  21507061.188                    21507067.195
 11  7 28 18 19 30.0000000  0 11G11G06G08G07G16G28G03G19G10G13G23
 125546906.587 6  97828814.63543  23890777.523                    23890788.664
 124907386.225 6  97330463.68843  23769088.547                    23769097.297
 121570742.156 7  94730497.91944  23134138.797                    23134147.551
 112204422.207 8  87432051.513 7  21351790.211                    21351798.211
 129087442.084 6 100587641.30643  24564527.977                    24564536.918
 125125293.878 6  97500158.43443  23810515.242                    23810524.523
 114838566.248 7  89484625.32945  21853053.781                    21853062.133
 110088457.201 8  85783236.55146  20949135.750                    20949141.473
 127812958.298 7  99594546.74343  24322001.313                    24322011.715
 106508728.882 8  82993840.19046  20267938.406                    20267945.371
 113109710.936 8  88137453.33645  21524065.828                    21524072.348
 11  7 28 18 20  0.0000000  0 11G11G06G08G07G16G28G03G19G10G13G23
 125466969.029 6  97766525.71143  23875566.445                    23875576.555
 124996450.337 7  97399864.25543  23786036.711                    23786045.852
 121498326.441 7  94674070.09244  23120359.047                    23120367.074
 112153757.648 8  87392572.655 7  21342149.570                    21342156.648
 129176053.339 6 100656689.00843  24581390.336                    24581398.668
 125064853.660 7  97453062.23444  23799014.203                    23799024.133
 114916167.498 7  89545093.80945  21867820.938                    21867828.859
 110097659.292 8  85790407.01846  20950886.883                    20950892.699
 127857830.789 7  99629512.27644  24330539.859                    24330550.484
 106547394.521 8  83023969.22446  20275296.359                    20275303.570
 113199449.361 8  88207379.29545  21541142.859                    21541149.137
 11  7 28 18 20 30.0000000  0 11G11G06G08G07G16G28G03G19G10G13G23
 125387040.633 7  97704243.95443  23860356.875                    23860366.578
 125085794.009 7  97469482.65843  23803038.227                    23803046.609
 121425879.715 7  94617618.14044  23106572.742                    23106581.375
 112103215.510 8  87353189.195 7  21332532.055                    21332538.602
 129264586.551 6 100725675.81743  24598237.398                    24598246.105
 125004630.529 6  97406135.21543  23787553.477                    23787562.953
 114994206.348 7  89605903.26745  21882671.336                    21882679.477
 110107481.867 8  85798060.97546  20952756.047                    20952761.816
 127902996.993 7  99664706.64244  24339135.070                    24339145.852
 106586638.522 8  83054548.94246  20282763.781                    20282771.133
 113289563.765 8  88277598.24745  21558290.859                    21558297.242
 11  7 28 18 21  0.0000000  0 11G11G06G08G07G16G28G03G19G10G13G23
 125307124.597 7  97641971.80043  23845149.031                    23845159.625
 125175415.115 7  97539317.25343  23820092.828                    23820101.527
 121353402.458 7  94561142.37944  23092780.805                    23092789.039
 112052797.481 8  87313902.443 7  21322936.797                    21322944.445
 129353040.938 6 100794601.23943  24615070.109                    24615078.832
 124944624.745 7  97359377.51443  23776135.320                    23776144.871
 115072680.507 7  89667051.92945  21897604.148                    21897612.883
 110117924.894 8  85806198.40746  20954743.594                    20954749.156
 127948454.615 7  99700128.13943  24347785.180                    24347796.332
 106626460.429 8  83085578.97546  20290341.891                    20290348.879
 113380051.611 8  88348108.20145  21575510.148                    21575516.395
 11  7 28 18 21 30.0000000  0 11G11G06G08G07G16G28G03G19G10G13G23
 125227223.310 6  97579711.17143  23829944.414                    23829954.605
 125265310.764 7  97609365.75543  23837199.547                    23837207.785
 121280895.726 7  94504643.68144  23078982.469                    23078992.016
 112002504.529 8  87274713.157 7  21313366.930                    21313373.625
 129441415.310 6 100863464.30943  24631888.023                    24631895.887
 124884835.536 7  97312788.59943  23764757.594                    23764767.328
 115151586.757 7  89728537.27845  21912620.023                    21912627.863
 110128987.747 8  85814818.81346  20956848.289                    20956854.152
 127994200.730 7  99735774.40643  24356489.828                    24356501.012
 106666858.833 8  83117058.22746  20298029.430                    20298036.824
 113470910.479 8  88418907.24545  21592800.211                    21592806.184
 11  7 28 18 22  0.0000000  0 11G11G06G08G07G16G28G03G19G10G13G23
 125147339.697 6  97517464.28043  23814743.117                    23814753.047
 125355478.539 6  97679626.34044  23854357.367                    23854366.047
 121208360.580 7  94448122.83444  23065180.188                    23065188.598
 111952338.245 8  87235622.565 7  21303820.305                    21303827.461
 129529708.989 6 100932264.50143  24648688.453                    24648697.531
 124825263.518 6  97266368.92243  23753421.445                    23753430.184
 115230922.901 7  89790357.62445  21927716.727                    21927724.988
 110140670.384 7  85823922.17046  20959071.359                    20959076.980
 128040232.926 6  99771643.55443  24365250.000                    24365260.941
 106707832.937 8  83148986.07746  20305826.727                    20305834.047
 113562137.932 8  88489993.50345  21610160.148                    21610166.613
 11  7 28 18 22 30.0000000  0 11G11G06G08G07G16G28G03G19G10G13G23
 125067476.592 6  97455233.42243  23799545.258                    23799555.387
 125445915.704 6  97750096.81943  23871566.570                    23871576.063
 121135797.282 7  94391580.02944  23051371.617                    23051380.391
 111902299.927 7  87196631.694 7  21294298.227                    21294305.043
 129617920.956 6 101001001.05242  24665474.727                    24665483.816
 124765908.095 7  97220118.03743  23742126.273                    23742135.477
 115310685.908 7  89852510.59845  21942895.570                    21942903.605
 110152972.152 7  85833507.96346  20961412.523                    20961418.305
 128086548.349 6  99807733.45743  24374063.516                    24374074.633
 106749381.497 8  83181361.55346  20313733.344                    20313740.586
 113653730.884 8  88561364.55645  21627589.992                    21627596.129
 11  7 28 18 23  0.0000000  0 11G11G06G08G07G16G28G03G19G10G13G23
 124987636.885 6  97393020.77943  23784352.555                    23784362.148
 125536619.986 6  97820775.41444  23888827.250                    23888837.016
 121063206.642 7  94335015.95744  23037557.773                    23037566.750
 111852391.195 7  87157741.790 7  21284800.852                    21284808.230
 129706050.614 6 101069673.37742  24682245.250                    24682254.742
 124706768.916 6  97174035.64844  23730872.484                    23730881.613
 115390873.111 7  89914994.11145  21958154.086                    21958162.664
 110165892.963 8  85843576.13046  20963871.125                    20963877.266
 128133144.912 6  99844042.39743  24382930.648                    24382941.559
 106791503.801 8  83214184.09546  20321748.898                    20321756.258
 113745687.100 8  88633018.67945  21645088.367                    21645095.297
 11  7 28 18 23 30.0000000  0 11G11G06G08G07G16G28G03G19G10G13G23
 124907823.514 6  97330828.65443  23769163.828                    23769174.031
 125627588.844 6  97891660.17443  23906137.961                    23906147.988
 120990589.851 7  94278431.47544  23023739.250                    23023747.641
 111802613.610 8  87118954.087 7  21275328.703                    21275336.039
 129794096.854 6 101138280.80142  24699000.680                    24699009.438
 124647846.376 7  97128122.05443  23719659.977                    23719668.820
 115471481.905 7  89977806.11544  21973494.125                    21973501.926
 110179432.355 8  85854126.31646  20966447.859                    20966453.188
 128180019.359 6  99880567.84443  24391850.891                    24391861.316
 106834198.298 8  83247452.51346  20329873.406                    20329880.621
 113838003.979 8  88704953.85045  21662655.875                    21662662.754
 11  7 28 18 24  0.0000000  0 11G11G06G08G07G16G28G03G19G10G13G23
 124828039.286 6  97268659.22443  23753981.672                    23753992.055
 125718819.541 6  97962748.94943  23923498.836                    23923508.285
 120917946.974 7  94221826.68044  23009916.336                    23009924.375
 111752968.068 8  87080269.270 7  21265881.195                    21265888.508
 129882058.831 6 101206822.58243  24715739.047                    24715747.387
 124589139.670 7  97082376.67043  23708488.070                    23708497.859
 115552509.390 7  90040944.40445  21988912.703                    21988921.172
 110193589.626 8  85865157.95846  20969141.961                    20969147.125
 128227169.139 6  99917307.92943  24400823.031                    24400833.836
 106877463.966 8  83281165.99046  20338106.555                    20338113.625
 113930678.765 8  88777167.87945  21680290.773                    21680297.926
 11  7 28 18 24 30.0000000  0 11G11G06G08G07G16G28G03G19G10G13G23
 124748287.280 6  97206514.94243  23738805.539                    23738814.789
 125810309.724 6  98034039.93743  23940909.234                    23940918.234
 120845279.539 7  94165202.72744  22996088.039                    22996096.207
 111703456.612 8  87041688.930 7  21256459.727                    21256467.066
 129969935.655 6 101275297.97842  24732461.680                    24732469.918
 124530648.935 7  97036799.54943  23697357.523                    23697367.078
 115633952.856 7  90104406.81945  22004411.453                    22004419.328
 110208364.446 7  85876670.81046  20971953.234                    20971958.953
 128274591.757 6  99954260.56043  24409846.453                    24409858.309
 106921299.885 8  83315323.81846  20346448.102                    20346455.828
 114023708.987 8  88849658.88445  21697994.359                    21698000.941
 11  7 28 18 25  0.0000000  0 11G11G06G08G07G16G28G03G19G10G13G23
 124668570.028 7  97144397.69943  23723635.695                    23723644.598
 125902056.739 6  98105531.08243  23958368.625                    23958377.547
 120772588.060 7  94108560.06244  22982255.367                    22982263.672
 111654080.317 8  87003213.905 7  21247063.453                    21247070.656
 130057726.258 7 101343706.18443  24749167.555                    24749176.328
 124472373.782 7  96991390.44743  23686268.352                    23686277.277
 115715809.654 7  90168191.28145  22019988.242                    22019995.918
 110223755.932 8  85888664.17346  20974882.242                    20974887.887
 128322284.590 6  99991423.73343  24418923.234                    24418934.242
 106965704.580 8  83349924.86046  20354898.461                    20354905.965
 114117091.784 8  88922424.63845  21715764.477                    21715771.262
 11  7 28 18 25 30.0000000  0 11G11G06G08G07G16G28G03G19G10G13G23
 124588890.199 7  97082309.58943  23708472.617                    23708483.063
 125994057.949 6  98177220.26443  23975875.055                    23975884.758
 120699873.306 7  94051899.24644  22968417.953                    22968426.090
 111604840.698 8  86964845.401 7  21237693.242                    21237700.770
 130145430.056 7 101412046.75143  24765857.125                    24765865.426
 124414313.860 6  96946149.04343  23675219.930                    23675227.977
 115798076.843 7  90232295.58745  22035643.391                    22035650.793
 110239763.884 8  85901137.91146  20977928.461                    20977933.879
 128370245.095 5 100028795.48143  24428049.523                    24428060.898
 107010676.907 8  83384968.20446  20363456.203                    20363463.848
 114210824.486 8  88995463.02745  21733601.352                    21733608.473
 11  7 28 18 26  0.0000000  0 12G11G06G08G07G16G28G24G03G19G10G13G23
 124509251.051 7  97020253.20243  23693318.094                    23693328.453
 126086310.871 6  98249105.60143  23993430.453                    23993440.230
 120627136.314 7  93995221.06744  22954576.711                    22954584.871
 111555739.189 8  86926584.500 7  21228349.805                    21228356.988
 130233046.078 7 101480318.93443  24782529.789                    24782538.453
 124356469.083 6  96901075.30843  23664211.734                    23664220.676
 132365923.96915                  25188400.844
 115880751.855 7  90296717.65245  22051375.453                    22051383.863
 110256387.467 8  85914091.36446  20981091.180                    20981097.855
 128418470.417 6 100066373.60043  24437225.695                    24437237.008
 107056215.743 8  83420452.98946  20372121.680                    20372128.980
 114304904.745 8  89068772.24045  21751504.250                    21751511.254
 11  7 28 18 26 30.0000000  0 12G11G06G08G07G16G28G24G03G19G10G13G23
 124429655.232 7  96958230.57143  23678171.547                    23678181.320
 126178812.785 6  98321184.93744  24011032.984                    24011042.332
 120554377.681 7  93938526.06444  22940731.023                    22940739.738
 111506777.234 8  86888432.340 7  21219032.828                    21219039.598
 130320573.501 6 101548522.06343  24799186.211                    24799194.188
 124298839.206 6  96856169.03243  23653245.656                    23653254.195
 132299400.03615                  25175741.461
 115963831.538 7  90361455.03745  22067184.969                    22067193.043
 110273625.810 8  85927523.83746  20984372.094                    20984377.602
 128466957.484 6 100104155.66143  24446452.359                    24446464.945
 107102319.457 8  83456377.93146  20380895.211                    20380902.691
 114399329.639 8  89142350.00345  21769472.969                    21769479.867
 11  7 28 18 27  0.0000000  0 12G11G06G08G07G16G28G24G03G19G10G13G23
 124350105.943 6  96896244.15543  23663034.344                    23663043.098
 126271561.334 6  98393456.48243  24028682.984                    24028691.625
 120481598.350 7  93881814.93244  22926881.695                    22926889.094
 111457956.412 8  86850390.143 7  21209742.422                    21209749.809
 130408011.547 6 101616655.50943  24815824.758                    24815833.879
 124241423.906 7  96811429.96043  23642319.461                    23642328.359
 132232667.42715                  25163043.906
 116047313.714 7  90426506.07645  22083070.891                    22083079.359
 110291478.689 8  85941435.17446  20987769.305                    20987775.102
 128515704.049 6 100142139.90943  24455729.820                    24455740.816
 107148987.230 8  83492742.40646  20389776.078                    20389783.281
 114494096.912 8  89216194.54845  21787506.531                    21787513.664
 11  7 28 18 27 30.0000000  0 12G11G06G08G07G16G28G24G03G19G10G13G23
 124270605.553 7  96834295.86943  23647905.250                    23647914.973
 126364553.644 6  98465917.96243  24046378.609                    24046387.566
 120408798.877 7  93825088.08444  22913028.094                    22913036.988
 111409277.589 8  86812458.613 7  21200479.102                    21200486.230
 130495359.316 6 101684718.67243  24832446.188                    24832455.484
 124184222.644 6  96766857.67343  23631434.516                    23631443.598
 132165726.97314                  25150302.844
 116131194.842 7  90491867.96644  22099033.195                    22099041.281
 110309944.956 8  85955824.48246  20991283.680                    20991289.348
 128564707.509 6 100180324.33343  24465054.555                    24465066.430
 107196217.272 8  83529545.01246  20398763.156                    20398770.625
 114589203.221 8  89290303.27745  21805605.070                    21805611.703
 11  7 28 18 28  0.0000000  0 12G11G06G08G07G16G28G24G03G19G10G13G23
 124191157.322 7  96772388.24043  23632786.750                    23632796.340
 126457787.452 6  98538567.63843  24064120.523                    24064130.250
 120335980.706 7  93768346.68944  22899170.969                    22899179.539
 111360743.010 8  86774639.477 7  21191243.078                    21191249.996
 130582616.358 6 101752711.07543  24849051.266                    24849060.449
 124127235.482 6  96722452.20343  23620590.000                    23620599.230
 132098581.47515                  25137527.141
 116215472.455 7  90557538.80344  22115070.406                    22115079.156
 110329024.318 8  85970691.52646  20994914.070                    20994919.691
 128613965.097 6 100218706.79643  24474428.203                    24474439.152
 107244008.670 8  83566785.03946  20407858.070                    20407865.176
 114684646.320 8  89364674.45745  21823767.164                    21823773.500
 11  7 28 18 28 30.0000000  0 12G11G06G08G07G16G28G24G03G19G10G13G23
 124111764.225 7  96710523.56643  23617678.117                    23617687.891
 126551260.294 6  98611403.59743  24081907.375                    24081917.434
 120263144.928 7  93711591.56444  22885311.141                    22885320.051
 111312354.207 8  86736933.923 7  21182035.359                    21182042.176
 130669781.538 6 101820631.93843  24865638.203                    24865647.363
 124070462.081 6  96678213.27743  23609786.258                    23609795.254
 132031233.850 4                  25124711.406
 116300143.987 7  90623516.60144  22131182.766                    22131191.602
 110348716.064 8  85986035.74746  20998661.398                    20998667.020
 128663474.238 6 100257285.26843  24483849.523                    24483860.848
 107292359.912 8  83604461.30146  20417058.633                    20417066.238
 114780423.464 8  89439305.91245  21841992.875                    21841999.684
 11  7 28 18 29  0.0000000  0 12G11G06G08G07G16G28G24G03G19G10G13G23
 124032429.146 7  96648704.08843  23602581.508                    23602591.063
 126644969.448 6  98684423.67743  24099739.969                    24099749.340
 120190292.049 7  93654823.12644  22871447.188                    22871455.852
 111264112.410 8  86699342.922 7  21172855.117                    21172861.875
 130756854.463 6 101888480.84843  24882207.297                    24882216.340
 124013902.036 7  96634140.60944  23599023.836                    23599032.414
 131963685.73915                  25111858.070
 116385206.216 7  90689798.81844  22147370.242                    22147378.355
 110369019.509 8  86001856.62546  21002525.102                    21002531.105
 128713232.026 6 100296057.49242  24493317.305                    24493329.180
 107341269.577 8  83642572.70646  20426366.070                    20426373.168
 114876531.836 8  89514195.47045  21860281.930                    21860288.707
 11  7 28 18 29 30.0000000  0 12G11G06G08G07G16G28G24G03G19G10G13G23
 123953155.038 7  96586932.15143  23587495.992                    23587505.973
 126738912.407 6  98757625.98243  24117616.703                    24117625.332
 120117422.901 7  93598041.98844  22857581.609                    22857589.680
 111216019.095 8  86661867.623 7  21163703.070                    21163709.906
 130843834.101 5 101956257.05542  24898759.719                    24898768.727
 123957555.208 7  96590234.09344  23588300.961                    23588309.949
 131895939.58415                  25098964.188
 116470656.589 7  90756383.50444  22163630.297                    22163638.977
 110389933.391 8  86018153.16546  21006504.641                    21006510.512
 128763235.726 6 100335021.37943  24502833.531                    24502843.855
 107390736.450 8  83681118.29646  20435779.180                    20435786.730
 114972968.621 8  89589340.93545  21878633.133                    21878640.031
 11  7 28 18 30  0.0000000  0 12G11G06G08G07G16G28G24G03G19G10G13G23
 123873944.712 7  96525209.90943  23572422.836                    23572432.867
 126833086.741 7  98831008.55043  24135537.094                    24135546.449
 120044538.243 7  93541248.79245  22843711.852                    22843719.738
 111168075.948 8  86624509.350 7  21154579.664                    21154587.234
 130930719.738 6 102023960.09943  24915292.570                    24915302.102
 123901421.236 7  96546493.40244  23577618.070                    23577627.508
 131827997.32015                  25086036.398
 116556491.990 7  90823268.18845  22179964.852                    22179973.250
 110411457.167 8  86034924.94846  21010600.367                    21010606.148
 128813482.551 6 100374174.69142  24512394.828                    24512406.305
 107440759.046 8  83720096.91246  20445298.133                    20445305.949
 115069731.438 8  89664740.47145  21897046.727                    21897052.730
 11  7 28 18 30 30.0000000  0 12G11G06G08G07G16G28G24G03G19G10G13G23
 123794801.357 7  96463539.87344  23557362.531                    23557372.527
 126927489.782 7  98904569.29743  24153502.531                    24153511.535
 119971639.398 7  93484444.52344  22829839.547                    22829847.828
 111120284.566 8  86587269.313 7  21145485.766                    21145492.801
 131017510.858 6 102091589.46542  24931808.273                    24931818.023
 123845500.103 7  96502918.57844  23566977.227                    23566986.820
 131759861.040 5                  25073068.578
 116642709.884 7  90890450.92644  22196371.578                    22196379.492
 110433590.128 8  86052171.41846  21014812.383                    21014818.129
 128863969.989 6 100413515.46042  24522002.836                    24522013.309
 107491335.961 8  83759507.46446  20454922.961                    20454930.090
 115166817.635 8  89740391.97045  21915521.539                    21915528.602
 11  7 28 18 31  0.0000000  0 12G11G06G08G07G16G28G24G03G19G10G13G23
 123715727.812 7  96401924.19843  23542315.094                    23542324.813
 127022119.051 6  98978306.34643  24171509.211                    24171519.039
 119898727.281 7  93427629.93344  22815964.375                    22815973.012
 111072646.646 8  86550148.875 7  21136420.445                    21136427.352
 131104206.569 5 102159144.46342  24948306.281                    24948315.672
 123789790.956 7  96459508.94044  23556376.055                    23556385.238
 131691533.306 5                  25060067.070
 116729307.589 7  90957929.62544  22212850.016                    22212858.684
 110456331.379 8  86069891.87446  21019139.836                    21019145.797
 128914695.371 6 100453041.69942  24531654.820                    24531666.414
 107542465.743 8  83799348.81746  20464652.320                    20464659.707
 115264224.307 8  89816293.19445  21934057.711                    21934064.516
 11  7 28 18 31 30.0000000  0 12G11G06G08G07G16G28G24G03G19G10G13G23
 123636726.906 7  96340365.16743  23527281.219                    23527290.680
 127116971.915 6  99052217.65143  24189559.156                    24189567.609
 119825802.997 7  93370805.84344  22802087.891                    22802096.289
 111025163.440 8  86513148.986 7  21127384.523                    21127391.430
 131190806.442 6 102226624.84042  24964786.047                    24964795.488
 123734293.729 7  96416264.40844  23545815.711                    23545824.676
 131623016.03215                  25047029.719
 116816281.959 7  91025701.82344  22229401.266                    22229409.773
 110479679.995 8  86088085.60346  21023582.914                    21023588.293
 128965655.862 7 100492751.07843  24541353.188                    24541363.305
 107594147.092 8  83839619.97046  20474487.078                    20474494.023
 115361948.637 8  89892441.94245  21952653.945                    21952660.695
 11  7 28 18 32  0.0000000  0 12G11G06G08G07G16G28G24G03G19G10G13G23
 123557801.399 7  96278864.85643  23512262.813                    23512271.574
 127212045.853 6  99126301.17643  24207650.906                    24207660.309
 119752867.170 7  93313972.75744  22788208.383                    22788217.008
 110977836.348 8  86476270.740 7  21118378.352                    21118385.387
 131277309.402 6 102294029.65142  24981246.953                    24981256.027
 123679008.146 7  96373184.78044  23535294.742                    23535303.500
 131554311.620 5                  25033953.234
 116903630.172 7  91093765.32344  22246022.953                    22246031.387
 110503634.601 8  86106751.52546  21028141.328                    21028147.406
 129016848.479 6 100532641.35543  24551095.336                    24551105.430
 107646378.132 8  83880319.44646  20484426.391                    20484433.520
 115459987.650 8  89968835.87845  21971310.180                    21971316.754
 11  7 28 18 32 30.0000000  0 12G11G06G08G07G16G28G24G03G19G10G13G23
 123478954.291 7  96217425.65243  23497258.188                    23497267.703
 127307338.306 6  99200554.95743  24225785.523                    24225794.223
 119679921.046 7  93257131.64345  22774326.953                    22774335.684
 110930666.925 8  86439515.346 7  21109402.242                    21109409.371
 131363714.656 6 102361358.33943  24997689.766                    24997698.773
 123623933.396 7  96330269.46044  23524813.734                    23524823.379
 131485422.419 5                  25020845.031
 116991349.326 7  91162117.86644  22262715.211                    22262723.934
 110528194.542 8  86125889.15046  21032814.836                    21032820.598
 129068270.682 6 100572710.50243  24560880.023                    24560890.465
 107699157.252 8  83921446.01146  20494469.813                    20494476.969
 115558338.948 7  90045473.17945  21990025.719                    21990032.664
 11  7 28 18 33  0.0000000  0 12G11G06G08G07G16G28G24G03G19G10G13G23
 123400188.841 6  96156050.08743  23482269.563                    23482279.238
 127402846.659 6  99274977.01843  24243960.031                    24243968.719
 119606965.653 7  93200283.32444  22760444.297                    22760453.117
 110883657.286 8  86402884.462 7  21100456.750                    21100463.707
 131450021.808 6 102428610.59643  25014113.961                    25014123.477
 123569069.531 7  96287518.45544  23514374.102                    23514383.215
 131416350.532 5                  25007701.953
 117079436.575 7  91230757.25344  22279478.016                    22279485.051
 110553359.037 7  86145497.83546  21037603.461                    21037609.262
 129119919.616 6 100612956.36343  24570708.930                    24570719.520
 107752483.136 8  83962998.62046  20504617.555                    20504624.848
 115656999.628 7  90122351.54845  22008800.266                    22008806.797
 11  7 28 18 33 30.0000000  0 12G11G06G08G07G16G28G24G03G19G10G13G23
 123321507.726 7  96094740.18043  23467296.898                    23467305.941
 127498568.316 6  99349565.27543  24262174.680                    24262184.453
 119534001.954 7  93143428.52844  22746559.719                    22746567.938
 110836808.501 8  86366378.935 7  21091541.820                    21091549.105
 131536229.963 6 102495785.70342  25030518.461                    25030527.473
 123514416.069 7  96244931.41844  23503973.922                    23503982.102
 131347098.083 6                  24994521.617
 117167889.613 7  91299681.67444  22296309.914                    22296318.223
 110579126.824 7  86165576.63546  21042507.164                    21042512.875
 129171792.503 7 100653376.72343  24580580.758                    24580590.363
 107806353.990 8  84004975.87246  20514868.820                    20514875.945
 115755967.015 7  90199468.90645  22027633.445                    22027640.113
 11  7 28 18 34  0.0000000  0 12G11G06G08G07G16G28G24G03G19G10G13G23
 123242914.014 7  96033498.43743  23452340.555                    23452350.430
 127594500.875 6  99424317.81843  24280429.930                    24280439.641
 119461030.629 7  93086567.76045  22732673.297                    22732681.836
 110790122.172 8  86329999.978 7  21082657.383                    21082664.563
 131622338.330 6 102562883.03042  25046904.328                    25046913.555
 123459972.658 7  96202508.01444  23493613.875                    23493622.465
 131277667.584 6 102294343.53052  24981310.656                    24981324.324
 117256704.909 7  91368888.34544  22313210.516                    22313219.633
 110605496.838 8  86186124.69146  21047525.141                    21047530.785
 129223886.693 7 100693969.54243  24590493.492                    24590503.738
 107860768.053 8  84047376.40946  20525223.484                    20525230.926
 115855238.070 7  90276822.88545  22046524.219                    22046531.055
 11  7 28 18 34 30.0000000  0 12G11G06G08G07G16G28G24G03G19G10G13G23
 123164410.421 6  95972326.88243  23437401.805                    23437411.293
 127690641.517 6  99499232.57543  24298725.594                    24298734.383
 119388052.692 7  93029701.87144  22718786.102                    22718795.082
 110743599.929 8  86293748.895 7  21073804.695                    21073811.715
 131708346.870 6 102629902.83042  25063271.391                    25063280.570
 123405739.033 7  96160248.11344  23483293.711                    23483302.477
 131208061.264 6 102240105.08142  24968064.578                    24968079.395
 117345879.773 7  91438375.21044  22330180.570                    22330188.719
 110632468.144 7  86207141.29446  21052657.977                    21052662.922
 129276199.227 6 100734732.43843  24600448.773                    24600459.027
 107915723.879 8  84090199.09946  20535680.945                    20535688.563
 115954810.085 8  90354411.38945  22065471.773                    22065479.133
 11  7 28 18 35  0.0000000  0 12G11G06G08G07G16G28G24G03G19G10G13G23
 123086000.573 7  95911228.38043  23422481.234                    23422490.734
 127786988.330 6  99574307.94443  24317059.750                    24317068.480
 119315069.457 7  92972831.83345  22704898.211                    22704906.355
 110697243.570 8  86257627.063 7  21064983.563                    21064990.586
 131794254.483 6 102696843.76343  25079619.031                    25079627.945
 123351714.652 7  96118151.24544  23473012.961                    23473021.438
 131138281.882 6 102185731.60742  24954785.219                    24954800.859
 117435411.397 7  91508140.08644  22347217.258                    22347226.242
 110660040.001 8  86228625.86946  21057904.469                    21057910.316
 129328727.691 6 100775663.63043  24610444.188                    24610455.508
 107971220.434 8  84133443.14146  20546241.891                    20546248.879
 116054680.767 7  90432232.61745  22084476.906                    22084484.066
 11  7 28 18 35 30.0000000  0 12G11G06G08G07G16G28G24G03G19G10G13G23
 123007687.047 7  95850204.90844  23407578.563                    23407588.051
 127883538.211 6  99649541.59043  24335432.195                    24335441.012
 119242082.273 7  92915958.74245  22691008.695                    22691017.723
 110651054.579 8  86221635.652 7  21056193.734                    21056201.063
 131880060.607 6 102763705.57843  25095947.188                    25095955.543
 123297899.011 7  96076217.04744  23462772.250                    23462780.320
 131068331.150 6 102131224.83752  24941474.797                    24941489.301
 117525296.859 7  91578180.63144  22364323.039                    22364330.938
 110688210.778 7  86250577.12246  21063264.969                    21063270.359
 129381468.903 7 100816760.59243  24620480.883                    24620491.523
 108027255.746 8  84177106.99146  20556904.859                    20556912.086
 116154846.834 8  90510284.00745  22103537.445                    22103545.086
 11  7 28 18 36  0.0000000  0 12G11G06G08G07G16G28G24G03G19G10G13G23
 122929472.843 6  95789258.85044  23392694.992                    23392704.699
 127980288.941 7  99724931.67143  24353843.391                    24353853.340
 119169092.150 7  92859083.34045  22677119.383                    22677127.809
 110605034.829 8  86185776.118 7  21047436.797                    21047443.422
 131965764.608 6 102830487.89043  25112256.781                    25112264.820
 123244292.014 7  96034445.44844  23452570.828                    23452579.500
 130998211.663 6 102076586.37142  24928130.555                    24928146.016
 117615533.537 7  91648494.90844  22381494.672                    22381501.984
 110716979.778 7  86272994.52546  21068739.516                    21068745.547
 129434420.236 6 100858021.31043  24630556.602                    24630568.250
 108083827.739 8  84221189.02346  20567670.195                    20567677.656
 116255305.694 7  90588563.56145  22122654.414                    22122661.520
 11  7 28 18 36 30.0000000  0 12G11G06G08G07G16G28G24G03G19G10G13G23
 122851360.775 7  95728392.39344  23377830.398                    23377840.215
 128077237.692 7  99800476.12643  24372292.688                    24372302.492
 119096099.639 7  92802206.09945  22663229.422                    22663237.688
 110559185.447 8  86150049.337 7  21038711.781                    21038718.887
 132051365.872 6 102897190.10242  25128546.359                    25128554.723
 123190893.005 7  95992835.88944  23442408.953                    23442417.445
 130927925.755 6 102021818.33642  24914754.602                    24914771.270
 117706118.212 7  91719080.33144  22398731.422                    22398740.348
 110746345.341 8  86295876.77946  21074327.758                    21074333.129
 129487579.029 6 100899443.63643  24640672.766                    24640683.926
 108140934.508 8  84265687.77646  20578537.477                    20578544.879
 116356054.266 8  90667068.85545  22141826.531                    22141833.543
 11  7 28 18 37  0.0000000  0 12G11G06G08G07G16G28G24G03G19G10G13G23
 122773353.718 7  95667607.74844  23362986.648                    23362996.141
 128174382.197 6  99876173.09343  24390778.477                    24390787.820
 119023105.949 7  92745327.94744  22649338.938                    22649347.609
 110513508.303 8  86114456.762 7  21030019.547                    21030026.629
 132136863.834 5 102963811.84142  25144814.688                    25144824.875
 123137701.737 7  95951388.23044  23432286.758                    23432295.305
 130857475.849 6 101966922.43442  24901348.789                    24901364.914
 117797048.036 7  91789934.71044  22416034.664                    22416043.098
 110776306.582 8  86319223.19846  21080028.750                    21080034.988
 129540942.636 6 100941025.57443  24650827.406                    24650839.141
 108198574.843 8  84310602.29246  20589505.922                    20589513.699
 116457090.059 7  90745797.94845  22161052.906                    22161059.547
 11  7 28 18 37 30.0000000  0 12G11G06G08G07G16G28G24G03G19G10G13G23
 122695455.389 7  95606907.82444  23348162.977                    23348171.898
 128271719.996 6  99952020.66943  24409300.828                    24409310.277
 118950112.483 7  92688449.95244  22635448.859                    22635457.293
 110468005.280 8  86078999.863 7  21021360.695                    21021367.797
 132222258.175 6 103030352.83142  25161065.617                    25161075.137
 123084717.685 7  95910102.03644  23422204.852                    23422213.379
 130786864.582 7 101911900.79842  24887912.883                    24887927.488
 117888320.220 7  91861055.84144  22433403.773                    22433411.910
 110806862.244 8  86343032.79946  21085843.781                    21085849.547
 129594508.162 6 100982764.83743  24661020.516                    24661031.941
 108256747.039 8  84355931.24246  20600575.836                    20600583.344
 116558410.504 7  90824748.84845  22180333.375                    22180340.809
 11  7 28 18 38  0.0000000  0 12G11G06G08G07G16G28G24G03G19G10G13G23
 122617668.140 7  95546294.45843  23333360.258                    23333369.449
 128369248.148 6 100028016.54743  24427860.586                    24427869.180
 118877120.159 7  92631572.83745  22621559.297                    22621566.949
 110422677.502 8  86043679.523 7  21012735.000                    21012742.109
 132307547.741 6 103096812.22942  25177296.531                    25177304.750
 123031940.371 7  95868976.95244  23412161.648                    23412169.973
 130716093.973 6 101856754.98342  24874444.063                    24874460.160
 117979931.845 7  91932441.49044  22450836.336                    22450845.109
 110838011.085 8  86367304.62146  21091770.992                    21091776.883
 129648272.669 6 101024659.15843  24671250.867                    24671263.207
 108315448.970 8  84401672.97246  20611746.234                    20611754.141
 116660012.138 8  90903918.86545  22199668.227                    22199675.039
 11  7 28 18 38 30.0000000  0 12G11G06G08G07G16G28G24G03G19G10G13G23
 122539995.180 7  95485770.13844  23318578.938                    23318588.809
 128466964.333 6 100104158.99943  24446455.453                    24446464.422
 118804130.055 7  92574697.45545  22607668.961                    22607677.777
 110377526.786 8  86008497.166 7  21004143.344                    21004150.465
 132392732.540 6 103163189.91343  25193506.094                    25193514.836
 122979369.315 7  95828012.58244  23402156.922                    23402165.625
 130645166.479 6 101801486.93842  24860947.977                    24860963.453
 118071880.199 7  92004089.54344  22468334.156                    22468342.340
 110869751.925 7  86392037.73946  21097811.516                    21097817.066
 129702233.438 6 101066706.39743  24681520.313                    24681531.871
 108374678.960 8  84447826.17346  20623017.391                    20623025.063
 116761892.194 7  90983305.82745  22219055.234                    22219062.488
 11  7 28 18 39  0.0000000  0 12G11G06G08G07G16G28G24G03G19G10G13G23
 122462439.383 7  95425337.13144  23303821.289                    23303830.215
 128564866.022 6 100180445.96743  24465084.742                    24465094.422
 118731143.518 7  92517824.85945  22593780.133                    22593788.766
 110332555.001 8  85973454.218 7  20995585.242                    20995592.734
 132477811.631 6 103229485.22443  25209695.031                    25209705.492
 122927004.058 7  95787208.58544  23392192.727                    23392201.313
 130574084.690 6 101746098.64242  24847421.516                    24847436.191
 118164162.029 7  92075997.41044  22485895.055                    22485903.258
 110902083.386 8  86417231.07746  21103963.500                    21103969.457
 129756387.736 5 101108904.44042  24691824.242                    24691837.395
 108434435.197 8  84494389.44646  20634388.875                    20634396.652
 116864048.067 7  91062907.72045  22238494.492                    22238501.840
 11  7 28 18 39 30.0000000  0 12G11G06G08G07G16G28G24G03G19G10G13G23
 122385003.953 7  95364997.92944  23289085.242                    23289095.000
 128662950.898 6 100256875.69143  24483749.773                    24483759.926
 118658161.548 7  92460955.82945  22579892.219                    22579901.000
 110287763.703 8  85938551.912 7  20987061.742                    20987069.000
 132562784.837 5 103295698.00142  25225865.516                    25225875.031
 122874844.209 7  95746564.62244  23382266.531                    23382275.270
 130502850.941 6 101690592.00142  24833864.891                    24833880.008
 118256774.757 7  92148163.11844  22503518.047                    22503526.434
 110935004.145 8  86442883.60246  21110228.648                    21110233.996
 129810732.562 6 101151250.94043  24702166.742                    24702178.449
 108494715.821 8  84541361.32246  20645859.828                    20645867.605
 116966477.137 7  91142722.47445  22257986.508                    22257993.109
 11  7 28 18 40  0.0000000  0 12G11G06G08G07G16G28G24G03G19G10G13G23
 122307691.636 7  95304754.64044  23274373.961                    23274382.414
 128761216.139 6 100333445.96243  24502449.258                    24502458.480
 118585185.379 7  92404091.31645  22566005.789                    22566013.543
 110243154.284 8  85903791.345 7  20978573.219                    20978579.832
 132647650.940 6 103361827.34642  25242015.164                    25242024.820
 122822889.115 7  95706080.22144  23372380.141                    23372388.434
 130431467.228 6 101634968.40243  24820280.727                    24820296.180
 118349715.507 7  92220584.45944  22521204.500                    22521212.871
 110968512.653 7  86468994.12746  21116604.484                    21116610.227
 129865265.523 6 101193743.99943  24712543.195                    24712556.484
 108555518.750 8  84588740.19246  20657430.422                    20657438.164
 117069176.256 7  91222747.67345  22277529.602                    22277536.348
 11  7 28 18 40 30.0000000  0 12G11G06G08G07G16G28G24G03G19G10G13G23
 122230505.515 7  95244609.67144  23259684.852                    23259695.043
 128859659.269 6 100410154.80843  24521182.258                    24521191.457
 118512216.156 7  92347232.20645  22552120.094                    22552128.461
 110198728.461 8  85869173.829 7  20970118.703                    20970126.105
 132732409.517 6 103427872.93643  25258144.773                    25258153.625
 122771138.717 7  95665755.32944  23362532.414                    23362540.891
 130359936.120 6 101579229.90743  24806669.578                    24806684.809
 118442981.231 7  92293259.00844  22538952.547                    22538960.785
 111002607.820 8  86495561.77646  21123092.891                    21123098.523
 129919983.506 5 101236381.20942  24722955.531                    24722969.070
 108616842.348 8  84636524.78446  20669099.539                    20669107.465
 117172142.575 7  91302981.06245  22297123.672                    22297130.949
 11  7 28 18 41  0.0000000  0 12G11G06G08G07G16G28G24G03G19G10G13G23
 122153448.876 7  95184565.59744  23245022.047                    23245030.531
 128958277.899 6 100487000.47843  24539949.133                    24539958.008
 118439254.777 7  92290379.21445  22538235.602                    22538244.125
 110154488.131 8  85834700.848 7  20961700.289                    20961707.488
 132817060.619 6 103493834.77443  25274253.164                    25274261.777
 122719592.205 7  95625589.26543  23352722.375                    23352731.645
 130288260.386 6 101523378.79443  24793030.297                    24793045.059
 118536568.937 7  92366184.42344  22556761.398                    22556770.266
 111037288.180 8  86522585.42746  21129692.156                    21129698.047
 129974883.591 6 101279160.38543  24733404.242                    24733416.375
 108678684.559 8  84684713.47946  20680868.203                    20680875.730
 117275373.325 7  91383420.50545  22316767.719                    22316775.125
 11  7 28 18 41 30.0000000  0 12G11G06G08G07G16G28G24G03G19G10G13G23
 122076524.588 7  95124624.65844  23230383.805                    23230393.000
 129057069.526 6 100563980.89343  24558748.602                    24558757.922
 118366302.531 7  92233533.32545  22524353.117                    22524362.082
 110110434.867 8  85800373.644 7  20953317.344                    20953324.754
 132901603.432 6 103559712.27143  25290340.281                    25290350.633
 122668249.164 7  95585581.77044  23342952.813                    23342960.727
 130216442.464 6 101467416.88943  24779363.711                    24779378.574
 118630475.742 7  92439358.51844  22574631.500                    22574639.961
 111072552.350 8  86550063.99746  21136402.719                    21136408.613
 130029963.286 6 101322079.52943  24743885.430                    24743897.449
 108741043.689 8  84733304.98146  20692734.586                    20692742.445
 117378865.331 7  91464063.53445  22336461.758                    22336468.574
 11  7 28 18 42  0.0000000  0 12G11G06G08G07G16G28G24G03G19G10G13G23
 121999735.758 7  95064789.29344  23215771.039                    23215780.254
 129156031.669 6 100641094.20643  24577580.398                    24577590.113
 118293360.963 7  92176695.75345  22510473.414                    22510481.223
 110066570.740 8  85766193.824 7  20944970.398                    20944977.449
 132986037.147 6 103625504.71442  25306408.703                    25306418.016
 122617109.248 7  95545732.54844  23333220.664                    23333229.000
 130144484.851 6 101411346.05543  24765671.102                    24765684.855
 118724698.910 7  92512779.13944  22592560.953                    22592570.191
 111108399.009 8  86577996.44646  21143224.023                    21143230.012
 130085219.360 6 101365136.05243  24754400.914                    24754412.609
 108803917.880 8  84782297.82146  20704699.008                    20704706.758
 117482616.448 7  91544908.47945  22356204.773                    22356212.098
 11  7 28 18 42 30.0000000  0 12G11G06G08G07G16G28G24G03G19G10G13G23
 121923085.175 7  95005061.64943  23201184.875                    23201194.129
 129255161.760 6 100718338.36343  24596444.273                    24596454.156
 118220430.984 7  92119867.21945  22496595.320                    22496603.336
 110022897.196 8  85732162.493 7  20936659.438                    20936666.176
 133070362.080 6 103691212.34742  25322455.836                    25322464.082
 122566171.770 7  95506041.06244  23323528.016                    23323535.973
 130072389.692 6 101355168.08643  24751951.734                    24751965.750
 118819235.383 7  92586443.87644  22610551.281                    22610559.555
 111144826.624 7  86606381.60446  21150155.695                    21150161.867
 130140649.353 6 101408328.13843  24764947.758                    24764960.289
 108867304.988 8  84831690.34446  20716761.422                    20716769.031
 117586623.402 7  91625952.75345  22375997.125                    22376004.352
 11  7 28 18 43  0.0000000  0 12G11G06G08G07G16G28G24G03G19G10G13G23
 121846575.886 7  94945444.08544  23186625.922                    23186634.906
 129354457.394 6 100795711.52543  24615339.422                    24615349.484
 118147513.983 7  92063048.81445  22482719.492                    22482727.383
 109979415.770 8  85698280.882 7  20928385.266                    20928392.527
 133154577.212 6 103756834.45643  25338480.641                    25338489.754
 122515436.156 7  95466506.88444  23313873.102                    23313881.512
 130000159.487 6 101298884.85543  24738206.000                    24738220.797
 118914082.098 7  92660350.36744  22628600.250                    22628608.367
 111181833.577 8  86635218.18746  21157198.492                    21157203.953
 130196250.370 6 101451653.46643  24775529.734                    24775540.910
 108931202.865 8  84881480.86346  20728920.734                    20728928.820
 117690883.357 7  91707194.16945  22395837.086                    22395844.344
 11  7 28 18 43 30.0000000  0 12G11G06G08G07G16G28G24G03G19G10G13G23
 121770211.128 7  94885939.16744  23172094.234                    23172103.250
 129453916.011 6 100873211.67943  24634266.320                    24634276.027
 118074611.610 7  92006241.79445  22468846.148                    22468854.574
 109936128.353 8  85664550.427 7  20920147.930                    20920155.316
 133238681.886 6 103822370.49343  25354485.313                    25354494.906
 122464902.149 7  95427129.80744  23304257.125                    23304265.082
 129927797.085 6 101242498.60743  24724436.195                    24724450.262
 119009236.530 7  92734496.63144  22646707.313                    22646716.039
 111219418.686 7  86664505.27346  21164350.273                    21164356.313
 130252019.517 6 101495109.84043  24786142.148                    24786153.945
 108995609.786 8  84931668.03946  20741176.898                    20741184.602
 117795393.322 7  91788630.40044  22415724.328                    22415731.910
 11  7 28 18 44  0.0000000  0 12G11G06G08G07G16G28G24G03G19G10G13G23
 121693993.991 7  94826549.28244  23157590.398                    23157599.277
 129553535.027 6 100950836.82543  24653222.703                    24653232.500
 118001724.554 7  91949446.73345  22454976.141                    22454984.758
 109893036.305 8  85630972.224 7  20911947.820                    20911954.707
 133322675.629 7 103887820.13843  25370469.109                    25370478.055
 122414568.905 7  95387909.13944  23294678.820                    23294687.137
 129855304.667 6 101186010.99643  24710641.578                    24710656.000
 119104695.466 7  92808880.19244  22664872.578                    22664881.434
 111257580.012 8  86694241.36346  21171612.023                    21171617.848
 130307953.987 6 101538695.10943  24796785.875                    24796797.418
 109060523.493 8  84982250.11446  20753529.867                    20753537.434
 117900150.206 7  91870259.06244  22435658.938                    22435666.281
 11  7 28 18 44 30.0000000  0 12G11G06G08G07G16G28G24G03G19G10G13G23
 121617927.252 7  94767276.59844  23143114.977                    23143124.188
 129653311.869 6 101028584.93943  24672210.133                    24672219.570
 117928854.209 7  91892664.67145  22441109.344                    22441118.219
 109850141.428 8  85597547.658 7  20903785.250                    20903792.016
 133406558.251 7 103953183.18343  25386431.453                    25386439.781
 122364435.835 7  95348844.46344  23285138.953                    23285147.176
 129782684.700 6 101129423.98642  24696822.156                    24696836.711
 119200456.248 6  92883498.93444  22683095.313                    22683103.934
 111296316.113 8  86724425.32646  21178983.477                    21178989.559
 130364050.993 7 101582406.93542  24807461.313                    24807471.766
 109125942.013 8  85033225.54546  20765978.445                    20765986.102
 118005151.665 7  91952078.27045  22455640.578                    22455648.336
 11  7 28 18 45  0.0000000  0 12G11G06G08G07G16G28G24G03G19G10G13G23
 121542014.062 7  94708123.54743  23128668.992                    23128678.070
 129753244.302 6 101106454.30143  24691226.672                    24691236.281
 117856001.818 7  91835896.61545  22427246.078                    22427254.355
 109807445.592 8  85564278.178 7  20895660.586                    20895667.172
 133490329.457 7 104018459.42043  25402371.734                    25402381.168
 122314502.726 7  95309935.60044  23275636.781                    23275645.254
 129709939.934 6 101072739.78743  24682979.695                    24682994.156
 119296516.045 7  92958350.64944  22701374.977                    22701383.828
 111335625.678 8  86755056.14046  21186463.875                    21186469.820
 130420307.525 7 101626243.09843  24818166.539                    24818177.289
 109191863.401 8  85084592.83446  20778522.656                    20778530.449
 118110394.694 7  92034085.71545  22475667.523                    22475674.695
 11  7 28 18 45 30.0000000  0 12G11G06G08G07G16G28G24G03G19G10G13G23
 121466257.168 7  94649092.30144  23114253.000                    23114261.922
 129853329.695 6 101184442.87143  24710272.469                    24710281.738
 117783168.569 7  91779143.47245  22413386.664                    22413395.016
 109764950.347 8  85531165.017 7  20887573.484                    20887580.863
 133573988.311 7 104083648.08943  25418292.398                    25418300.898
 122264768.916 7  95271182.01844  23266172.805                    23266180.805
 129637072.784 6 101015960.23942  24669112.906                    24669127.473
 119392871.790 7  93033433.03643  22719710.469                    22719719.168
 111375506.727 8  86786132.27246  21194053.508                    21194059.277
 130476721.037 7 101670201.60442  24828902.523                    24828912.688
 109258285.248 8  85136350.08446  20791162.383                    20791170.172
 118215876.269 7  92116279.04545  22495740.438                    22495747.941
 11  7 28 18 46  0.0000000  0 12G11G06G08G07G16G28G24G03G19G10G13G23
 121390659.690 7  94590185.28244  23099866.945                    23099876.281
 129953565.473 6 101262548.61943  24729346.359                    24729355.895
 117710355.829 7  91722406.27545  22399530.727                    22399538.676
 109722657.562 8  85498209.606 7  20879525.813                    20879532.898
 133657534.471 6 104148748.95942  25434190.531                    25434199.801
 122215233.735 7  95232583.23444  23256746.234                    23256754.523
 129564086.046 6 100959087.52742  24655224.938                    24655239.066
 119489520.680 7  93108743.78744  22738102.141                    22738110.730
 111415957.663 8  86817652.47446  21201750.352                    21201756.074
 130533288.615 6 101714280.19243  24839666.422                    24839677.070
 109325205.583 8  85188495.75346  20803897.266                    20803905.070
 118321593.433 7  92198655.93745  22515857.320                    22515865.719
 11  7 28 18 46 30.0000000  0 12G11G06G08G07G16G28G24G03G19G10G13G23
 121315225.102 7  94531405.16444  23085512.570                    23085521.574
 130053949.441 6 101340769.83343  24748448.188                    24748457.777
 117637564.855 7  91665686.07345  22385678.734                    22385687.055
 109680569.072 8  85465413.384 7  20871516.492                    20871523.758
 133740968.134 7 104213762.22542  25450066.992                    25450077.215
 122165896.690 7  95194138.84844  23247358.078                    23247366.070
 129490982.197 6 100902123.51442  24641313.813                    24641327.598
 119586459.820 7  93184280.72744  22756549.273                    22756557.875
 111456977.265 8  86849615.79846  21209556.719                    21209562.254
 130590007.432 6 101758476.60442  24850459.469                    24850470.590
 109392622.535 8  85241028.41446  20816726.125                    20816733.973
 118427543.322 7  92281214.18945  22536019.656                    22536026.863
 11  7 28 18 47  0.0000000  0 12G11G06G08G07G16G28G24G03G19G10G13G23
 121239956.444 7  94472754.35844  23071189.258                    23071198.762
 130154479.368 6 101419104.80343  24767579.078                    24767588.777
 117564797.011 7  91608983.90245  22371831.813                    22371839.969
 109638686.791 8  85432777.862 7  20863546.820                    20863554.027
 133824288.214 6                  25465922.133
 122116757.360 7  95155848.51344  23238006.703                    23238014.504
 129417763.843 6 100845070.26543  24627380.008                    24627394.629
 119683686.353 7  93260041.61944  22775051.242                    22775059.520
 111498563.995 8  86882021.03646  21217470.117                    21217476.004
 130646874.762 7 101802788.69542  24861281.484                    24861291.922
 109460533.960 8  85293946.36446  20829649.500                    20829656.965
 118533723.338 7  92363951.77044  22556224.125                    22556231.969
 11  7 28 18 47 30.0000000  0 12G11G06G08G07G16G28G24G03G19G10G13G23
 121164856.552 7  94414235.04544  23056898.281                    23056907.383
 130255152.206 6 101497551.06843  24786736.680                    24786745.953
 117492053.472 7  91552300.65945  22357988.969                    22357997.445
 109597012.184 8  85400304.158 7  20855616.156                    20855623.328
 133907494.680 6                  25481756.211
 122067814.891 7  95117711.57344  23228693.555                    23228701.594
 129344433.398 6 100787929.69843  24613425.852                    24613440.066
 119781197.183 7  93336024.00844  22793607.078                    22793615.707
 111540715.580 8  86914866.41646  21225491.266                    21225497.160
 130703887.406 6 101847213.99743  24872129.906                    24872142.457
 109528937.296 8  85347247.62846  20842666.227                    20842674.047
 118640130.430 7  92446866.27145  22576473.469                    22576481.141
 11  7 28 18 48  0.0000000  0 12G11G06G08G07G16G28G24G03G19G10G13G23
 121089928.330 7  94355849.48144  23042640.125                    23042648.867
 130355965.788 6 101576107.02243  24805920.375                    24805929.949
 117419335.761 7  91495637.52545  22344151.227                    22344159.438
 109555547.198 8  85367993.781 7  20847725.609                    20847733.039
 133990587.620 6                  25497568.688
 122019069.105 7  95079727.90644  23219417.320                    23219425.824
 129270993.437 6 100730703.86243  24599450.133                    24599464.797
 119878989.632 7  93412225.86744  22812216.352                    22812224.711
 111583430.711 8  86948150.92846  21233619.633                    21233625.617
 130761042.839 6 101891750.55443  24883005.648                    24883018.883
 109597830.871 8  85400930.89446  20855776.516                    20855784.137
 118746761.633 7  92529955.39344  22596764.547                    22596772.488
 11  7 28 18 48 30.0000000  0 12G11G06G08G07G16G28G24G03G19G10G13G23
 121015174.904 7  94297600.13644  23028414.211                    23028423.195
 130456917.726 6 101654770.79743  24825131.711                    24825140.648
 117346645.383 7  91438995.69745  22330318.734                    22330327.336
 109514293.502 8  85335848.060 7  20839875.211                    20839882.176
 134073565.692 5                  25513357.914
 121970519.316 7  95041896.94944  23210178.391                    23210186.762
 129197446.547 6 100673394.66242  24585455.039                    24585469.578
 119977060.713 7  93488644.86744  22830878.875                    22830887.051
 111626707.555 8  86981873.13146  21241855.031                    21241860.551
 130818338.355 5 101936396.30042  24893909.977                    24893921.906
 109667212.264 8  85454994.27846  20868979.242                    20868987.031
 118853614.168 7  92613217.01544  22617098.563                    22617105.309
 11  7 28 18 49  0.0000000  0 12G11G06G08G07G16G28G24G03G19G10G13G23
 120940599.503 6  94239489.49744  23014223.266                    23014232.297
 130558005.536 6 101733540.41642  24844368.953                    24844377.438
 117273983.877 7  91382376.36945  22316491.688                    22316499.848
 109473252.665 8  85303868.187 7  20832065.398                    20832072.488
 134156429.200 5                  25529128.305
 121922164.908 7  95004218.25744  23200976.859                    23200985.359
 129123795.467 5 100616004.31243  24571438.953                    24571453.945
 120075407.661 7  93565278.80844  22849593.875                    22849602.473
 111670544.444 8  87016031.74646  21250197.375                    21250202.359
 130875771.065 5 101981148.91542  24904838.578                    24904851.133
 109737079.548 8  85509436.27046  20882274.352                    20882282.578
 118960685.309 7  92696648.96844  22637473.633                    22637480.762
 11  7 28 18 49 30.0000000  0 11G11G06G08G07G28G24G03G19G10G13G23
 120866205.308 6  94181520.07044  23000065.539                    23000075.063
 130659227.058 6 101812414.30542  24863629.609                    24863639.063
 117201352.321 7  91325780.37645  22302670.484                    22302678.715
 109432426.657 8  85272055.726 7  20824296.656                    20824303.742
 121874005.692 7  94966691.66144  23191812.273                    23191821.293
 129050042.993 6 100558534.89343  24557405.008                    24557419.207
 120174027.435 7  93642125.34144  22868359.758                    22868368.813
 111714939.882 8  87050625.58646  21258645.070                    21258651.273
 130933338.402 5 102026006.36052  24915793.070                    24915805.617
 109807430.457 8  85564255.11646  20895662.000                    20895669.434
 119067971.973 7  92780248.85544  22657888.750                    22657897.074
 11  7 28 18 50  0.0000000  0 11G11G06G08G07G28G24G03G19G10G13G23
 120791995.319 7  94123694.16144  22985944.383                    22985952.992
 130760579.537 6 101891390.19342  24882916.023                    24882925.777
 117128752.311 7  91269208.97345  22288854.750                    22288863.766
 109391817.640 8  85240412.348 7  20816568.945                    20816575.898
 121826040.700 7  94929316.40244  23182685.016                    23182693.703
 128976191.588 6 100500988.42743  24543351.430                    24543365.320
 120272917.499 7  93719182.47644  22887178.242                    22887187.191
 111759891.862 8  87085653.09446  21267199.375                    21267205.074
 130991037.253 5 102070966.47742  24926772.172                    24926786.629
 109878262.581 8  85619448.94746  20909140.500                    20909148.816
 119175471.385 7  92864014.49744  22678345.938                    22678353.008
 11  7 28 18 50 30.0000000  0 11G11G06G08G07G28G24G03G19G10G13G23
 120717972.340 7  94066014.03744  22971859.039                    22971867.605
 130862060.498 6 101970466.26142  24902227.977                    24902237.000
 117056185.301 7  91212663.28445  22275046.180                    22275054.027
 109351426.962 8  85208939.100 7  20808882.852                    20808889.605
 121778268.946 7  94892091.74644  23173594.109                    23173602.770
 128902243.949 6 100443367.00343  24529279.813                    24529293.813
 120372074.886 7  93796447.93044  22906047.641                    22906056.129
 111805398.343 8  87121112.69346  21275858.859                    21275864.809
 131048864.91615 102116026.73352  24937777.578                    24937790.727
 109949573.607 8  85675015.93146  20922710.914                    20922718.836
 119283180.606 7  92947943.64844  22698842.438                    22698849.465
 11  7 28 18 51  0.0000000  0 11G11G06G08G07G28G24G03G19G10G13G23
 120644138.846 7  94008481.52644  22957808.539                    22957817.133
 130963667.017 6 102049640.15052  24921562.391                    24921572.945
 116983651.679 7  91156143.58945  22261243.000                    22261251.234
 109311255.795 8  85177636.885 7  20801238.227                    20801245.488
 121730689.691 7  94855017.07344  23164540.125                    23164548.648
 128828202.029 6 100385672.11743  24515189.617                    24515204.164
 120471495.969 7  93873918.86944  22924966.477                    22924975.809
 111851457.116 7  87157002.62846  21284623.500                    21284629.898
 131106817.569 5 102161184.53342  24948805.438                    24948818.242
 110021360.838 8  85730954.00246  20936371.547                    20936379.418
 119391095.967 7  93032033.42844  22719378.117                    22719385.270
 11  7 28 18 51 30.0000000  0 11G11G06G08G07G28G24G03G19G10G13G23
 120570498.411 7  93951099.46244  22943795.242                    22943804.145
 131065397.253 6 102128910.39743  24940921.555                    24940931.391
 116911153.518 7  91099651.54445  22247447.563                    22247455.441
 109271306.121 8  85146507.300 7  20793636.289                    20793643.625
 121683302.676 7  94818092.20244  23155522.055                    23155531.141
 128754068.825 6 100327906.07843  24501082.414                    24501097.457
 120571177.962 6  93951593.07444  22943934.953                    22943944.477
 111898066.586 7  87193321.68646  21293493.109                    21293498.727
 131164893.240 6 102206438.18543  24959857.367                    24959869.703
 110093622.351 8  85787261.63546  20950122.477                    20950129.996
 119499215.034 7  93116281.95544  22739951.977                    22739959.816
 11  7 28 18 52  0.0000000  0 11G11G06G08G07G28G24G03G19G10G13G23
 120497054.220 7  93893870.30244  22929818.453                    22929827.938
 131167248.549 6 102208274.92043  24960303.219                    24960313.133
 116838692.136 7  91043188.14445  22233658.289                    22233666.352
 109231579.962 8  85115551.843 7  20786076.305                    20786083.387
 121636107.217 7  94781316.58344  23146541.609                    23146549.871
 128679847.207 6 100270071.18243  24486958.711                    24486972.887
 120671118.217 7  94029468.52744  22962953.164                    22962962.609
 111945225.021 8  87230068.49846  21302466.883                    21302472.887
 131223088.777 6 102251785.24543  24970932.219                    24970943.746
 110166355.731 8  85843936.94946  20963962.938                    20963970.797
 119607535.051 7  93200687.01644  22760565.359                    22760573.008
 11  7 28 18 52 30.0000000  0 11G11G06G08G07G28G24G03G19G10G13G23
 120423809.221 7  93836796.35644  22915881.688                    22915889.730
 131269218.613 6 102287732.09743  24979707.727                    24979717.438
 116766269.252 7  90986754.74645  22219876.828                    22219884.707
 109192079.189 8  85084772.014 7  20778559.875                    20778567.137
 121589102.625 7  94744689.68644  23137597.305                    23137605.238
 128605539.502 6 100212169.24943  24472817.977                    24472832.504
 120771314.014 6  94107543.13744  22982020.352                    22982029.328
 111992930.644 8  87267241.70946  21311545.250                    21311550.926
 131281401.423 6 102297223.49443  24982028.742                    24982040.215
 110239558.784 8  85900978.25046  20977893.281                    20977900.844
 119716052.884 7  93285246.24044  22781215.727                    22781223.441
 11  7 28 18 53  0.0000000  0 11G11G06G08G07G28G24G03G19G10G13G23
 120350766.378 7  93779879.94344  22901981.461                    22901989.453
 131371305.082 6 102367279.94143  24999133.773                    24999144.148
 116693886.101 7  90930352.32445  22206102.656                    22206110.887
 109152805.710 8  85054169.311 7  20771086.313                    20771093.563
 121542288.525 7  94708211.23744  23128688.406                    23128696.805
 128531148.518 6 100154202.44543  24458662.422                    24458675.594
 120871762.233 6  94185814.43044  23001135.039                    23001143.867
 112041181.530 7  87304839.79146  21320726.836                    21320732.750
 131339828.581 6 102342751.04043  24993146.094                    24993159.336
 110313229.188 8  85958383.71746  20991912.195                    20991920.191
 119824765.668 7  93369957.37444  22801902.953                    22801910.125
 11  7 28 18 53 30.0000000  0 11G11G06G08G07G28G24G03G19G10G13G23
 120277928.812 6  93723123.47344  22888120.273                    22888129.281
 131473505.490 6 102446916.57443  25018581.656                    25018591.910
 116621544.147 7  90873982.00945  22192336.484                    22192345.023
 109113760.966 8  85023744.835 7  20763656.281                    20763663.547
 121495664.173 7  94671880.60344  23119816.367                    23119824.008
 128456677.154 6 100096172.93243  24444490.055                    24444503.762
 120972460.391 7  94264280.48044  23020296.766                    23020305.996
 112089975.505 8  87342861.06346  21330012.023                    21330017.879
 131398367.387 7 102388365.58543  25004286.766                    25004298.266
 110387364.793 8  86016151.67246  21006019.781                    21006027.984
 119933670.740 7  93454818.37444  22822626.953                    22822634.305
 11  7 28 18 54  0.0000000  0 11G11G06G08G07G28G24G03G19G10G13G23
 120205299.530 7  93666529.30744  22874299.492                    22874308.148
 131575817.358 6 102526640.04143  25038051.281                    25038061.734
 116549244.800 7  90817644.88645  22178578.117                    22178586.293
 109074946.999 8  84993500.191 7  20756270.188                    20756277.555
 121449228.590 7  94635697.09344  23110979.414                    23110987.578
 128382127.979 6 100038082.92042  24430303.453                    24430318.094
 121073405.248 7  94342938.76343  23039506.164                    23039515.008
 112139310.835 7  87381304.17446  21339400.398                    21339406.195
 131457014.815 7 102434064.76943  25015446.742                    25015459.078
 110461962.620 8  86074279.81446  21020215.602                    21020223.016
 120042764.881 7  93539826.66244  22843387.570                    22843394.855
 11  7 28 18 54 30.0000000  0 11G11G06G08G07G28G24G03G19G10G13G23
 120132881.602 7  93610099.81244  22860518.789                    22860527.684
 131678238.692 6 102606448.78943  25057541.234                    25057551.484
 116476990.045 7  90761342.51045  22164828.250                    22164836.754
 109036365.916 8  84963437.005 7  20748928.555                    20748936.031
 121402981.434 7  94599660.37744  23102179.633                    23102187.563
 128307503.973 6  99979934.53843  24416103.531                    24416117.770
 121174594.339 7  94421787.37143  23058762.258                    23058770.090
 112189185.715 8  87420167.70446  21348891.148                    21348897.180
 131515768.348 7 102479846.62743  25026628.086                    25026639.648
 110537020.646 8  86132766.55046  21034498.438                    21034506.277
 120152045.274 7  93624980.07344  22864182.727                    22864190.691
 11  7 28 18 55  0.0000000  0 11G11G06G08G07G28G24G03G19G10G13G23
 120060678.125 7  93553837.44044  22846778.320                    22846787.992
 131780766.565 5 102686340.55743  25077051.805                    25077061.668
 116404781.111 7  90705075.81945  22151087.500                    22151095.809
 108998019.007 8  84933556.299 7  20741631.594                    20741638.500
 121356922.084 7  94563769.99344  23093414.508                    23093422.477
 128232807.570 6  99921729.80643  24401888.844                    24401902.488
 121276024.623 7  94500823.89643  23078063.023                    23078072.426
 112239597.641 8  87459449.72046  21358484.172                    21358490.227
 131574624.901 7 102525708.72743  25037827.469                    25037839.867
 110612536.409 8  86191609.95346  21048868.688                    21048876.707
 120261509.008 7  93710276.37544  22885013.047                    22885021.160
 11  7 28 18 55 30.0000000  0 11G11G06G08G07G28G24G03G19G10G13G23
 119988692.319 7  93497744.65344  22833080.688                    22833088.992
 131883398.872 5 102766313.70242  25096582.680                    25096591.977
 116332619.275 7  90648845.85545  22137355.648                    22137364.230
 108959908.452 8  84903859.768 7  20734379.195                    20734386.316
 121311049.830 7  94528025.41544  23084685.133                    23084693.195
 128158041.588 6  99863470.82242  24387660.500                    24387674.543
 121377693.359 7  94580046.23443  23097410.438                    23097419.203
 112290545.188 8  87499149.09946  21368179.641                    21368184.539
 131633581.936 7 102571649.14343  25049046.883                    25049059.027
 110688507.780 8  86250808.37346  21063325.313                    21063333.254
 120371153.233 7  93795713.28744  22905877.477                    22905885.887
 11  7 28 18 56  0.0000000  0 11G11G06G08G07G28G24G03G19G10G13G23
 119916926.922 7  93441823.62444  22819424.000                    22819432.508
 131986133.171 6 102846366.27042  25116132.703                    25116142.156
 116260506.318 7  90592653.97145  22123632.406                    22123641.504
 108922035.712 8  84874348.539 7  20727172.375                    20727179.340
 121265363.998 7  94492426.09644  23075991.344                    23075999.672
 128083208.822 6  99805159.78642  24373420.141                    24373434.840
 121479597.294 7  94659451.84644  23116802.258                    23116810.883
 112342025.867 8  87539263.90546  21377975.453                    21377981.852
 131692636.255 7 102617665.37743  25060284.859                    25060296.801
 110764931.802 8  86310359.52246  21077868.664                    21077876.504
 120480975.069 7  93881288.61744  22926776.133                    22926784.047
 11  7 28 18 56 30.0000000  0 11G11G06G08G07G28G24G03G19G10G13G23
 119845385.024 7  93386076.74844  22805810.266                    22805818.219
 132088967.237 6 102926496.58842  25135700.852                    25135711.348
 116188443.886 7  90536501.44745  22109919.898                    22109928.012
 108884402.792 8  84845024.188 7  20720011.227                    20720018.285
 121219864.030 7  94456971.60044  23067332.688                    23067341.016
 128008311.736 6  99746798.61843  24359168.305                    24359181.836
 121581733.660 7  94739038.59143  23136238.242                    23136246.508
 112394037.949 8  87579792.77546  21387873.406                    21387878.598
 131751785.204 6 102663755.32943  25071540.008                    25071552.492
 110841806.392 8  86370261.74746  21092497.414                    21092505.422
 120590971.642 7  93967000.08044  22947707.734                    22947716.094
 11  7 28 18 57  0.0000000  0 11G11G06G08G07G28G24G03G19G10G13G23
 119774069.949 7  93330506.60244  22792239.172                    22792247.910
 132191898.980 5 103006703.12142  25155288.438                    25155298.570
 116116433.631 7  90480389.59045  22096216.664                    22096224.680
 108847011.775 8  84815888.339 7  20712895.625                    20712902.613
 121174549.206 7  94421661.38944  23058709.445                    23058717.844
 127933353.301 6  99688389.71543  24344903.031                    24344917.723
 121684099.991 7  94818804.52743  23155717.273                    23155726.094
 112446579.668 8  87620734.36546  21397871.305                    21397877.816
 131811026.038 6 102709916.91142  25082813.648                    25082824.941
 110919129.205 8  86430513.23346  21107211.508                    21107219.340
 120701139.938 7  94052845.35544  22968672.164                    22968680.227
 11  7 28 18 57 30.0000000  0 11G11G06G08G07G28G24G03G19G10G13G23
 119702984.701 7  93275115.54144  22778712.320                    22778720.652
 132294925.676 6 103086983.54342  25174893.773                    25174903.984
 116044477.213 7  90424319.67645  22082524.008                    22082532.051
 108809864.486 8  84786942.398 7  20705826.563                    20705833.945
 121129418.805 7  94386494.87144  23050121.875                    23050129.664
 127858336.236 6  99629935.04143  24330629.031                    24330641.875
 121786693.201 7  94898747.20844  23175240.961                    23175249.039
 112499648.559 8  87662086.72546  21407970.367                    21407976.254
 131870355.848 6 102756147.85042  25094103.305                    25094115.754
 110996897.632 8  86491111.96046  21122010.258                    21122018.402
 120811477.204 6  94138822.32044  22989668.953                    22989676.137
 11  7 28 18 58  0.0000000  0 11G11G06G08G07G28G24G03G19G10G13G23
 119632132.286 7  93219905.91444  22765229.344                    22765238.352
 132398045.083 6 103167336.34042  25194517.609                    25194527.086
 115972575.736 8  90368292.57445  22068841.688                    22068849.203
 108772962.423 8  84758187.557 7  20698804.430                    20698811.496
 121084472.107 7  94351471.50244  23041568.328                    23041576.805
 127783263.156 6  99571436.75543  24316342.391                    24316356.324
 121889510.413 7  94978864.46343  23194805.867                    23194814.746
 112553242.629 8  87703848.33246  21418169.211                    21418175.414
 131929771.949 6 102802446.05542  25105410.109                    25105422.734
 111075109.215 8  86552056.00446  21136893.656                    21136901.668
 120921980.574 7  94224928.70144  23010697.164                    23010705.207
 11  7 28 18 58 30.0000000  0 11G11G06G08G07G28G24G03G19G10G13G23
 119561515.358 7  93164879.77344  22751790.961                    22751799.828
 132501254.286 6 103247759.00442  25214156.258                    25214166.695
 115900730.893 7  90312309.60345  22055169.602                    22055178.129
 108736307.243 8  84729625.083 7  20691829.336                    20691836.789
 121039708.218 7  94316590.58444  23033050.313                    23033058.320
 127708136.799 6  99512896.87242  24302045.367                    24302060.051
 121992548.560 7  95059153.86043  23214413.547                    23214422.348
 112607359.402 8  87746017.22846  21428467.125                    21428472.578
 131989271.345 6 102848809.10742  25116732.563                    25116744.832
 111153761.108 8  86613343.14946  21151860.508                    21151868.145
 121032646.612 6  94311161.84244  23031755.844                    23031764.523
 11  7 28 18 59  0.0000000  0 11G11G06G08G07G28G24G03G19G10G13G23
 119491137.393 7  93110039.86044  22738399.070                    22738407.496
 132604551.959 6 103328250.72742  25233813.023                    25233823.469
 115828944.321 8  90256372.02845  22041509.414                    22041517.215
 108699901.412 8  84701256.909 7  20684901.625                    20684909.039
 120995126.702 7  94281851.80244  23024566.750                    23024574.719
 127632960.219 6  99454317.92843  24287740.117                    24287754.191
 122095804.781 6  95139613.21543  23234062.164                    23234072.496
 112661996.914 8  87788591.89646  21438864.031                    21438869.922
 132048851.878 5                  25128069.891
 111232851.234 8  86674971.77246  21166910.984                    21166918.766
 121143472.851 7  94397519.79344  23052845.844                    23052854.074
 11  7 28 18 59 30.0000000  0 11G11G06G08G07G28G24G03G19G10G13G23
 119421001.554 7  93055388.61244  22725051.875                    22725060.875
 132707935.201 6 103408809.08042  25253486.852                    25253496.945
 115757217.496 7  90200481.03545  22027860.305                    22027868.477
 108663746.272 8  84673084.081 7  20678021.141                    20678028.367
 120950726.833 7  94247254.55144  23016117.719                    23016125.531
 127557736.039 6  99395701.86743  24273426.000                    24273439.262
 122199276.937 7  95220240.78244  23253752.469                    23253762.559
 112717153.449 8  87831571.00946  21449359.930                    21449365.961
 132108510.03715                  25139421.320
 111312376.806 8  86736939.69546  21182044.258                    21182052.293
 121254456.282 7  94484000.25444  23073965.398                    23073973.738
 11  7 28 19  0  0.0000000  0 11G11G06G08G07G28G24G03G19G10G13G23
 119351110.704 7  93000928.27144  22711752.234                    22711761.281
 132811401.792 6 103489432.37942  25273176.102                    25273185.891
 115685551.972 7  90144637.78945  22014222.742                    22014230.840
 108627843.613 8  84645107.981 7  20671189.172                    20671196.773
 120906507.960 7  94212798.33644  23007703.281                    23007711.105
 127482466.629 6  99337050.55043  24259102.523                    24259116.133
 122302961.900 7  95301034.21443  23273483.289                    23273492.172
 112772826.533 8  87874952.62646  21459954.297                    21459960.262
 132168243.15215                  25150789.703
 111392335.345 8  86799244.99545  21197259.891                    21197267.531
 121365594.012 7  94570600.93644  23095114.063                    23095122.359
 11  7 28 19  0 30.0000000  0 11G11G06G08G07G28G24G03G19G10G13G23
 119281467.508 7  92946660.89444  22698500.195                    22698508.262
 132914949.231 6 103570118.62242  25292879.602                    25292890.102
 115613949.548 7  90088843.71945  22000597.305                    22000605.602
 108592195.278 8  84617330.051 7  20664405.734                    20664413.219
 120862469.380 7  94178482.60244  22999322.367                    22999330.906
 127407155.071 6  99278366.39243  24244770.508                    24244783.547
 122406856.510 7  95381990.97043  23293254.273                    23293263.273
 112829013.988 8  87918735.04446  21470646.914                    21470652.234
 132228048.22615                  25162170.008
 111472724.036 8  86861885.48345  21212557.156                    21212565.102
 121476883.026 7  94657319.46844  23116292.039                    23116300.234
 11  7 28 19  1  0.0000000  0 11G11G06G08G07G28G24G03G19G10G13G23
 119212074.836 7  92892588.74944  22685294.578                    22685303.191
 133018575.336 6 103650866.16942  25312600.063                    25312609.859
 115542411.479 8  90033099.79645  21986983.820                    21986992.633
 108556803.111 8  84589751.748 7  20657670.992                    20657677.941
 120818610.013 7  94144306.51244  22990976.742                    22990984.430
 127331804.313 6  99219651.67643  24230432.828                    24230444.984
 122510957.988 7  95463108.93244  23313063.961                    23313072.691
 112885713.291 7  87962916.30246  21481435.664                    21481442.063
 132287922.37015                  25173564.250
 111553540.362 8  86924859.19345  21227936.141                    21227944.063
 121588320.122 7  94744153.40244  23137497.773                    23137506.129
 11  7 28 19  1 30.0000000  0 11G11G06G08G07G28G24G03G19G10G13G23
 119142935.840 7  92838714.26244  22672138.250                    22672146.664
 133122277.454 6 103731673.06642  25332333.992                    25332343.508
 115470939.596 7  89977407.43745  21973383.109                    21973391.301
 108521668.955 8  84562374.482 7  20650985.047                    20650991.813
 120774929.274 7  94110269.60244  22982663.984                    22982672.367
 127256416.982 6  99160908.45343  24216085.758                    24216098.930
 122615263.600 7  95544385.95944  23332912.727                    23332922.066
 112942922.549 7  88007494.94446  21492322.641                    21492328.516
 132347862.483 5                  25184970.555
 111634781.725 8  86988164.08746  21243395.953                    21243404.230
 121699902.351 7  94831100.44044  23158731.617                    23158739.855
 11  7 28 19  2  0.0000000  0 11G11G06G08G07G28G24G03G19G10G13G23
 119074054.018 7  92785040.17244  22659030.164                    22659038.625
 133226053.675 5 103812537.59342  25352082.266                    25352092.039
 115399535.948 7  89921768.24345  21959795.664                    21959803.664
 108486794.748 8  84535199.788 7  20644348.461                    20644356.055
 120731426.558 7  94076371.45244  22974386.047                    22974393.766
 127180996.063 6  99102139.02642  24201733.688                    24201746.719
 122719770.553 7  95625819.90643  23352799.906                    23352808.773
 113000639.288 7  88052469.01146  21503305.875                    21503311.703
 132407866.279 5                  25196388.680
 111716445.767 8  87051798.36846  21258936.398                    21258944.055
 121811627.266 6  94918158.65144  23179991.352                    23180000.617
 11  7 28 19  2 30.0000000  0 11G11G06G08G07G28G24G03G19G10G13G23
 119005432.258 7  92731568.77044  22645972.250                    22645980.434
 133329901.673 6 103893458.11142  25371844.211                    25371853.707
 115328201.994 7  89866183.36945  21946221.242                    21946229.445
 108452182.499 8  84508229.204 7  20637761.953                    20637769.410
 120688100.957 7  94042611.31044  22966141.398                    22966149.504
 127105544.466 6  99043345.69143  24187375.555                    24187388.957
 122824476.006 7  95707408.54043  23372724.969                    23372733.941
 113058861.564 8  88097836.99646  21514385.070                    21514390.848
 132467931.112 6                  25207819.344
 111798529.864 8  87115759.94545  21274556.078                    21274564.328
 121923492.069 7  95005325.85244  23201278.906                    23201288.414
 11  7 28 19  3  0.0000000  0 12G11G06G08G07G28G24G17G03G19G10G13G23
 118937073.917 7  92678302.57544  22632963.727                    22632972.367
 133433819.351 5 103974432.85342  25391618.609                    25391628.770
 115256939.307 8  89810654.04045  21932660.602                    21932668.645
 108417834.102 7  84481464.220 7  20631226.016                    20631233.152
 120644952.016 7  94008988.79644  22957930.391                    22957938.480
 127030064.933 6  98984530.56043  24173012.477                    24173025.977
 134483402.05615 104792277.72215  25591327.617
 122929377.378 7  95789149.83943  23392686.617                    23392695.543
 113117587.349 8  88143597.33246  21525560.477                    21525566.184
 132528054.220 6                  25219260.984
 111881031.280 8  87180046.71245  21290255.734                    21290263.813
 122035493.597 7  95092599.57744  23222592.648                    23222600.922
 11  7 28 19  3 30.0000000  0 12G11G06G08G07G28G24G17G03G19G10G13G23
 118868981.798 7  92625243.84744  22620005.977                    22620014.254
 133537804.746 6 104055460.45042  25411406.414                    25411416.906
 115185749.904 8  89755181.80145  21919113.242                    21919121.273
 108383751.389 8  84454906.258 8  20624740.047                    20624747.418
 120601979.236 7  93975503.57244  22949753.188                    22949760.676
 126954560.364 6  98925695.95843  24158644.430                    24158658.027
 134376063.137 5 104708637.111 4  25570900.984                    25570915.555
 123034471.755 7  95871041.53243  23412685.125                    23412694.289
 113176814.170 8  88189748.08346  21536831.156                    21536836.848
 132588232.849 6                  25230711.586
 111963947.702 8  87244656.85545  21306034.266                    21306042.281
 122147628.969 7  95179977.63144  23243931.367                    23243939.805
 11  7 28 19  4  0.0000000  0 12G11G06G08G07G28G24G17G03G19G10G13G23
 118801158.289 7  92572394.44144  22607099.625                    22607108.168
 133641854.539 5 104136538.11642  25431206.344                    25431217.102
 115114635.118 7  89699767.69345  21905580.891                    21905588.820
 108349935.605 8  84428556.293 7  20618305.227                    20618311.992
 120559180.895 7  93942154.26244  22941608.211                    22941616.215
 126879033.217 6  98866843.73243  24144272.305                    24144285.359
 134268725.690 5 104624997.690 5  25550474.625                    25550490.871
 123139756.286 7  95953081.36243  23432719.984                    23432729.211
 113236539.219 8  88236287.06946  21548196.109                    21548201.762
 132648463.655 6                  25242174.250
 112047276.067 7  87309587.99345  21321891.195                    21321899.527
 122259895.175 7  95267457.59144  23265294.938                    23265303.473
 11  7 28 19  4 30.0000000  0 12G11G06G08G07G28G24G17G03G19G10G13G23
 118733606.578 7  92519756.83944  22594244.836                    22594253.320
 133745966.818 5 104217664.51942  25451018.602                    25451029.137
 115043596.437 8  89644412.90645  21892062.438                    21892070.422
 108316388.963 8  84402416.056 7  20611921.508                    20611928.816
 120516556.811 7  93908940.72144  22933497.578                    22933505.270
 126803486.538 7  98807976.28543  24129896.125                    24129908.727
 134161390.998 6 104541360.302 5  25530049.727                    25530066.469
 123245228.256 7  96035267.26543  23452791.508                    23452800.051
 113296760.300 7  88283212.56946  21559655.867                    21559661.645
 132708744.258 6                  25253644.789
 112131013.390 8  87374837.79845  21337825.953                    21337834.266
 122372289.120 7  95355037.09344  23286683.047                    23286692.184
 11  7 28 19  5  0.0000000  0 12G11G06G08G07G28G24G17G03G19G10G13G23
 118666329.930 7  92467333.56444  22581442.969                    22581451.441
 133850139.803 5                  25470841.539
 114972635.923 8  89589119.00845  21878558.836                    21878567.242
 108283113.632 8  84376487.229 7  20605589.539                    20605596.758
 120474106.687 7  93875862.75545  22925419.734                    22925427.379
 126727923.788 6  98749096.29043  24115516.242                    24115530.016
 134054061.858 6 104457727.341 5  25509624.445                    25509643.121
 123350884.974 6  96117597.13544  23472897.086                    23472906.305
 113357476.053 8  88330523.52646  21571209.883                    21571215.473
 132769071.730 6                  25265124.984
 112215157.578 8  87440404.64145  21353837.969                    21353846.223
 122484808.314 7  95442714.21944  23308095.523                    23308103.832
 11  7 28 19  5 30.0000000  0 12G11G06G08G07G28G24G17G03G19G10G13G23
 118599331.246 7  92415126.89044  22568692.758                    22568701.047
 133954370.82815                  25490675.781
 114901755.243 8  89533887.33545  21865071.164                    21865079.148
 108250110.815 8  84350770.747 7  20599309.227                    20599316.121
 120431829.095 7  93842919.20145  22917374.500                    22917382.109
 126652347.360 6  98690205.62743  24101134.484                    24101147.617
 133946740.120 6 104374100.084 5  25489202.867                    25489219.672
 123456723.260 6  96200068.44343  23493037.875                    23493047.262
 113418683.113 8  88378217.31846  21582856.953                    21582862.789
 132829443.353 6                  25276614.336
 112299705.781 8  87506286.30245  21369926.961                    21369935.355
 122597449.453 7  95530486.34944  23329530.031                    23329538.953
 11  7 28 19  6  0.0000000  0 12G11G06G08G07G28G24G17G03G19G10G13G23
 118532613.754 7  92363139.30044  22555997.000                    22556005.453
 134058657.774 5                  25510522.227
 114830956.295 8  89478719.34245  21851598.508                    21851606.551
 108217382.733 8  84325268.343 7  20593081.406                    20593088.594
 120389723.178 7  93810109.42444  22909361.867                    22909369.949
 126576760.037 7  98631306.55943  24086751.305                    24086764.219
 133839427.555 6 104290479.982 5  25468781.391                    25468797.953
 123562740.481 6  96282679.19244  23513211.547                    23513222.359
 113480379.398 7  88426292.33546  21594597.367                    21594603.465
 132889856.235 6                  25288110.336
 112384655.210 7  87572480.60645  21386092.719                    21386100.527
 122710210.022 7  95618351.53744  23350987.758                    23350996.375
 11  7 28 19  6 30.0000000  0 12G11G06G08G07G28G24G17G03G19G10G13G23
 118466180.138 7  92311372.89344  22543355.195                    22543363.254
 134162998.554 4                  25530376.609
 114760240.894 8  89423616.44845  21838141.734                    21838149.488
 108184931.374 8  84299981.572 7  20586906.195                    20586912.875
 120347788.823 7  93777433.34744  22901381.906                    22901390.051
 126501164.591 6  98572401.07643  24072364.953                    24072378.953
 133732126.194 6 104206868.604 5  25448362.445                    25448378.449
 123668934.144 6  96365427.42343  23533419.586                    23533429.055
 113542562.807 7  88474746.91146  21606430.609                    21606436.605
 132950307.549 6                  25299613.828
 112470003.086 8  87638985.38745  21402333.828                    21402341.836
 122823086.965 7  95706307.40144  23372466.945                    23372476.340
 11  7 28 19  7  0.0000000  0 12G11G06G08G07G28G24G17G03G19G10G13G23
 118400033.669 7  92259830.28644  22530768.070                    22530775.938
 134267390.99415                  25550243.867
 114689610.650 8  89368579.91545  21824701.234                    21824709.418
 108152758.769 8  84274912.013 7  20580783.719                    20580791.078
 120306025.041 7  93744890.16944  22893434.938                    22893442.352
 126425564.229 6  98513491.79843  24057979.094                    24057992.344
 133624838.324 6 104123267.804 5  25427946.070
 123775301.548 6  96448311.04843  23553660.430                    23553670.391
 113605230.926 8  88523579.19346  21618355.844                    21618361.820
 133010794.528 6                  25311123.703
 112555746.893 8  87705798.68845  21418650.453                    21418658.516
 122936077.391 7  95794351.69644  23393969.188                    23393977.938
 11  7 28 19  7 30.0000000  0 12G11G06G08G07G28G24G17G03G19G10G13G23
 118334177.104 7  92208513.53444  22518235.922                    22518243.758
 134371832.70514                  25570118.758
 114619067.364 8  89313611.15145  21811277.219                    21811285.414
 108120866.303 8  84250060.737 7  20574714.797                    20574721.855
 120264430.663 7  93712479.00844  22885519.039                    22885527.223
 126349961.789 6  98454580.90443  24043592.977                    24043605.719
 133517566.284 6 104039679.301 5  25407533.367                    25407548.680
 123881839.667 6  96531327.65644  23573935.008                    23573944.309
 113668381.139 8  88572787.12846  21630372.945                    21630378.875
 133071314.703 6                  25322640.523
 112641883.990 7  87772918.45645  21435041.805                    21435050.188
 123049178.217 7  95882482.00344  23415491.766                    23415500.203
 11  7 28 19  8  0.0000000  0 12G11G06G08G07G28G24G17G03G19G10G13G23
 118268613.189 7  92157424.82944  22505759.344                    22505767.191
 134476321.57014                  25590004.539
 114548612.586 8  89258711.34245  21797870.352                    21797878.125
 108089255.708 8  84225429.114 7  20568699.555                    20568706.785
 120223005.206 7  93680199.47444  22877636.141                    22877643.836
 126274359.985 6  98395670.53443  24029205.906                    24029219.238
 133410311.314 6 103956104.134 5  25387123.641                    25387139.699
 123988545.729 7  96614475.18744  23594240.258                    23594249.652
 113732010.843 8  88622368.70346  21642481.273                    21642487.430
 133131864.980 6                  25334163.430
 112728411.013 8  87840342.05445  21451507.336                    21451515.668
 123162386.625 7  95970696.15844  23437034.727                    23437043.953
 11  7 28 19  8 30.0000000  0 11G11G08G07G28G24G17G03G19G10G13G23
 118203345.559 7  92106567.00644  22493338.773                    22493347.293
 114478248.836 8  89203882.45845  21784480.336                    21784488.266
 108057929.548 8  84201019.117 7  20562738.477                    20562744.945
 120181748.402 7  93648051.35345  22869785.750                    22869793.164
 126198762.264 7  98336763.35843  24014819.875                    24014833.516
 133303076.454 6 103872544.618 5  25366716.836                    25366732.754
 124095417.489 6  96697751.80944  23614577.266                    23614586.910
 113796118.191 8  88672322.45546  21654680.641                    21654686.445
 133192442.739 6 103786403.20253  25345690.766                    25345703.746
 112815326.361 7  87908068.23545  21468046.859                    21468054.680
 123275700.365 7  96058992.39143  23458597.797                    23458607.027
 11  7 28 19  9  0.0000000  0 11G11G08G07G28G24G17G03G19G10G13G23
 118138376.748 7  92055941.99345  22480976.438                    22480984.297
 114407977.257 8  89149125.40545  21771108.133                    21771115.969
 108026889.315 8  84176831.936 7  20556831.641                    20556838.594
 120140658.929 7  93616033.62545  22861966.156                    22861974.063
 126123171.195 6  98277861.34443  24000435.422                    24000447.934
 133195862.954 6 103789001.724 6  25346315.031                    25346330.672
 124202451.984 6  96781155.24843  23634945.023                    23634954.852
 113860700.449 8  88722646.28146  21666969.719                    21666976.074
 133253045.094 6 103833625.69443  25357222.703                    25357236.582
 112902626.328 8  87976094.13845  21484659.523                    21484667.648
 123389115.916 7  96147367.93544  23480180.758                    23480189.668
 11  7 28 19  9 30.0000000  0 11G11G08G07G28G24G17G03G19G10G13G23
 118073710.170 7  92005552.48745  22468670.531                    22468678.871
 114337799.874 8  89094441.75045  21757753.461                    21757761.625
 107996136.914 8  84152869.031 7  20550979.672                    20550986.504
 120099736.000 7  93584145.66444  22854179.008                    22854186.695
 126047589.940 6  98218966.99443  23986052.828                    23986065.754
 133088673.359 6 103705477.531 6  25325916.727                    25325933.195
 124309646.403 6  96864683.28143  23655343.758                    23655353.688
 113925755.470 8  88773338.47546  21679349.820                    21679356.137
 133313669.942 6 103880865.63642  25368759.523                    25368773.285
 112990308.449 7  88044417.80045  21501344.859                    21501353.289
 123502630.453 7  96235820.59944  23501781.953                    23501790.523
 11  7 28 19 10  0.0000000  0 11G11G08G07G28G24G17G03G19G10G13G23
 118009347.612 7  91955399.90144  22456421.609                    22456431.113
 114267717.987 8  89039832.50745  21744417.398                    21744425.508
 107965673.519 8  84129131.328 7  20545182.672                    20545189.914
 120058978.545 7  93552386.65445  22846422.961                    22846430.457
 125972020.881 7  98160082.14143  23971672.164                    23971685.188
 132981509.232 5 103621973.148 6  25305524.469                    25305540.477
 124416997.784 6  96948333.64343  23675772.047                    23675782.055
 113991280.223 8  88824396.72446  21691819.055                    21691824.543
 133374313.960 6 103928120.55343  25380300.641                    25380313.930
 113078369.430 7  88113036.69245  21518102.289                    21518110.195
 123616240.897 7  96324348.00444  23523401.102                    23523411.027
 11  7 28 19 10 30.0000000  0 10G11G08G07G28G24G03G19G10G13G23
 117945292.886 7  91905487.15844  22444233.016                    22444241.809
 114197734.037 8  88985299.58245  21731100.148                    21731108.223
 107935501.731 8  84105620.850 7  20539441.188                    20539448.141
 120018386.225 7  93520756.31045  22838698.500                    22838706.059
 125896467.053 7  98101209.16843  23957294.453                    23957306.973
 124524503.670 6  97032104.39943  23696229.789                    23696239.664
 114057272.467 8  88875819.21545  21704376.758                    21704382.863
 133434974.32315 103975388.19553  25391843.922                    25391857.203
 113166806.951 7  88181948.98945  21534931.602                    21534940.086
 123729944.533 7  96412948.02043  23545037.969                    23545047.727
 11  7 28 19 11  0.0000000  0 10G11G08G07G28G24G03G19G10G13G23
 117881548.812 7  91855816.47444  22432103.188                    22432111.082
 114127849.730 8  88930844.30145  21717801.648                    21717809.328
 107905623.294 8  84082338.958 8  20533755.750                    20533762.797
 119977957.966 7  93489253.79645  22831005.211                    22831013.336
 125820931.511 7  98042350.44243  23942920.242                    23942933.129
 124632161.374 6  97115993.47243  23716716.469                    23716725.848
 114123729.606 8  88927603.99846  21717022.648                    21717029.176
 133495648.276 6 104022666.46443  25403390.977                    25403403.207
 113255617.813 7  88251152.20645  21551831.328                    21551839.887
 123843738.533 7  96501618.46744  23566692.734                    23566702.129
 11  7 28 19 11 30.0000000  0 11G11G08G07G28G24G17G03G19G10G13G23
 117818119.009 7  91806390.68744  22420032.813                    22420040.863
 114058067.255 8  88876468.36345  21704522.133                    21704529.945
 107876040.694 8  84059287.591 8  20528126.117                    20528133.016
 119937693.300 7  93457878.76445  22823342.789                    22823351.375
 125745417.831 7  97983508.75443  23928550.922                    23928563.609
 132660203.01616 103371599.69716  25244379.477                    25244391.770
 124739968.425 6  97199998.90943  23737231.688                    23737241.129
 114190650.152 8  88979749.85845  21729757.648                    21729763.527
 133556333.630 6 104069953.56842  25414937.266                    25414950.992
 113344800.151 7  88320644.87645  21568802.750                    21568810.980
 123957620.568 7  96590357.48044  23588364.078                    23588373.301
 11  7 28 19 12  0.0000000  0 11G11G08G07G28G24G17G03G19G10G13G23
 117755004.886 7  91757210.88745  22408022.398                    22408030.410
 113988387.608 8  88822172.54145  21691262.680                    21691270.531
 107846753.923 8  84036466.728 8  20522553.008                    20522559.754
 119897590.811 7  93426630.09945  22815711.695                    22815719.426
 125669927.784 7  97924685.49143  23914185.313                    23914198.605
 132553162.945 6 103288192.041 6  25224010.180                    25224025.840
 124847921.378 6  97284118.02543  23757774.289                    23757783.664
 114258029.985 8  89032253.60146  21742579.602                    21742585.270
 133617026.785 5 104117246.69642  25426487.070                    25426500.504
 113434349.865 7  88390423.82745  21585843.203                    21585851.520
 124071586.383 7  96679161.78543  23610050.992                    23610060.383
 11  7 28 19 12 30.0000000  0 11G11G08G07G28G24G17G03G19G10G13G23
 117692210.272 7  91708280.07045  22396073.242                    22396081.520
 113918813.293 8  88767958.83345  21678022.938                    21678031.578
 107817766.221 8  84013878.915 8  20517036.977                    20517044.219
 119857650.552 7  93395507.84645  22808111.445                    22808119.016
 125594464.988 7  97865883.49343  23899825.375                    23899837.586
 132446159.358 6 103204812.831 6  25203647.672                    25203663.703
 124956018.054 6  97368349.13543  23778344.633                    23778354.363
 114325867.278 8  89085113.81345  21755488.313                    21755494.590
 133677725.53316 104164544.32252  25438038.234                    25438051.801
 113524264.697 8  88460487.26945  21602953.883                    21602962.020
 124185633.956 7  96768029.81044  23631754.359                    23631763.254
 11  7 28 19 13  0.0000000  0 11G11G08G07G28G24G17G03G19G10G13G23
 117629737.895 7  91659600.32645  22384185.109                    22384193.246
 113849346.216 8  88713828.66045  21664804.164                    21664812.016
 107789079.129 8  83991525.337 8  20511577.836                    20511585.078
 119817871.027 7  93364510.84745  22800541.352                    22800549.164
 125519032.221 6  97807104.87343  23885471.164                    23885483.813
 132339194.277 7 103121463.594 5  25183292.813                    25183309.527
 125064255.589 6  97452689.98743  23798941.539                    23798951.738
 114394159.721 8  89138328.69045  21768484.164                    21768489.809
 133738426.988 5 104211843.97142  25449588.508                    25449603.230
 113614541.829 8  88530833.03145  21620132.398                    21620140.719
 124299760.463 7  96856959.34443  23653471.164                    23653481.004
 11  7 28 19 13 30.0000000  0 11G11G08G07G28G24G17G03G19G10G13G23
 117567591.207 7  91611174.38744  22372359.070                    22372367.090
 113779988.647 8  88659783.80545  21651605.523                    21651613.305
 107760694.763 8  83969407.645 7  20506176.172                    20506183.180
 119778251.827 7  93333638.77844  22793002.164                    22793010.219
 125443632.899 6  97748352.35343  23871121.727                    23871135.121
 132232270.125 7 103038146.233 4  25162945.945                    25162962.328
 125172631.431 6  97537138.62943  23819564.961                    23819574.117
 114462905.039 8  89191896.45845  21781565.953                    21781571.945
 133799128.54815 104259143.65752  25461139.969                    25461154.414
 113705178.749 8  88601459.14445  21637380.508                    21637388.484
 124413963.228 7  96945948.27844  23675203.430                    23675213.238
 11  7 28 19 14  0.0000000  0 11G11G08G07G28G24G17G03G19G10G13G23
 117505772.801 7  91563004.24245  22360595.531                    22360603.234
 113710741.973 8  88605825.38145  21638428.594                    21638436.363
 107732615.001 8  83947527.313 7  20500833.094                    20500839.977
 119738792.118 7  93302890.98344  22785493.188                    22785500.914
 125368269.919 6  97689628.11043  23856780.695                    23856793.684
 132125388.559 6 102954861.826 3  25142607.984                    25142623.191
 125281143.058 6  97621693.08243  23840213.789                    23840223.336
 114532100.216 8  89245814.75145  21794733.906                    21794739.602
 133859827.658 5 104306441.53642  25472691.492                    25472705.285
 113796172.471 8  88672363.28245  21654696.047                    21654704.020
 124528239.261 6  97034994.27543  23696949.086                    23696960.008
 11  7 28 19 14 30.0000000  0 11G11G08G07G28G24G17G03G19G10G13G23
 117444285.203 7  91515091.86744  22348894.820                    22348902.922
 113641608.208 8  88551954.93845  21625272.539                    21625280.328
 107704841.111 8  83925885.321 7  20495547.711                    20495555.125
 119699490.581 7  93272266.43244  22778014.555                    22778021.461
 125292945.830 6  97630934.20243  23842448.281                    23842459.664
 132018551.311 6 102871612.255 5  25122276.625
 125389787.752 6  97706351.21343  23860888.531                    23860897.430
 114601742.722 8  89300081.62845  21807986.195                    21807991.945
 133920521.35215 104353735.13552  25484241.539                    25484254.578
 113887519.778 8  88743542.94445  21672079.094                    21672087.496
 124642585.545 7  97124095.02943  23718709.445                    23718718.879
 11  7 28 19 15  0.0000000  0 11G11G08G07G28G24G17G03G19G10G13G23
 117383131.434 7  91467439.63045  22337257.414                    22337265.211
 113572589.211 8  88498173.91745  21612138.742                    21612146.617
 107677375.630 8  83904483.645 8  20490321.172                    20490328.367
 119660347.147 7  93241765.10145  22770565.953                    22770573.258
 125217663.972 7  97572273.17843  23828121.953                    23828134.137
 131911761.206 6 102788399.414 5  25101954.680                    25101969.398
 125498563.024 6  97791111.14443  23881587.617                    23881596.371
 114671829.878 8  89354694.97845  21821322.914                    21821328.777
 133981206.97715                  25495788.852
 113979217.894 7  88814995.96545  21689528.281                    21689536.863
 124756999.115 7  97213248.26643  23740481.125                    23740491.336
 11  7 28 19 15 30.0000000  0 11G11G08G07G28G24G17G03G19G10G13G23
 117322314.597 7  91420049.92944  22325684.258                    22325692.402
 113503687.095 8  88444483.98145  21599027.047                    21599034.820
 107650220.083 8  83883323.471 7  20485153.734                    20485160.629
 119621360.597 8  93211385.98644  22763146.570                    22763154.223
 125142427.196 6  97513647.27743  23813803.773                    23813817.547
 131805019.711 5 102705224.479 5  25081642.203                    25081657.559
 125607465.716 6  97875970.31743  23902311.352                    23902319.602
 114742359.429 8  89409653.04946  21834744.813                    21834750.492
 134041881.679 5                  25507335.508
 114071264.051 7  88886720.17545  21707044.500                    21707052.941
 124871477.142 7  97302451.69143  23762266.336                    23762275.855
 11  7 28 19 16  0.0000000  0 11G11G08G07G28G24G17G03G19G10G13G23
 117261837.449 7  91372924.93145  22314175.453                    22314183.770
 113434903.270 8  88390886.21945  21585938.422                    21585945.840
 107623375.943 8  83862405.963 7  20480045.320                    20480052.195
 119582530.048 7  93181128.45645  22755757.383                    22755764.984
 125067238.532 6  97455058.89343  23799496.305                    23799509.094
 131698329.378 6 102622089.413 6  25061340.305                    25061355.176
 125716493.474 6  97960926.97343  23923058.406                    23923067.719
 114813328.608 8  89464953.68645  21848249.203                    21848255.227
 134102542.87115                  25518878.258
 114163655.245 7  88958713.26045  21724625.953                    21724634.578
 124986016.739 6  97391703.10543  23784062.336                    23784072.512
 11  7 28 19 16 30.0000000  0 11G11G08G07G28G24G17G03G19G10G13G23
 117201702.849 7  91326066.84645  22302732.484                    22302740.703
 113366240.192 8  88337382.54246  21572871.734                    21572880.016
 107596845.352 8  83841732.777 8  20474996.977                    20475004.066
 119543854.718 7  93150991.85945  22748397.633                    22748405.094
 124992100.773 6  97396510.13643  23785197.719                    23785210.762
 131591692.573 6 102538996.047 6  25041047.484                    25041062.742
 125825643.712 7  98045979.02243  23943828.961                    23943839.059
 114884734.871 8  89520594.90445  21861838.031                    21861843.496
 134163187.623 5                  25530419.563
 114256388.616 7  89030972.96345  21742272.672                    21742280.719
 125100615.385 6  97481000.47843  23805870.023                    23805880.895
 11  7 28 19 17  0.0000000  0 11G11G08G07G28G24G17G03G19G10G13G23
 117141913.509 7  91279477.80745  22291354.445                    22291362.734
 113297699.787 8  88283974.46945  21559829.117                    21559837.109
 107570629.972 8  83821305.212 8  20470007.992                    20470015.207
 119505333.782 7  93120975.58045  22741068.094                    22741075.348
 124917016.913 6  97338003.40843  23770910.211                    23770922.453
 131485110.601 6 102455945.355 6  25020765.180                    25020780.422
 125934913.855 6  98131124.52043  23964621.688                    23964632.242
 114956575.353 8  89576574.48145  21875508.570                    21875514.594
 134223813.152 5                  25541955.461
 114349460.913 7  89103496.76445  21759983.648                    21759992.098
 125215269.779 6  97570341.30443  23827688.055                    23827698.871
 11  7 28 19 17 30.0000000  0 11G11G08G07G28G24G17G03G19G10G13G23
 117082473.137 7  91233160.68044  22280043.445                    22280051.785
 113229284.126 8  88230663.58445  21546809.891                    21546817.777
 107544731.986 8  83801124.957 8  20465079.789                    20465087.320
 119466966.583 7  93091079.09045  22733766.391                    22733774.145
 124841990.529 7  97279541.47543  23756632.734                    23756645.180
 131378585.991 5 102372939.425 6  25000494.172                    25000509.656
 126044301.383 6  98216361.46143  23985438.594                    23985448.348
 115028847.906 8  89632890.71346  21889261.711                    21889267.207
 134284417.517 5                  25553488.820
 114442870.161 7  89176283.12745  21777758.789                    21777767.398
 125329977.466 6  97659723.68343  23849516.820                    23849526.563
 11  7 28 19 18  0.0000000  0 11G11G08G07G28G24G17G03G19G10G13G23
 117023383.197 7  91187116.62845  22268799.438                    22268807.211
 113160994.812 8  88177451.14745  21533815.055                    21533823.031
 107519153.128 8  83781193.389 8  20460212.758                    20460219.332
 119428751.744 7  93061301.32145  22726493.859                    22726502.152
 124767024.177 6  97221126.33143  23742367.000                    23742379.145
 131272120.782 6 102289979.779 6  24980234.242                    24980250.250
 126153803.471 6  98301687.68943  24006276.531                    24006286.453
 115101549.323 8  89689541.14445  21903096.117                    21903101.781
 134344997.580 6                  25565017.188
 114536612.329 7  89249328.90645  21795597.688                    21795606.176
 125444735.591 7  97749145.40143  23871355.000                    23871365.160
 11  7 28 19 18 30.0000000  0 11G11G08G07G28G24G17G03G19G10G13G23
 116964647.089 7  91141348.28845  22257621.930                    22257629.961
 113092834.080 8  88124338.91345  21520844.625                    21520851.980
 107493895.387 8  83761512.036 7  20455406.188                    20455413.398
 119390689.067 7  93031642.13045  22719251.203                    22719258.973
 124692121.107 7  97162760.47843  23728112.766                    23728125.328
 131165717.430 6 102207068.303 6  24959986.094                    24960002.098
 126263417.644 6  98387101.27343  24027135.531                    24027144.820
 115174677.542 8  89746524.14345  21917012.500                    21917017.766
 134405550.790 6                  25576540.180
 114630685.039 8  89322632.24745  21813498.836                    21813507.203
 125559541.341 6  97838604.17743  23893201.672                    23893211.520
 11  7 28 19 19  0.0000000  0 11G11G08G07G28G24G17G03G19G10G13G23
 116906267.708 7  91095857.92345  22246512.711                    22246520.895
 113024804.069 8  88071328.54346  21507898.375                    21507906.359
 107468960.077 8  83742081.911 7  20450661.273                    20450667.789
 119352777.538 7  93002100.71445  22712036.953                    22712044.414
 124617284.366 7  97104446.28043  23713872.516                    23713884.523
 131059377.856 7 102124206.514 6  24939750.133                    24939765.422
 126373141.141 6  98472600.06843  24048014.914                    24048023.520
 115248229.586 8  89803837.39645  21931008.438                    21931014.992
 134466074.511 6                  25588057.648
 114725085.366 7  89396190.89145  21831463.281                    21831471.520
 125674392.078 6  97928098.01743  23915057.633                    23915067.473
 11  7 28 19 19 30.0000000  0 11G11G08G07G28G24G17G03G19G10G13G23
 116848248.136 7  91050647.93245  22235472.125                    22235480.160
 112956906.622 8  88018421.46845  21494977.969                    21494985.578
 107444349.639 8  83722904.948 7  20445977.977                    20445984.910
 119315016.358 7  92972676.45745  22704851.500                    22704859.281
 124542516.974 6  97046186.17343  23699644.281                    23699656.094
 130953104.235 6 102041396.069 6  24919526.641                    24919542.121
 126482971.784 6  98558182.24442  24068914.563                    24068924.051
 115322203.009 8  89861479.00145  21945085.438                    21945091.047
 134526566.001 5                  25599568.492
 114819810.137 7  89470002.32845  21849488.422                    21849496.840
 125789284.469 6  98017624.32343  23936920.469                    23936930.781
 11  7 28 19 20  0.0000000  0 11G11G08G07G28G24G17G03G19G10G13G23
 116790590.860 7  91005720.24245  22224499.484                    22224507.969
 112889143.787 8  87965619.27046  21482083.641                    21482091.309
 107420065.361 8  83703982.137 8  20441356.578                    20441363.781
 119277404.611 7  92943368.63145  22697693.797                    22697701.477
 124467821.542 6  96987982.06943  23685430.391                    23685441.945
 130846898.329 7 101958638.396 6  24899317.125                    24899331.473
 126592906.652 6  98643845.71842  24089834.594                    24089843.484
 115396594.905 8  89919446.69745  21959241.063                    21959247.824
 134587022.680 5                  25611073.516
 114914856.626 7  89544064.46145  21867575.352                    21867583.555
 125904215.994 7  98107181.12243  23958792.023                    23958801.207
 11  7 28 19 20 30.0000000  0 11G11G08G07G28G24G17G03G19G10G13G23
 116733298.665 7  90961077.02445  22213597.289                    22213605.973
 112821517.324 8  87912923.35646  21469214.445                    21469222.734
 107396109.088 8  83685314.901 8  20436798.031                    20436804.926
 119239941.367 7  92914176.53545  22690564.344                    22690572.699
 124393201.173 7  96929836.53843  23671229.773                    23671242.332
 130740762.299 6 101875935.148 6  24879119.625                    24879134.559
 126702943.350 6  98729588.51142  24110774.000                    24110783.199
 115471402.537 8  89977738.32445  21973476.984                    21973483.184
 134647441.637 5                  25622570.891
 115010221.593 7  89618374.77145  21885722.664                    21885730.621
 126019183.342 6  98196765.83043  23980669.516                    23980679.684
 11  7 28 19 21  0.0000000  0 11G11G08G07G28G24G17G03G19G10G13G23
 116676374.498 7  90916720.60445  22202765.250                    22202773.664
 112754029.819 8  87860335.70946  21456371.703                    21456379.840
 107372483.142 8  83666905.079 7  20432302.109                    20432309.031
 119202626.008 7  92885099.67245  22683463.820                    22683471.414
 124318659.180 7  96871752.00643  23657046.164                    23657056.637
 130634698.679 6 101793288.331 5  24858936.141                    24858951.344
 126813079.396 6  98815408.74543  24131732.781                    24131741.898
 115546623.866 8  90036352.31945  21987791.023                    21987796.789
 134707820.66815                  25634061.430
 115105902.448 7  89692931.20945  21903930.320                    21903938.152
 126134184.587 7  98286376.93443  24002553.352                    24002563.805
 11  7 28 19 21 30.0000000  0 11G11G08G07G28G24G17G03G19G10G13G23
 116619821.084 7  90872653.05545  22192003.258                    22192011.727
 112686683.077 8  87807857.73646  21443556.398                    21443563.832
 107349189.075 8  83648753.854 8  20427869.258                    20427876.469
 119165457.557 7  92856137.27945  22676391.039                    22676398.652
 124244198.724 7  96813730.95843  23642875.727                    23642887.148
 130528709.518 6 101710699.534 5  24838766.828                    24838781.559
 126923312.093 6  98901304.25342  24152707.953                    24152718.070
 115622255.847 8  90095286.30845  22002183.625                    22002189.254
 134768156.80915                  25645543.266
 115201896.244 7  89767731.50045  21922197.188                    21922205.508
 126249216.559 6  98376012.01443  24024443.523                    24024453.809
 11  7 28 19 22  0.0000000  0 11G11G08G07G28G24G17G03G19G10G13G23
 116563641.379 7  90828876.72045  22181312.609                    22181320.762
 112619479.531 8  87755491.35546  21430767.797                    21430775.754
 107326228.707 8  83630862.659 8  20423500.289                    20423506.809
 119128435.258 7  92827288.77245  22669345.930                    22669353.668
 124169822.790 7  96755775.80244  23628722.172                    23628734.465
 130422796.714 6 101628170.182 5  24818611.758                    24818626.668
 127033638.938 6  98987273.15343  24173703.641                    24173712.574
 115698295.540 8  90154537.98745  22016653.297                    22016659.496
 134828447.643 5                  25657015.734
 115298199.918 7  89842773.25345  21940522.930                    21940531.379
 126364276.488 6  98465668.87743  24046338.609                    24046349.238
 11  7 28 19 22 30.0000000  0 12G11G08G07G26G28G24G17G03G19G10G13G23
 116507837.866 7  90785393.51845  22170693.703                    22170701.777
 112552421.004 8  87703237.99746  21418006.727                    21418015.000
 107303603.864 8  83613232.909 8  20419194.711                    20419202.277
 129888403.82715                  24716935.266
 119091558.318 7  92798553.52245  22662328.188                    22662336.270
 124095534.440 7  96697888.91644  23614585.734                    23614597.887
 130316962.398 6 101545702.052 5  24798472.273                    24798486.719
 127144057.432 6  99073313.46443  24194716.102                    24194725.203
 115774740.497 7  90214105.46545  22031200.172                    22031206.703
 134888690.60315                  25668479.789
 115394810.542 7  89918054.18545  21958907.375                    21958915.625
 126479361.548 6  98555345.27043  24068238.648                    24068249.676
 11  7 28 19 23  0.0000000  0 12G11G08G07G26G28G24G17G03G19G10G13G23
 116452413.393 7  90742205.66545  22160147.094                    22160154.531
 112485509.539 8  87651099.20845  21405274.070                    21405281.727
 107281316.659 8  83595866.269 8  20414953.766                    20414960.922
 129790271.30915                  24698260.156
 119054825.835 7  92769930.82345  22655338.578                    22655346.270
 124021336.734 7  96640072.65844  23600466.422                    23600477.645
 130211208.919 6 101463296.960 5  24778347.820                    24778362.594
 127254565.185 6  99159423.36243  24215744.602                    24215754.344
 115851588.216 8  90273986.76845  22045823.828                    22045829.703
 134948882.61015                  25679935.164
 115491725.104 7  89993571.95745  21977349.453                    21977358.258
 126594469.097 6  98645039.21443  24090143.789                    24090154.125
 11  7 28 19 23 30.0000000  0 12G11G08G07G26G28G24G17G03G19G10G13G23
 116397370.791 7  90699315.38145  22149672.750                    22149680.719
 112418747.247 8  87599076.66146  21392569.555                    21392577.332
 107259368.441 8  83578763.754 8  20410777.156                    20410783.715
 129692437.91915                  24679644.758
 119018236.848 7  92741419.96745  22648375.602                    22648383.559
 123947232.788 7  96582329.45044  23586365.078                    23586375.914
 130105538.155 6 101380956.262 6  24758239.578                    24758254.348
 127365159.771 6  99245600.87143  24236790.180                    24236799.910
 115928835.665 8  90334179.57145  22060523.813                    22060529.941
 135009021.17614                  25691375.672
 115588940.772 7  90069324.34045  21995849.469                    21995858.410
 126709596.167 6  98734748.37243  24112051.688                    24112062.445
 11  7 28 19 24  0.0000000  0 12G11G08G07G26G28G24G17G03G19G10G13G23
 116342712.231 7  90656724.34145  22139271.422                    22139278.965
 112352136.057 8  87547171.85746  21379893.797                    21379901.770
 107237760.435 8  83561926.341 8  20406665.227                    20406671.852
 129594906.149 6 100983056.69952  24661084.297                    24661094.770
 118981790.275 7  92713020.03945  22641440.234                    22641447.316
 123873225.143 7  96524661.29444  23572281.359                    23572293.398
 129999951.749 6 101298681.334 6  24738146.844                    24738161.531
 127475838.365 6  99331843.87743  24257851.625                    24257861.652
 116006479.906 8  90394681.54845  22075298.945                    22075304.945
 135069103.49715                  25702812.258
 115686453.290 7  90145308.03045  22014405.922                    22014414.113
 126824739.611 6  98824470.27943  24133963.141                    24133973.922
 11  7 28 19 24 30.0000000  0 12G11G08G07G26G28G24G17G03G19G10G13G23
 116288440.906 7  90614435.06345  22128943.406                    22128951.859
 112285678.203 8  87495386.55046  21367247.180                    21367255.641
 107216495.191 8  83545356.032 7  20402618.602                    20402625.723
 129497679.310 6 100907295.53742  24642583.008                    24642594.219
 118945485.629 7  92684730.73945  22634531.516                    22634538.840
 123799317.239 7  96467070.82344  23558216.977                    23558229.266
 129894452.634 6 101216474.479 6  24718070.883                    24718085.371
 127586598.565 6  99418150.47843  24278928.266                    24278938.613
 116084518.317 7  90455490.68245  22090149.336                    22090155.652
 135129127.47815                  25714232.641
 115784260.930 7  90221521.71145  22033017.961                    22033026.441
 126939896.918 6  98914202.98043  24155877.195                    24155887.930
 11  7 28 19 25  0.0000000  0 12G11G08G07G26G28G24G17G03G19G10G13G23
 116234559.304 7  90572449.42345  22118690.227                    22118698.508
 112219375.909 8  87443722.43846  21354630.828                    21354638.207
 107195574.333 8  83529054.049 8  20398637.531                    20398644.789
 129400760.370 6 100831774.34742  24624138.469                    24624150.684
 118909321.974 7  92656551.27545  22627649.852                    22627657.363
 123725512.021 7  96409560.38643  23544172.422                    23544183.848
 129789042.446 6 101134336.885 6  24698011.539                    24698026.039
 127697437.799 6  99504518.66543  24300020.875                    24300030.289
 116162948.423 8  90516605.02245  22105074.055                    22105080.195
 135189090.684 6                  25725644.328
 115882360.287 8  90297962.68845  22051685.352                    22051694.613
 127055065.534 6  99003944.44743  24177793.008                    24177803.395
 11  7 28 19 25 30.0000000  0 12G11G08G07G26G28G24G17G03G19G10G13G23
 116181070.256 7  90530769.70145  22108511.500                    22108520.176
 112153231.095 8  87392181.04246  21342043.594                    21342051.336
 107174999.744 8  83513021.912 7  20394722.156                    20394729.031
 129304152.302 6 100756495.38042  24605755.102                    24605767.191
 118873298.506 8  92628481.07645  22620794.750                    22620802.148
 123651813.245 7  96352132.88143  23530147.766                    23530159.242
 129683723.073 6 101052270.067 6  24677970.570                    24677985.559
 127808353.721 6  99590946.55543  24321126.938                    24321137.453
 116241767.440 8  90578022.43045  22120072.969                    22120078.699
 135248990.10315                  25737042.297
 115980748.625 7  90374628.84445  22070408.258                    22070416.836
 127170242.663 6  99093692.58343  24199710.469                    24199721.148
 11  7 28 19 26  0.0000000  0 12G11G08G07G26G28G24G17G03G19G10G13G23
 116127976.239 7  90489397.77445  22098407.859                    22098416.234
 112087245.725 8  87340763.89146  21329486.938                    21329494.566
 107154772.891 8  83497260.716 7  20390873.289                    20390880.133
 129207857.744 6 100681460.72042  24587430.477                    24587442.113
 118837414.303 7  92600519.39245  22613966.641                    22613973.637
 123578223.169 7  96294790.10243  23516144.281                    23516155.656
 129578497.002 7 100970275.943 6  24657945.586                    24657960.406
 127919343.831 6  99677432.31643  24342248.078                    24342258.430
 116320972.458 8  90639740.58845  22135145.422                    22135151.383
 135308823.044 5                  25748428.961
 116079422.302 7  90451517.35645  22089185.180                    22089194.391
 127285425.393 6  99183445.06943  24221629.227                    24221640.617
 11  7 28 19 26 30.0000000  0 11G11G08G07G26G28G24G17G03G19G13G23
 116075280.114 7  90448335.89745  22088380.289                    22088388.402
 112021422.318 8  87289472.94546  21316961.195                    21316968.871
 107134895.876 8  83481772.143 8  20387091.000                    20387097.906
 129111879.786 6 100606672.74742  24569166.492                    24569178.938
 118801668.518 7  92572665.56545  22607163.773                    22607171.840
 123504745.324 7  96237534.75743  23502161.523                    23502173.398
 129473366.368 7 100888356.217 6  24637940.695                    24637954.961
 128030405.768 5  99763973.98842  24363382.625                    24363392.520
 116400560.696 8  90701757.36145  22150290.273                    22150296.246
 116178378.783 7  90528626.21945  22108015.750                    22108024.879
 127400611.115 6  99273199.91443  24243549.094                    24243559.590
 11  7 28 19 27  0.0000000  0 12G11G08G07G26G28G24G17G03G19G10G13G23
 116022984.676 7  90407586.23745  22078428.844                    22078436.871
 111955763.026 8  87238309.87446  21304466.531                    21304474.211
 107115370.565 8  83466557.604 8  20383375.094                    20383382.305
 129016221.706 6 100532134.03142  24550964.234                    24550975.754
 118766060.603 7  92544919.19045  22600388.164                    22600395.719
 123431382.839 7  96180369.28043  23488200.828                    23488212.371
 129368333.693 6 100806512.869 6  24617952.984                    24617967.020
 128141537.504 6  99850569.99542  24384529.977                    24384540.906
 116480529.779 7  90764070.91045  22165507.602                    22165513.973
 135428280.19315                  25771166.172
 116277615.408 7  90605953.37045  22126900.484                    22126908.984
 127515796.995 6  99362954.85443  24265468.125                    24265479.648
 11  7 28 19 27 30.0000000  0 12G11G08G07G26G28G24G17G03G19G10G13G23
 115971092.145 7  90367150.54745  22068553.727                    22068562.156
 111890269.831 8  87187276.22946  21292003.648                    21292011.574
 107096198.234 8  83451618.135 8  20379727.078                    20379733.988
 128920885.943 6 100457846.47242  24532822.086                    24532834.285
 118730589.166 7  92517279.13545  22593638.008                    22593645.422
 123358138.231 7  96123295.68344  23474263.227                    23474274.914
 129263399.695 6 100724746.457 6  24597984.461                    24597998.000
 128252735.615 6  99937217.81343  24405689.945                    24405700.922
 116560876.539 7  90826678.74745  22180797.406                    22180803.586
 135487899.03515                  25782507.742
 116377128.641 7  90683496.08344  22145836.617                    22145845.750
 127630980.225 7  99452707.75143  24287387.500                    24287397.676
 11  7 28 19 28  0.0000000  0 12G11G08G07G26G28G24G17G03G19G10G13G23
 115919605.733 7  90327031.28345  22058756.438                    22058763.824
 111824945.231 8  87136373.96646  21279572.688                    21279580.809
 107077381.121 8  83436955.439 8  20376145.938                    20376152.750
 128825876.058 6 100383812.91242  24514741.438                    24514753.809
 118695253.769 7  92489745.09345  22586913.406                    22586921.379
 123285015.105 7  96066316.73344  23460347.977                    23460359.492
 129158567.431 6 100643059.273 6  24578034.969                    24578048.770
 128363998.311 6 100023915.96243  24426863.367                    24426874.141
 116641598.739 7  90889579.13445  22196157.781                    22196164.504
 135547441.45014                  25793836.609
 116476915.508 7  90761251.99245  22164825.977                    22164834.641
 127746158.071 6  99542456.40843  24309305.219                    24309315.855
 11  7 28 19 28 30.0000000  0 12G11G08G07G26G28G24G17G03G19G10G13G23
 115868527.691 7  90287230.26445  22049036.406                    22049044.367
 111759790.894 8  87085604.35746  21267174.313                    21267181.836
 107058920.609 8  83422570.635 7  20372633.383                    20372640.359
 128731194.311 6 100310034.97442  24496723.523                    24496735.945
 118660053.390 7  92462316.26245  22580215.273                    22580223.363
 123212016.234 7  96009434.63543  23446455.984                    23446468.281
 129053838.774 6 100561452.807 6  24558106.328                    24558119.652
 128475322.926 6 100110662.35343  24448047.000                    24448057.852
 116722693.035 7  90952769.45645  22211589.914                    22211596.320
 135606904.65314                  25805152.578
 116576972.868 7  90839218.68445  22183865.688                    22183874.707
 127861327.893 6  99632198.84643  24331220.867                    24331231.977
 11  7 28 19 29  0.0000000  0 11G11G08G07G26G28G24G17G03G19G13G23
 115817861.236 7  90247749.93545  22039395.188                    22039403.148
 111694809.668 8  87034969.66246  21254808.781                    21254816.602
 107040819.057 8  83408465.530 8  20369188.328                    20369195.168
 128636844.261 5 100236515.48442  24478770.359                    24478781.160
 118624987.479 7  92434992.21345  22573542.680                    22573550.457
 123139145.258 7  95952652.20243  23432589.570                    23432601.453
 128949216.228 6 100479929.056 5  24538197.031                    24538210.074
 128586707.718 6 100197455.63542  24469243.469                    24469253.602
 116804157.150 7  91016247.97745  22227092.180                    22227098.047
 116677298.128 7  90917394.13345  22202957.570                    22202966.492
 127976487.478 7  99721933.30043  24353135.570                    24353146.641
 11  7 28 19 29 30.0000000  0 11G11G08G07G26G28G24G17G03G19G13G23
 115767608.335 7  90208591.86445  22029832.383                    22029839.988
 111630003.552 8  86984471.41646  21242476.547                    21242484.098
 107023078.076 8  83394641.392 7  20365812.609                    20365819.773
 128542828.546 5 100163256.59142  24460879.391                    24460890.637
 118590055.096 7  92407772.19745  22566895.016                    22566902.332
 123066405.055 7  95895971.65043  23418747.563                    23418759.047
 128844701.566 6 100398489.323 5  24518307.875                    24518321.250
 128698149.853 6 100284293.62243  24490449.883                    24490460.246
 116885988.236 7  91080012.43745  22242663.797                    22242670.711
 116777888.005 7  90995775.75945  22222099.477                    22222108.117
 128091633.894 7  99811657.47443  24375047.156                    24375058.746
 11  7 28 19 30  0.0000000  0 11G11G08G07G26G28G24G17G03G19G13G23
 115717771.760 7  90169758.20845  22020348.406                    22020356.336
 111565374.661 8  86934111.26146  21230177.875                    21230185.777
 107005699.099 8  83381099.334 8  20362505.148                    20362512.320
 128449150.23915 100090260.51052  24443053.727                    24443064.215
 118555255.186 7  92380655.41645  22560272.695                    22560280.602
 122993798.697 7  95839395.37844  23404930.953                    23404942.809
 128740296.790 6 100317135.241 5  24498439.563                    24498453.813
 128809646.953 6 100371174.45442  24511667.570                    24511677.258
 116968183.459 7  91144060.63245  22258305.453                    22258311.555
 116878739.377 7  91074361.16444  22241290.813                    22241299.688
 128206763.955 6  99901368.89343  24396955.805                    24396967.688
 11  7 28 19 30 30.0000000  0 12G11G08G07G26G28G24G17G03G19G10G13G23
 115668353.774 7  90131250.72445  22010944.539                    22010952.516
 111500924.866 8  86883890.65646  21217913.680                    21217921.418
 106988683.307 8  83367840.286 8  20359267.594                    20359274.570
 128355811.636 5 100017529.23452  24425292.156                    24425302.117
 118520586.700 7  92353641.04145  22553675.570                    22553683.305
 122921328.829 7  95782925.50843  23391140.086                    23391152.199
 128636003.983 6 100235868.424 6  24478593.859                    24478607.707
 128921196.464 6 100458096.15142  24532894.836                    24532903.480
 117050739.743 7  91208390.17145  22274015.273                    22274021.598
 135843911.56115                  25850256.742
 116979849.107 7  91153147.87145  22260531.258                    22260540.816
 128321874.951 6  99991065.46943  24418861.883                    24418872.383
 11  7 28 19 31  0.0000000  0 11G11G08G07G26G28G24G17G03G19G13G23
 115619356.580 8  90093071.11645  22001620.422                    22001629.328
 111436656.327 8  86833811.31246  21205683.633                    21205691.719
 106972032.714 8  83354865.791 8  20356099.172                    20356105.941
 128262815.997 5  99945065.21042  24407594.352                    24407605.551
 118486048.765 7  92326728.39045  22547103.117                    22547111.539
 122848998.679 7  95726564.49043  23377375.102                    23377387.203
 128531824.945 6 100154690.214 6  24458769.102                    24458783.133
 129032796.050 6 100545056.84042  24554132.000                    24554140.871
 117133654.257 7  91272998.85245  22289793.281                    22289799.117
 117081214.006 7  91232133.42545  22279820.898                    22279829.539
 128436964.204 6 100080745.11543  24440761.672                    24440773.840
 11  7 28 19 31 30.0000000  0 11G11G08G07G26G28G24G17G03G19G13G23
 115570783.456 8  90055221.97745  21992377.508                    21992385.430
 111372571.897 8  86783875.41346  21193488.969                    21193496.816
 106955749.645 8  83342177.686 8  20353000.031                    20353007.242
 128170166.369 6  99872870.71642  24389964.109                    24389975.137
 118451641.066 7  92299917.23645  22540555.602                    22540563.309
 122776811.881 7  95670315.14343  23363639.078                    23363650.754
 128427762.452 6 100073602.830 6  24438965.852                    24438980.012
 129144443.697 6 100632054.99242  24575377.352                    24575387.539
 117216924.570 7  91337884.79045  22305639.164                    22305645.430
 117182831.526 7  91311315.81245  22299157.695                    22299166.277
 128552029.563 6 100170406.09343  24462658.375                    24462670.410
 11  7 28 19 32  0.0000000  0 11G11G08G07G26G28G24G17G03G19G13G23
 115522637.161 8  90017705.43445  21983215.836                    21983223.539
 111308673.536 8  86734084.50146  21181329.477                    21181337.309
 106939835.767 8  83329777.263 8  20349971.844                    20349978.871
 128077865.798 6  99800948.25642  24372399.938                    24372410.449
 118417362.532 7  92273206.70045  22534032.641                    22534039.754
 122704771.244 7  95614179.70043  23349930.289                    23349941.813
 128323817.783 6  99992607.252 5  24419185.977                    24419198.977
 129256136.958 6 100719088.62942  24596631.875                    24596642.813
 117300547.945 7  91403045.83445  22321552.492                    22321558.781
 117284698.372 7  91390692.48444  22318542.219                    22318550.988
 128667068.155 6 100260046.23643  24484549.656                    24484561.941
 11  7 28 19 32 30.0000000  0 11G11G08G07G26G28G24G17G03G19G13G23
 115474920.056 8  89980523.31045  21974135.313                    21974143.520
 111244963.521 8  86684440.35546  21169205.570                    21169213.512
 106924292.364 8  83317665.521 8  20347014.047                    20347021.582
 127985916.927 6  99729299.80042  24354902.617                    24354913.160
 118383211.920 7  92246595.88745  22527533.969                    22527542.250
 122632879.750 7  95558160.47144  23336250.180                    23336261.422
 128219993.372 6  99911705.376 6  24399428.922                    24399441.926
 129367873.493 6 100806155.91143  24617894.773                    24617906.352
 117384521.126 7  91468479.45245  22337531.563                    22337538.125
 117386811.542 7  91470261.08944  22337974.063                    22337983.016
 128782077.305 6 100349663.40443  24506435.578                    24506448.004
 11  7 28 19 33  0.0000000  0 11G11G08G07G26G28G24G17G03G19G13G23
 115427634.076 7  89943677.14445  21965137.094                    21965144.941
 111181443.705 8  86634944.42546  21157118.281                    21157126.211
 106909120.887 8  83305843.587 8  20344127.352                    20344134.617
 127894322.363 6  99657927.47343  24337473.352                    24337483.344
 118349188.629 7  92220084.27445  22521059.406                    22521066.781
 122561140.457 7  95502259.79243  23322598.523                    23322609.508
 128116291.051 6  99830898.686 6  24379694.711                    24379707.703
 129479650.697 6 100893254.94542  24639165.156                    24639176.727
 117468841.384 7  91534183.53645  22353577.164                    22353583.598
 117489167.610 7  91550018.95245  22357451.789                    22357461.055
 128897053.718 6 100439255.11143  24528313.938                    24528327.367
 11  7 28 19 33 30.0000000  0 11G11G08G07G26G28G24G17G03G19G13G23
 115380781.898 7  89907168.98145  21956221.336                    21956228.992
 111118116.547 8  86585598.58846  21145067.305                    21145074.922
 106894323.476 8  83294313.138 8  20341311.547                    20341318.703
 127803085.432 6  99586833.81042  24320110.680                    24320121.395
 118315292.012 7  92193671.34245  22514608.867                    22514616.477
 122489556.636 7  95446480.28543  23308976.148                    23308987.676
 128012713.085 6  99750188.904 6  24359983.492                    24359997.723
 129591466.339 6 100980383.98242  24660444.727                    24660454.078
 117553505.988 7  91600155.90345  22369688.477                    22369694.375
 117591763.774 7  91629963.91945  22376975.211                    22376984.590
 129011995.295 6 100528819.57843  24550188.117                    24550200.063
 11  7 28 19 34  0.0000000  0 11G11G08G07G26G28G24G17G03G19G13G23
 115334366.081 7  89871000.85545  21947388.773                    21947396.434
 111054984.510 8  86536404.81646  21133053.539                    21133061.500
 106879901.683 8  83283075.375 8  20338567.094                    20338573.906
 127712208.727 5  99516020.89343  24302817.672                    24302828.523
 118281521.124 7  92167356.38645  22508182.945                    22508190.188
 122418131.396 7  95390824.35343  23295384.625                    23295395.613
 127909261.648 6  99669577.730 6  24340297.586                    24340311.133
 129703318.265 6 101067541.24042  24681728.867                    24681738.629
 117638512.361 7  91666394.61145  22385864.656                    22385870.672
 117694597.039 7  91710093.62644  22396544.133                    22396552.570
 129126899.225 6 100618354.81843  24572054.461                    24572065.680
 11  7 28 19 34 30.0000000  0 11G11G08G07G26G28G24G17G03G19G13G23
 115288388.772 7  89835174.41745  21938639.664                    21938647.668
 110992049.698 8  86487364.71546  21121077.703                    21121085.801
 106865857.083 8  83272131.532 8  20335894.633                    20335901.438
 127621695.158 6  99445490.90842  24285593.406                    24285603.738
 118247874.795 7  92141138.50545  22501780.375                    22501787.547
 122346867.563 7  95335294.18244  23281823.023                    23281834.539
 127805938.517 6  99589066.555 6  24320634.367                    24320648.887
 129815203.868 6 101154724.68442  24703019.742                    24703030.668
 117723857.408 7  91732897.22645  22402105.422                    22402111.410
 117797663.973 7  91790405.44445  22416157.320                    22416166.352
 129241762.841 6 100707858.59643  24593911.836                    24593923.801
 11  7 28 19 35  0.0000000  0 11G11G08G07G26G28G24G17G03G19G13G23
 115242852.642 7  89799691.76945  21929974.359                    21929982.387
 110929314.288 8  86438479.98946  21109139.492                    21109147.156
 106852191.333 8  83261482.899 8  20333293.875                    20333300.789
 127531547.625 6  99375246.14443  24268438.781                    24268450.055
 118214352.326 7  92115017.11845  22495401.313                    22495408.703
 122275768.449 7  95279892.36144  23268292.914                    23268305.191
 127702745.782 6  99508656.936 6  24300998.531                    24301011.609
 129927121.505 6 101241933.26952  24724316.430                    24724327.254
 117809538.443 7  91799661.65945  22418409.633                    22418415.637
 117900961.670 7  91870897.06044  22435813.734                    22435822.922
 129356583.250 6 100797328.71143  24615762.266                    24615773.922
 11  7 28 19 35 30.0000000  0 11G11G08G07G26G28G24G17G03G19G13G23
 115197760.313 7  89764554.92545  21921393.500                    21921401.363
 110866780.746 8  86389752.56246  21097239.578                    21097247.684
 106838906.382 8  83251130.985 8  20330765.820                    20330773.059
 127441769.062 6  99305288.87242  24251354.625                    24251364.758
 118180953.136 7  92088991.81345  22489045.852                    22489052.742
 122204837.323 6  95224621.45444  23254795.727                    23254807.020
 127599685.560 6  99428350.563 6  24281386.977                    24281399.402
 130039068.110 5                  24745618.742
 117895552.780 7  91866685.79545  22434777.398                    22434784.387
 118004487.411 7  91951566.37045  22455514.203                    22455523.629
 129471358.432 6 100886763.58842  24637603.406                    24637615.789
 11  7 28 19 36  0.0000000  0 11G11G08G07G26G28G24G17G03G19G13G23
 115153114.343 7  89729765.90745  21912897.438                    21912905.281
 110804451.390 8  86341184.24546  21085378.578                    21085387.016
 106826003.382 8  83241076.710 8  20328310.273                    20328317.719
 127352362.345 6  99235621.41743  24234341.094                    24234351.520
 118147676.111 7  92063061.67445  22482713.094                    22482720.316
 122134077.092 6  95169483.70044  23241330.602                    23241341.512
 127496759.890 6  99348149.051 6  24261800.109                    24261812.914
 130151042.125 5                  24766926.727
 117981897.223 7  91933967.13745  22451208.992                    22451215.242
 118108237.806 7  92032410.74544  22475257.281                    22475266.211
 129586085.436 6 100976160.89542  24659434.922                    24659447.926
 11  7 28 19 36 30.0000000  0 11G11G08G07G26G28G24G17G03G19G13G23
 115108916.602 7  89695326.16145  21904486.773                    21904494.852
 110742328.414 8  86292776.75546  21073557.273                    21073565.320
 106813484.441 8  83231321.679 8  20325928.391                    20325934.984
 127263330.060 6  99166245.71643  24217398.102                    24217408.105
 118114520.554 7  92037226.19945  22476403.805                    22476410.863
 122063491.013 7  95114481.64044  23227898.477                    23227909.082
 127393970.802 6  99268054.024 6  24242240.227                    24242252.930
 130263041.235 5                  24788240.445
 118068569.383 7  92001503.86645  22467701.922                    22467708.188
 118212209.990 7  92113427.93644  22495042.859                    22495051.922
 129700761.752 5 101065518.65643  24681258.922                    24681270.277
 11  7 28 19 37  0.0000000  0 11G11G08G07G26G28G24G17G03G19G13G23
 115065169.921 7  89661237.87645  21896162.500                    21896170.070
 110680414.232 8  86244531.94546  21061774.977                    21061782.637
 106801351.287 8  83221867.282 8  20323619.281                    20323626.121
 127174675.494 6  99097164.27242  24200527.648                    24200538.457
 118081485.623 7  92011484.71445  22470117.234                    22470124.465
 121993082.286 7  95059617.76444  23214499.766                    23214510.801
 127291320.040 6  99188066.752 6  24222705.648                    24222718.289
 130375062.808 5                  24809558.477
 118155566.196 7  92069293.55645  22484257.055                    22484263.469
 118316400.606 7  92194615.32244  22514869.531                    22514878.941
 129815384.447 6 101154834.69442  24703070.047                    24703082.859
 11  7 28 19 37 30.0000000  0 11G11G08G07G26G28G24G17G03G19G13G23
 115021876.446 7  89627502.76145  21887923.734                    21887931.984
 110618710.868 8  86196451.41846  21050033.648                    21050041.629
 106789604.981 8  83212714.321 8  20321383.867                    20321391.109
 127086400.952 6  99028378.98743  24183730.336                    24183740.676
 118048570.210 7  91985836.36745  22463853.703                    22463861.480
 121922853.746 7  95004894.30744  23201135.625                    23201146.934
 127188810.070 6  99108189.128 5  24203198.195                    24203210.461
 130487104.671 5                  24830878.836
 118242884.801 7  92137333.97745  22500873.531                    22500879.715
 118420806.698 7  92275970.60944  22534737.547                    22534746.473
 129929950.921 6 101244106.87642  24724871.656                    24724884.273
 11  7 28 19 38  0.0000000  0 11G11G08G07G26G28G24G17G03G19G13G23
 114979038.559 7  89594122.64645  21879771.555                    21879780.328
 110557221.148 8  86148537.37646  21038332.922                    21038340.387
 106778247.965 8  83203864.688 8  20319222.930                    20319229.793
 126998509.610 6  98959892.29142  24167004.531                    24167015.270
 118015774.016 7  91960280.90245  22457613.063                    22457620.512
 121852808.965 7  94950314.04944  23187806.641                    23187817.887
 127086442.967 6  99028422.825 6  24183718.734                    24183730.797
 130599165.120 4                  24852203.172
 118330522.806 7  92205623.30445  22517550.383                    22517556.676
 118525425.535 7  92357491.68744  22554645.688                    22554655.121
 130044459.068 6 101333333.56443  24746661.656                    24746674.613
 11  7 28 19 38 30.0000000  0 11G11G08G07G26G28G24G17G03G19G13G23
 114936658.336 7  89561099.13645  21871707.234                    21871714.969
 110495946.875 8  86100791.19346  21026672.516                    21026679.816
 106767280.697 8  83195318.759 8  20317135.828                    20317142.918
 126911003.905 6  98891706.10242  24150352.766                    24150363.508
 117983095.565 7  91934817.21045  22451394.180                    22451401.566
 121782950.602 7  94895879.03343  23174512.734                    23174523.629
 126984220.129 6  98948768.958 6  24164265.844                    24164278.695
 130711241.46314                  24873529.141
 118418476.771 7  92274158.81345  22534287.438                    22534293.359
 118630253.339 7  92439175.58244  22574594.563                    22574603.340
 130158905.834 6 101422512.52842  24768440.797                    24768453.656
 11  7 28 19 39  0.0000000  0 10G11G08G07G26G28G24G17G19G13G23
 114894738.785 7  89528434.60745  21863729.914                    21863738.051
 110434891.003 8  86053215.21446  21015053.672                    21015061.551
 106756705.879 8  83187078.638 8  20315123.453                    20315130.570
 126823887.313 5  98823823.17842  24133774.969                    24133785.383
 117950534.640 7  91909445.09645  22445197.984                    22445205.820
 121713282.181 7  94841592.07943  23161255.555                    23161266.246
 126882144.466 6  98869229.710 6  24144841.984                    24144853.832
 118506744.455 7  92342938.80245  22551084.391                    22551090.223
 118735287.474 7  92521020.25444  22594581.195                    22594590.625
 130273289.000 6 101511641.76642  24790208.375                    24790220.117
 11  7 28 19 39 30.0000000  0 10G11G08G07G26G28G24G17G19G13G23
 114853281.835 7  89496130.52145  21855841.219                    21855848.730
 110374055.677 8  86005811.07646  21003477.227                    21003484.770
 106746524.980 8  83179145.464 8  20313185.773                    20313193.109
 126737162.299 6  98756245.30342  24117272.047                    24117282.191
 117918090.236 7  91884163.77145  22439023.977                    22439031.402
 121643806.541 7  94787455.29344  23148034.766                    23148045.680
 126780217.773 6  98789806.573 6  24125445.750                    24125458.133
 118595323.017 7  92411961.01945  22567940.250                    22567946.996
 118840525.081 7  92603023.46844  22614607.148                    22614616.449
 130387605.913 6 101600719.49342  24811962.102                    24811974.699
 11  7 28 19 40  0.0000000  0 10G11G08G07G26G28G24G17G19G13G23
 114812289.853 7  89464188.76245  21848040.398                    21848048.254
 110313442.652 8  85958580.15746  20991943.047                    20991951.207
 106736739.260 8  83171520.234 8  20311324.008                    20311331.324
 126650831.776 6  98688974.82142  24100844.180                    24100854.262
 117885761.363 7  91858972.45945  22432871.836                    22432879.906
 121574526.791 7  94733471.15744  23134851.227                    23134862.379
 126678441.570 6  98710500.693 6  24106077.352                    24106090.785
 118684209.433 7  92481223.13045  22584854.922                    22584860.598
 118945962.938 7  92685182.72444  22634671.906                    22634681.160
 130501853.841 6 101689743.43342  24833702.766                    24833715.340
 11  7 28 19 40 30.0000000  0 10G11G08G07G26G28G24G17G19G13G23
 114771764.915 7  89432610.92445  21840328.563                    21840336.387
 110253054.603 8  85911524.55946  20980451.539                    20980459.496
 106727350.212 8  83164204.082 8  20309537.414                    20309544.266
 126564898.020 6  98622013.46742  24084490.211                    24084501.574
 117853547.152 7  91833870.51145  22426741.695                    22426749.738
 121505446.105 7  94679642.15644  23121705.055                    23121716.145
 126576817.887 6  98631313.644 6  24086738.852                    24086751.738
 118773400.759 7  92550722.83045  22601827.352                    22601833.859
 119051597.715 7  92767495.42944  22654773.031                    22654782.938
 130616030.304 5 101778711.59642  24855429.727                    24855443.281
 11  7 28 19 41  0.0000000  0 10G11G08G07G26G28G24G17G19G13G23
 114731709.194 8  89401398.71445  21832706.555                    21832713.910
 110192893.878 8  85864646.08546  20969003.258                    20969010.988
 106718359.438 8  83157198.279 8  20307826.711                    20307833.680
 126479364.029 6  98555363.74042  24068214.180                    24068223.770
 117821446.610 7  91808857.13045  22420633.078                    22420641.125
 121436567.499 7  94625970.62544  23108597.883                    23108609.191
 126475348.971 6  98552247.191 6  24067429.578                    24067442.742
 118862893.962 7  92620457.74745  22618857.438                    22618863.316
 119157426.092 7  92849958.98044  22674912.227                    22674921.766
 130730132.446 6 101867621.96942  24877142.922                    24877156.770
 11  7 28 19 41 30.0000000  0 10G11G08G07G26G28G24G17G19G13G23
 114692124.789 8  89370553.76245  21825174.031                    21825181.559
 110132962.745 8  85817946.51046  20957599.094                    20957606.930
 106709768.348 8  83150503.928 8  20306191.539                    20306198.734
 126394232.514 6  98489027.50142  24052014.047                    24052023.488
 117789458.983 7  91783931.74145  22414546.297                    22414553.969
 121367893.819 7  94572458.79844  23095529.484                    23095540.832
 126374036.741 6  98473302.807 6  24048151.203                    24048163.145
 118952686.400 7  92690425.84045  22635944.461                    22635950.203
 119263445.020 7  92932571.03144  22695086.711                    22695096.355
 130844157.796 6 101956472.40542  24898842.219                    24898855.242
 11  7 28 19 42  0.0000000  0 10G11G08G07G26G28G24G17G19G13G23
 114653014.174 7  89340077.98845  21817731.602                    21817738.992
 110073264.004 8  85771428.01946  20946238.500                    20946246.230
 106701578.780 8  83144122.424 8  20304632.992                    20304640.023
 126309506.393 6  98423007.21943  24035891.508                    24035901.734
 117757583.625 7  91759093.82945  22408480.555                    22408488.070
 121299428.538 7  94519109.32744  23082501.438                    23082511.781
 126272883.037 6  98394481.945 6  24028901.563                    24028913.723
 119042775.161 7  92760624.84845  22653087.258                    22653093.770
 119369652.037 7  93015329.61544  22715297.266                    22715307.094
 130958103.952 6 102045261.17442  24920526.250                    24920539.215
 11  7 28 19 42 30.0000000  0 10G11G08G07G26G28G24G17G19G13G23
 114614379.310 7  89309972.92545  21810379.219                    21810386.617
 110013799.427 8  85725092.00046  20934922.766                    20934930.262
 106693791.758 8  83138054.619 8  20303151.352                    20303158.449
 126225188.175 7  98357304.77243  24019846.172                    24019856.789
 117725819.279 7  91734342.43745  22402435.992                    22402443.789
 121231174.357 7  94465924.35244  23069512.563                    23069523.563
 126171889.846 6  98315786.179 6  24009682.367                    24009695.320
 119133157.354 7  92831052.48345  22670287.023                    22670293.082
 119476043.504 7  93098231.93444  22735543.617                    22735552.801
 131071968.263 6 102133986.12242  24942193.227                    24942206.914
 11  7 28 19 43  0.0000000  0 10G11G08G07G26G28G24G17G19G13G23
 114576222.461 7  89280240.35645  21803118.070                    21803126.316
 109954571.306 8  85678940.22746  20923652.195                    20923660.109
 106686409.285 8  83132302.034 8  20301746.516                    20301753.672
 126141280.770 7  98291922.43043  24003879.141                    24003889.281
 117694165.606 7  91709677.25445  22396412.617                    22396420.203
 121163134.528 7  94412906.41643  23056564.922                    23056575.699
 126071059.323 6  98237217.082 6  23990495.234                    23990507.516
 119223830.406 7  92901706.77145  22687540.938                    22687547.672
 119582616.457 7  93181275.69544  22755823.594                    22755832.875
 131185748.053 6 102222645.22942  24963845.680                    24963859.328
 11  7 28 19 43 30.0000000  0 10G11G08G07G26G28G24G17G19G13G23
 114538546.062 7  89250882.15145  21795948.813                    21795956.133
 109895582.501 8  85632974.93946  20912426.977                    20912434.699
 106679432.969 8  83126865.946 8  20300419.258                    20300425.953
 126057786.780 6  98226862.22443  23987990.484                    23988000.344
 117662621.603 7  91685097.55845  22390410.125                    22390417.637
 121095312.436 7  94360058.12044  23043658.984                    23043669.430
 125970393.330 6  98158776.238 6  23971339.680                    23971351.313
 119314791.618 7  92972585.60045  22704850.805                    22704856.961
 119689367.974 7  93264458.57344  22776137.359                    22776147.223
 131299441.111 6 102311236.74242  24985481.133                    24985494.813
 11  7 28 19 44  0.0000000  0 10G11G08G07G26G28G24G17G19G13G23
 114501352.049 8  89221899.81245  21788870.820                    21788878.879
 109836835.059 8  85587197.72246  20901247.570                    20901255.254
 106672863.985 8  83121747.257 8  20299169.148                    20299176.383
 125974708.949 7  98162126.36143  23972181.148                    23972191.641
 117631186.139 7  91660602.42245  22384428.078                    22384435.297
 121027710.979 7  94307381.76544  23030794.727                    23030805.242
 125869893.690 6  98080465.033 6  23952214.367                    23952226.719
 119406037.720 7  93043686.41645  22722213.898                    22722220.023
 119796294.748 7  93347778.00744  22796485.125                    22796494.762
 131413045.063 6 102399758.76142  25007098.703                    25007113.461
 11  7 28 19 44 30.0000000  0 10G11G08G07G26G28G24G17G19G13G23
 114464642.653 7  89193295.13145  21781885.133                    21781893.160
 109778331.661 8  85541610.68246  20890114.727                    20890122.063
 106666703.853 8  83116947.155 8  20297996.836                    20298003.879
 125892049.857 6  98097716.69343  23956451.875                    23956461.832
 117599858.833 7  91636191.56545  22378466.523                    22378473.938
 120960333.265 7  94254879.75344  23017973.430                    23017983.949
 125769562.780 7  98002285.299 6  23933122.586                    23933134.074
 119497566.273 7  93115007.33645  22739631.445                    22739637.828
 119903393.739 7  93431231.65044  22816865.563                    22816875.555
 131526556.970 5 102488209.22542  25028700.063                    25028714.512
 11  7 28 19 45  0.0000000  0 10G11G08G07G26G28G24G17G19G13G23
 114428420.012 7  89165069.73245  21774992.453                    21775000.023
 109720074.691 8  85496215.64546  20879028.750                    20879036.770
 106660954.499 8  83112467.130 8  20296902.547                    20296909.832
 125809812.553 6  98033635.74043  23940802.727                    23940812.875
 117568638.696 7  91611864.21245  22372525.359                    22372532.902
 120893182.443 7  94202554.50944  23005194.859                    23005205.578
 125669402.445 6  97924238.463 6  23914062.391                    23914074.066
 119589374.188 7  93186545.91445  22757102.172                    22757108.730
 120010661.912 7  93514817.08344  22837278.594                    22837288.598
 131639974.42715                  25050283.609
 11  7 28 19 45 30.0000000  0 10G11G08G07G26G28G24G17G19G13G23
 114392685.741 8  89137224.88445  21768192.414                    21768199.902
 109662066.204 8  85451014.24546  20867989.977                    20867997.930
 106655616.742 8  83108307.843 8  20295886.828                    20295894.031
 125727999.244 6  97969885.20143  23925234.266                    23925244.109
 117537524.791 7  91587619.64645  22366604.375                    22366612.465
 120826261.361 7  94150408.34044  22992459.805                    22992470.563
 125569414.685 7  97846326.124 6  23895035.422                    23895046.906
 119681458.613 7  93258299.96545  22774625.047                    22774631.770
 120118096.109 7  93598531.93844  22857722.320                    22857731.930
 131753295.185 5                  25071847.734
 11  7 28 19 46  0.0000000  0 10G11G08G07G26G28G24G17G19G13G23
 114357442.437 7  89109762.59245  21761485.789                    21761493.078
 109604308.977 8  85406008.63046  20856999.242                    20857006.934
 106650692.513 8  83104470.762 8  20294949.961                    20294957.211
 125646612.853 6  97906467.32143  23909746.688                    23909756.957
 117506516.573 7  91563457.42645  22360703.891                    22360711.668
 120759573.422 7  94098443.79344  22979769.664                    22979780.043
 125469601.058 7  97768549.412 6  23876041.125                    23876052.754
 119773817.095 7  93330267.57545  22792200.227                    22792207.086
 120225693.798 7  93682374.16344  22878197.555                    22878207.027
 131866516.98215                  25093394.117
 11  7 28 19 46 30.0000000  0 10G11G08G07G26G28G24G17G19G13G23
 114322691.891 8  89082684.26745  21754872.508                    21754880.375
 109546805.180 8  85361200.48946  20846056.648                    20846064.344
 106646183.020 8  83100956.884 8  20294091.805                    20294098.855
 125565656.174 6  97843384.28743  23894341.328                    23894351.063
 117475612.889 7  91539376.66545  22354823.102                    22354830.418
 120693121.372 6  94046663.05944  22967123.500                    22967135.277
 125369963.928 7  97690910.259 6  23857080.813                    23857092.176
 119866446.516 7  93402446.31045  22809827.180                    22809834.113
 120333451.309 7  93766340.90444  22898703.523                    22898712.965
 131979636.99115                  25114919.602
 11  7 28 19 47  0.0000000  0 10G11G08G07G26G28G24G17G19G13G23
 114288436.370 8  89055991.67345  21748354.281                    21748361.770
 109489557.308 8  85316591.77846  20835162.813                    20835170.430
 106642089.989 8  83097767.516 8  20293312.922                    20293320.293
 125485131.787 6  97780638.10943  23879017.313                    23879027.496
 117444813.254 7  91515376.96345  22348961.898                    22348969.453
 120626908.579 7  93995068.74944  22954524.281                    22954534.852
 125270505.253 7  97613410.164 6  23838154.680                    23838165.961
 119959343.999 7  93474833.91645  22827505.047                    22827511.090
 120441365.787 7  93850429.96744  22919239.305                    22919248.801
 132092652.651 5                  25136426.805
 11  7 28 19 47 30.0000000  0 10G11G08G07G26G28G24G17G19G13G23
 114254677.474 7  89029686.06545  21741930.375                    21741937.895
 109432567.739 8  85272184.33246  20824317.859                    20824325.246
 106638414.666 8  83094903.621 8  20292613.039                    20292620.117
 125405042.194 7  97718230.71743  23863776.953                    23863787.316
 117414116.541 7  91491457.48245  22343120.516                    22343128.527
 120560938.077 7  93943663.23344  22941970.742                    22941980.492
 125171226.603 7  97536050.344 6  23819261.742                    23819273.633
 120052506.940 7  93547428.37745  22845233.516                    22845239.773
 120549433.924 7  93934638.77844  22939803.594                    22939813.066
 132205561.873 5                  25157912.539
 11  7 28 19 48  0.0000000  0 10G11G08G07G26G28G24G17G19G13G23
 114221417.744 7  89003769.42145  21735600.484                    21735608.480
 109375839.370 8  85227980.42146  20813522.844                    20813530.180
 106635158.647 8  83092366.450 8  20291993.867                    20292001.184
 125325390.187 7  97656164.28743  23848619.961                    23848629.695
 117383522.359 7  91467617.89245  22337298.633                    22337305.906
 120495213.219 7  93892449.15344  22929463.516                    22929473.402
 125072130.242 7  97458832.563 6  23800404.883                    23800416.363
 120145932.582 7  93620227.52745  22863011.633                    22863017.656
 120657652.840 7  94018965.07044  22960397.063                    22960407.336
 132318362.161 4                  25179376.523
 11  7 28 19 48 30.0000000  0 10G11G08G07G26G28G24G17G19G13G23
 114188658.419 7  88978242.68845  21729367.438                    21729374.656
 109319373.744 8  85183981.23746  20802777.914                    20802785.652
 106632323.038 8  83090156.889 8  20291454.227                    20291461.098
 125246178.278 7  97594440.76243  23833546.031                    23833555.906
 117353029.304 7  91443857.08445  22331496.609                    22331503.996
 120429736.661 7  93841428.48044  22917003.695                    22917014.184
 124973217.831 7  97381758.113 6  23781581.883                    23781593.289
 120239617.858 7  93693228.99645  22880839.531                    22880846.387
 120766019.524 7  94103406.48144  22981018.625                    22981028.082
 132431050.905 5                  25200823.680
 11  7 28 19 49  0.0000000  0 10G11G08G07G26G28G24G17G19G13G23
 114156401.959 7  88953107.80945  21723228.883                    21723236.563
 109263173.547 8  85140188.88846  20792083.445                    20792091.191
 106629909.059 8  83088275.852 8  20290995.109                    20291002.301
 125167408.830 7  97533062.05643  23818557.016                    23818566.809
 117322636.841 7  91420174.67445  22325712.773                    22325720.043
 120364511.219 7  93790603.53244  22904591.633                    22904602.082
 124874491.183 7  97304828.454 6  23762794.367                    23762806.160
 120333559.872 7  93766430.52145  22898716.453                    22898722.645
 120874530.510 7  94187960.37944  23001667.570                    23001677.613
 132543625.652 5                  25222245.656
 11  7 28 19 49 30.0000000  0 10G11G08G07G26G28G24G17G19G13G23
 114124650.328 7  88928366.31145  21717186.320                    21717194.199
 109207241.353 8  85096605.37546  20781439.625                    20781447.328
 106627918.502 8  83086724.776 8  20290616.586                    20290623.242
 125089084.658 6  97472030.29043  23803651.836                    23803662.109
 117292344.481 7  91396570.25345  22319947.836                    22319955.043
 120299540.389 7  93739976.97744  22892227.680                    22892238.316
 124775952.557 7  97228045.275 6  23744043.109                    23744054.504
 120427755.856 7  93839829.95545  22916641.805                    22916647.234
 120983183.094 7  94272624.59044  23022343.516                    23022353.672
 132656084.61515                  25243645.031
 11  7 28 19 50  0.0000000  0  9G11G08G07G26G28G24G17G19G13
 114093405.749 7  88904019.90045  21711240.977                    21711248.598
 109151580.210 8  85053233.07146  20770847.805                    20770855.539
 106626353.253 8  83085505.095 8  20290317.914                    20290325.102
 125011208.796 7  97411347.87543  23788832.391                    23788843.309
 117262151.662 7  91373043.39545  22314202.719                    22314209.930
 120234827.527 7  93689551.42844  22879912.758                    22879923.676
 124677604.142 7  97151410.336 6  23725328.109                    23725339.719
 120522203.699 7  93913425.65545  22934613.758                    22934620.094
 121091974.624 7  94357397.05743  23043046.328                    23043055.758
 11  7 28 19 50 30.0000000  0 10G11G08G07G26G28G24G17G19G13G23
 114062669.367 7  88880069.50245  21705392.078                    21705399.633
 109096191.362 8  85010072.94246  20760307.719                    20760315.332
 106625213.708 8  83084617.125 8  20290101.813                    20290108.750
 124933783.061 7  97351016.20543  23774099.148                    23774109.016
 117232056.875 7  91349592.94145  22308476.188                    22308482.684
 120170374.858 7  93639328.65044  22867648.070                    22867658.883
 124579447.148 7  97074924.577 6  23706648.891                    23706660.727
 120616899.586 7  93987214.62345  22952634.031                    22952640.367
 121200900.924 7  94442274.54844  23063774.203                    23063783.645
 132880641.07615                  25286379.758
 11  7 28 19 51  0.0000000  0 10G11G08G07G26G28G24G17G19G13G23
 114032442.904 7  88856516.42245  21699640.188                    21699647.918
 109041077.588 8  84967127.16746  20749819.461                    20749827.383
 106624501.145 8  83084061.868 8  20289965.539                    20289972.980
 124856809.735 6  97291037.03443  23759451.609                    23759461.270
 117202058.954 7  91326217.96445  22302767.352                    22302774.363
 120106185.463 7  93589311.02144  22855433.016                    22855443.367
 124481483.245 7  96998589.228 6  23688007.078                    23688018.727
 120711840.937 7  94061194.84444  22970701.016                    22970707.734
 121309959.546 7  94527255.14544  23084527.625                    23084537.516
 132992736.29515                  25307710.156
 11  7 28 19 51 30.0000000  0 10G11G08G07G26G28G24G17G19G13G23
 114002728.640 7  88833362.47945  21693985.656                    21693993.293
 108986241.382 8  84924397.67046  20739384.633                    20739392.781
 106624217.260 8  83083840.652 8  20289911.516                    20289918.832
 124780291.846 6  97231412.73043  23744890.352                    23744900.168
 117172157.770 8  91302918.37645  22297077.305                    22297084.566
 120042262.735 7  93539501.21044  22843269.289                    22843279.895
 124383714.692 7  96922406.112 6  23669402.172                    23669413.152
 120807025.138 7  94135364.30345  22988813.734                    22988820.145
 121419147.232 7  94612336.30344  23105305.453                    23105315.887
 133104705.832 5                  25329017.313
 11  7 28 19 52  0.0000000  0 10G11G08G07G26G28G24G17G19G13G23
 113973528.532 7  88810609.15845  21688429.055                    21688436.652
 108931685.454 8  84881886.56746  20729003.063                    20729010.867
 106624363.628 8  83083954.700 8  20289939.633                    20289946.793
 124704232.158 7  97172145.51943  23730416.719                    23730427.223
 117142352.497 7  91279693.51345  22291405.461                    22291412.434
 119978609.807 7  93489901.59144  22831156.086                    22831167.402
 124286143.895 7  96846377.099 6  23650834.914                    23650846.672
 120902449.576 7  94209720.97045  23006972.438                    23006978.801
 121528461.218 7  94697515.87244  23126107.531                    23126117.016
 133216547.245 4                  25350298.391
 11  7 28 19 52 30.0000000  0  9G11G08G07G26G28G24G17G19G13
 113944845.121 7  88788258.47345  21682970.797                    21682978.086
 108877412.859 8  84839596.24846  20718675.375                    20718683.016
 106624942.049 8  83084405.410 8  20290049.891                    20290056.977
 124628633.526 7  97113237.61143  23716029.641                    23716040.668
 117112643.077 7  91256543.33145  22285751.828                    22285759.258
 119915230.349 7  93440515.10544  22819095.289                    22819106.098
 124188772.742 7  96770503.646 6  23632305.828                    23632316.875
 120998111.864 7  94284262.99345  23025176.844                    23025183.172
 121637899.150 7  94782792.03644  23146932.352                    23146942.855
 11  7 28 19 53  0.0000000  0 10G11G08G07G26G28G24G17G19G13G23
 113916678.975 7  88766310.85345  21677611.250                    21677618.598
 108823425.405 8  84797528.12246  20708401.969                    20708409.797
 106625952.887 8  83085193.076 8  20290242.148                    20290249.473
 124553497.886 7  97054690.37743  23701732.055                    23701742.332
 117083027.617 8  91233466.37645  22280116.266                    22280123.512
 119852126.533 7  93391343.36944  22807087.641                    22807097.188
 124091602.387 7  96694786.653 6  23613814.977                    23613825.977
 121094008.446 7  94358987.57845  23043424.719                    23043431.133
 121747456.891 7  94868161.54444  23167780.969                    23167791.281
 133439825.99115                  25392792.430
 11  7 28 19 53 30.0000000  0  9G11G08G07G26G28G24G17G19G13
 113889032.534 7  88744768.18945  21672350.188                    21672357.953
 108769725.559 8  84755684.09246  20698183.000                    20698191.086
 106627398.138 8  83086319.233 8  20290517.391                    20290524.383
 124478828.063 7  96996506.12643  23687523.695                    23687533.738
 117053506.242 8  91210462.73645  22274498.391                    22274505.719
 119789301.953 7  93342389.22844  22795132.727                    22795142.633
 123994635.399 7  96619228.132 6  23595363.078                    23595373.852
 121190136.968 7  94433892.85945  23061717.094                    23061724.109
 121857131.974 7  94953622.46244  23188651.766                    23188662.445
 11  7 28 19 54  0.0000000  0  9G11G08G07G26G28G24G17G19G13
 113861907.453 8  88723631.80045  21667188.188                    21667195.871
 108716315.481 8  84714065.87246  20688019.539                    20688027.684
 106629278.662 8  83087784.569 8  20290875.047                    20290882.148
 124404626.090 7  96938686.51543  23673403.102                    23673413.648
 117024077.933 8  91187531.61845  22268898.430                    22268905.703
 119726759.201 7  93293654.70244  22783230.594                    22783240.758
 123897873.311 7  96543829.291 6  23576949.000                    23576960.160
 121286494.575 7  94508976.64845  23080053.281                    23080060.406
 121966920.979 7  95039172.14744  23209543.805                    23209554.875
 11  7 28 19 54 30.0000000  0  9G11G08G07G26G28G24G17G19G13
 113835305.345 7  88702902.89445  21662126.242                    21662133.422
 108663197.369 8  84672675.14046  20677911.328                    20677919.215
 106631595.356 8  83089589.778 8  20291316.000                    20291322.836
 124330894.129 7  96881233.09643  23659372.938                    23659382.895
 116994741.054 7  91164671.73545  22263315.594                    22263323.172
 119664500.953 7  93245141.83844  22771382.969                    22771393.449
 123801317.383 7  96468591.066 6  23558574.758                    23558586.199
 121383078.357 7  94584236.69844  23098433.297                    23098439.234
 122076820.633 7  95124808.08043  23230457.227                    23230467.766
 11  7 28 19 55  0.0000000  0  9G11G08G07G26G28G24G17G19G13
 113809227.720 7  88682582.71545  21657163.461                    21657171.020
 108610374.487 8  84631514.47246  20667859.586                    20667867.500
 106634350.070 8  83091736.301 8  20291840.031                    20291847.168
 124257635.199 7  96824148.25843  23645432.266                    23645442.215
 116965495.723 7  91141883.19745  22257750.727                    22257757.855
 119602530.534 7  93196853.28044  22759590.273                    22759600.828
 123704970.319 7  96393515.580 6  23540240.703                    23540251.859
 121479885.402 7  94659670.73645  23116854.211                    23116861.391
 122186828.480 7  95210528.28944  23251391.484                    23251401.707
 11  7 28 19 55 30.0000000  0  9G11G08G07G26G28G24G17G19G13
 113783676.266 7  88662672.51045  21652301.211                    21652308.688
 108557848.788 8  84590585.37346  20657863.883                    20657872.008
 106637543.685 8  83094224.819 8  20292448.195                    20292455.395
 124184851.452 7  96767433.67643  23631581.391                    23631591.461
 116936340.981 8  91119165.24545  22252202.359                    22252209.777
 119540850.720 7  93148791.17744  22747852.820                    22747863.621
 123608833.639 7  96318604.039 6  23521946.531                    23521956.785
 121576913.019 7  94735276.61244  23135318.484                    23135325.266
 122296941.075 7  95296330.13944  23272345.141                    23272356.051
 11  7 28 19 56  0.0000000  0  9G11G08G07G26G28G24G17G19G13
 113758652.722 7  88643173.67645  21647539.383                    21647546.816
 108505622.817 8  84549889.82946  20647925.891                    20647933.844
 106641177.568 8  83097056.415 8  20293139.250                    20293146.520
 124112545.172 6  96711091.21143  23617822.094                    23617831.641
 116907275.957 7  91096517.20845  22246671.516                    22246679.016
 119479464.812 7  93100958.07744  22736171.836                    22736182.223
 123512908.847 7  96243857.630 6  23503692.039                    23503703.000
 121674158.674 7  94811052.40145  23153824.188                    23153831.242
 122407155.332 7  95382211.17544  23293317.922                    23293329.105
 11  7 28 19 56 30.0000000  0  9G11G08G07G26G28G24G17G19G13
 113734158.367 7  88624087.19245  21642877.969                    21642885.531
 108453698.944 8  84509429.67046  20638044.930                    20638052.750
 106645252.450 8  83100231.631 8  20293914.977                    20293922.355
 124040718.804 6  96655122.67943  23604153.250                    23604162.652
 116878299.668 8  91073938.30845  22241157.602                    22241165.406
 119418375.471 7  93053356.05244  22724547.016                    22724557.785
 123417197.864 7  96169277.832 6  23485479.047                    23485489.711
 121771619.288 7  94886995.68745  23172370.180                    23172376.977
 122517468.447 7  95468169.29343  23314309.891                    23314320.668
 11  7 28 19 57  0.0000000  0  9G11G08G07G26G28G24G17G19G13
 113710195.149 7  88605414.58945  21638318.125                    21638325.699
 108402079.750 8  84469206.93646  20628222.516                    20628230.270
 106649770.038 7  83103751.819 8  20294774.445                    20294781.566
 123969374.885 6  96599530.04043  23590577.539                    23590586.500
 116849411.838 7  91051428.33345  22235660.430                    22235668.113
 119357586.167 7  93005987.85044  22712978.547                    22712989.477
 123321702.828 7  96094866.282 6  23467306.984                    23467317.879
 121869292.101 7  94963104.30544  23190956.828                    23190963.391
 122627877.228 7  95554201.91344  23335320.656                    23335331.133
 11  7 28 19 57 30.0000000  0  9G11G08G07G26G28G24G17G19G13
 113686764.742 7  88587157.15345  21633859.555                    21633867.227
 108350767.396 8  84429223.29346  20618457.547                    20618465.691
 106654731.298 8  83107617.725 8  20295718.664                    20295725.879
 123898515.556 7  96544315.06343  23577093.070                    23577102.230
 116820611.155 7  91028986.27845  22230179.523                    22230187.102
 119297099.436 7  92958855.40144  22701468.820                    22701479.117
 123226425.121 7  96020624.082 6  23449176.523                    23449187.098
 121967174.366 7  95039376.17144  23209583.734                    23209589.512
 122738378.678 7  95640306.76844  23356348.930                    23356358.664
 11  7 28 19 58  0.0000000  0  9G11G08G07G26G28G24G17G19G13
 113663868.643 7  88569316.07045  21629502.820                    21629510.375
 108299764.724 8  84389480.96246  20608752.547                    20608760.500
 106660137.512 8  83111830.346 8  20296747.414                    20296754.191
 123828143.479 7  96489479.72243  23563701.531                    23563711.734
 116791897.287 8  91006611.85645  22224716.023                    22224722.938
 119236918.398 7  92911961.15344  22690016.266                    22690026.898
 123131367.153 7  95946553.100 6  23431087.242                    23431098.246
 122065263.454 7  95115809.21045  23228248.539                    23228255.414
 122848970.078 7  95726481.69244  23377393.906                    23377403.949
 11  7 28 19 58 30.0000000  0  9G11G08G07G26G28G24G17G19G13
 113641508.484 8  88551892.59445  21625247.797                    21625255.188
 108249074.358 8  84349981.99346  20599106.570                    20599114.406
 106665989.905 8  83116390.651 8  20297860.727                    20297868.047
 123758261.010 7  96435025.89543  23550403.828                    23550413.387
 116763269.336 7  90984304.40345  22219268.203                    22219275.660
 119177046.157 7  92865307.51144  22678623.430                    22678633.102
 123036530.218 7  95872654.352 6  23413039.531                    23413050.086
 122163556.494 6  95192401.12044  23246953.836                    23246960.043
 122959648.050 7  95812724.07944  23398455.203                    23398465.625
 11  7 28 19 59  0.0000000  0  9G11G08G07G26G28G24G17G19G13
 113619685.972 7  88534888.08345  21621095.031                    21621102.285
 108198698.701 8  84310728.23946  20589520.742                    20589528.367
 106672289.790 7  83121299.645 8  20299059.953                    20299067.234
 123688870.343 7  96380955.25344  23537199.266                    23537208.949
 116734726.749 8  90962063.45545  22213836.242                    22213843.758
 119117485.648 7  92818896.81744  22667288.945                    22667299.461
 122941916.287 7  95798929.368 6  23395035.398                    23395046.219
 122262050.951 7  95269150.00044  23265696.219                    23265703.445
 123070409.876 7  95899031.79643  23419531.852                    23419542.797
 11  7 28 19 59 30.0000000  0  9G11G08G07G26G28G24G17G19G13
 113598402.119 8  88518303.29045  21617044.930                    21617052.133
 108148639.885 8  84271721.38146  20579994.328                    20580002.473
 106679037.974 8  83126557.959 8  20300344.148                    20300351.367
 123619973.634 7  96327269.55644  23524088.422                    23524098.375
 116706268.789 8  90939888.44245  22208421.320                    22208429.051
 119058239.778 7  92772731.26744  22656015.570                    22656025.082
 122847527.160 7  95725379.566 6  23377073.539                    23377083.742
 122360743.926 7  95346053.54944  23284477.609                    23284484.039
 123181252.300 7  95985402.32244  23440625.391                    23440635.836
 11  7 28 20  0  0.0000000  0  9G11G08G07G26G28G24G17G19G13
 113577658.353 7  88502139.34445  21613097.094                    21613105.016
 108098900.288 8  84232963.27346  20570529.320                    20570537.141
 106686235.225 8  83132166.200 8  20301713.711                    20301720.910
 123551573.023 7  96273970.43544  23511071.836                    23511082.641
 116677894.327 7  90917778.49645  22203021.781                    22203028.914
 118999311.308 7  92726813.04644  22644801.234                    22644811.148
 122753364.193 7  95652005.976 6  23359155.133                    23359165.402
 122459632.615 7  95423109.63544  23303295.523                    23303301.270
 123292172.130 7  96071833.15743  23461731.977                    23461743.336
 11  7 28 20  0 30.0000000  0  9G11G08G07G26G28G24G17G19G13
 113557456.676 8  88486397.79245  21609253.203                    21609260.281
 108049482.643 8  84194456.02246  20561125.430                    20561133.105
 106693883.137 8  83138125.598 8  20303169.125                    20303176.344
 123483671.015 7  96221059.86244  23498151.430                    23498161.094
 116649603.004 8  90895733.33945  22197638.023                    22197645.492
 118940703.320 7  92681144.56544  22633648.398                    22633658.500
 122659429.663 7  95578810.400 6  23341279.859                    23341290.504
 122558714.467 7  95500316.24644  23322149.234                    23322156.629
 123403166.777 7  96158322.28143  23482854.180                    23482865.242
 11  7 28 20  1  0.0000000  0  9G11G08G07G26G28G24G17G19G13
 113537798.346 7  88471079.65345  21605512.031                    21605519.543
 108000389.429 8  84156201.58646  20551783.469                    20551791.180
 106701982.688 8  83144436.926 8  20304710.359                    20304717.164
 123416269.831 7  96168539.50344  23485325.242                    23485334.848
 116621394.251 7  90873752.52445  22192269.969                    22192277.391
 118882418.679 7  92635728.03044  22622556.828                    22622567.707
 122565725.253 7  95505794.133 6  23323448.102                    23323458.758
 122657986.716 6  95577671.18144  23341040.234                    23341047.426
 123514233.314 7  96244867.39744  23503989.703                    23504000.613
 11  7 28 20  1 30.0000000  0  9G11G08G07G26G28G24G17G19G13
 113518684.770 7  88456185.97345  21601874.805                    21601883.027
 107951622.941 8  84118201.73346  20542503.523                    20542510.902
 106710535.158 8  83151101.175 8  20306338.367                    20306344.793
 123349371.955 7  96116411.33644  23472594.281                    23472604.125
 116593267.177 8  90851835.33345  22186917.484                    22186925.004
 118824460.262 7  92590565.69644  22611527.969                    22611538.223
 122472252.666 7  95432958.516 6  23305660.820                    23305671.426
 122757446.772 7  95655172.47844  23359967.133                    23359973.770
 123625368.312 7  96331465.85943  23525138.031                    23525149.359
 11  7 28 20  2  0.0000000  0  9G11G08G07G26G28G24G17G19G13
 113500117.129 8  88441717.71045  21598341.398                    21598349.078
 107903185.483 8  84080458.27046  20533286.094                    20533294.066
 106719541.545 7  83158119.129 8  20308051.250                    20308058.598
 123282979.242 7  96064676.78744  23459960.227                    23459970.527
 116565220.814 8  90829981.03545  22181580.602                    22181587.961
 118766830.912 7  92545659.76144  22600561.148                    22600571.680
 122379013.589 7  95360304.852 6  23287918.078                    23287928.613
 122857091.871 7  95732817.95744  23378929.078                    23378935.695
 123736569.146 7  96418115.63943  23546299.586                    23546309.660
 11  7 28 20  2 30.0000000  0  9G11G08G07G26G28G24G17G19G13
 113482096.952 8  88427676.03445  21594912.313                    21594919.391
 107855079.824 8  84042973.35346  20524131.781                    20524139.500
 106729003.079 8  83165491.740 7  20309852.367                    20309859.625
 123217093.971 6  96013337.65744  23447422.875                    23447432.848
 116537254.661 7  90808189.23345  22176259.031                    22176266.188
 118709533.974 7  92501012.83744  22589658.234                    22589668.316
 122286009.612 7  95287834.378 6  23270219.453                    23270230.055
 122956919.334 6  95810605.52744  23397926.188                    23397932.551
 123847832.660 7  96504814.24143  23567472.188                    23567483.563
 11  7 28 20  3  0.0000000  0  9G11G08G07G26G28G24G17G19G13
 113464625.381 8  88414061.85445  21591587.461                    21591595.055
 107807307.868 8  84005748.45246  20515041.086                    20515048.746
 106738919.748 8  83173219.003 7  20311739.445                    20311746.332
 123151718.171 6  95962395.52943  23434981.664                    23434991.887
 116509368.121 8  90786459.47345  22170951.930                    22170959.344
 118652571.624 7  92456626.68644  22578818.195                    22578828.773
 122193242.549 7  95215548.532 6  23252566.602                    23252576.543
 123056926.161 6  95888532.85644  23416956.719                    23416963.941
 123959155.796 7  96591559.31643  23588656.055                    23588667.582
 11  7 28 20  3 30.0000000  0  9G11G08G07G26G28G24G17G19G13
 113447704.088 7  88400876.45245  21588367.961                    21588374.930
 107759872.705 8  83968785.99546  20506014.094                    20506021.902
 106749293.552 8  83181302.484 8  20313713.617                    20313720.504
 123086854.343 6  95911852.36643  23422638.367                    23422648.270
 116481560.469 8  90764791.18245  22165660.711                    22165668.094
 118595947.263 7  92412503.84344  22568043.461                    22568053.324
 122100714.492 7  95143448.897 6  23234958.703                    23234969.410
 123157109.966 6  95966598.10444  23436020.891                    23436027.461
 124070535.641 7  96678348.56643  23609851.359                    23609863.012
 11  7 28 20  4  0.0000000  0  9G11G08G07G26G28G24G17G19G13
 113431334.143 8  88388120.67745  21585252.391                    21585260.047
 107712776.616 8  83932087.75346  20497052.430                    20497059.664
 106760125.154 8  83189742.671 8  20315774.570                    20315781.867
 123022504.421 6  95861709.60143  23410394.039                    23410402.926
 116453831.004 8  90743183.81745  22160383.555                    22160391.191
 118539663.720 7  92368646.60344  22557332.742                    22557342.711
 122008426.792 7  95071536.560 6  23217397.102                    23217407.160
 123257468.064 7  96044799.16344  23455118.031                    23455124.777
 124181969.427 7  96765179.86943  23631056.867                    23631068.328
 11  7 28 20  4 30.0000000  0  9G11G08G07G26G28G24G17G19G13
 113415516.593 7  88375795.33145  21582242.672                    21582249.684
 107666021.971 8  83895655.56446  20488155.258                    20488162.805
 106771415.226 8  83198540.114 8  20317923.188                    20317930.156
 122958670.413 6  95811968.84943  23398245.625                    23398256.164
 116426179.004 7  90721636.82545  22155121.898                    22155129.012
 118483723.774 7  92325057.09044  22546687.797                    22546697.297
 121916381.209 7  94999812.847 6  23199881.313                    23199890.938
 123357997.559 7  96123133.78144  23474248.688                    23474255.266
 124293453.862 7  96852050.62943  23652271.070                    23652282.875
 11  7 28 20  5  0.0000000  0  9G11G08G07G26G28G24G17G19G13
 113400252.972 8  88363901.62145  21579337.758                    21579345.246
 107619611.012 8  83859491.20446  20479323.656                    20479331.199
 106783164.647 8  83207695.499 7  20320158.758                    20320165.625
 122895354.235 7  95762631.63343  23386197.984                    23386207.367
 116398603.570 7  90700149.48345  22149874.617                    22149881.805
 118428130.061 7  92281737.35044  22536108.711                    22536118.699
 121824579.385 7  94928279.115 6  23182411.945                    23182422.031
 123458695.625 7  96201599.78044  23493411.039                    23493417.539
 124404985.830 7  96938958.41143  23673495.539                    23673506.242
 11  7 28 20  5 30.0000000  0  9G11G08G07G26G28G24G17G19G13
 113385544.404 7  88352440.41945  21576538.930                    21576546.574
 107573546.596 8  83823596.85446  20470557.727                    20470565.348
 106795375.230 7  83217210.227 8  20322482.516                    20322489.797
 122832558.511 7  95713699.89343  23374248.539                    23374256.371
 116371104.451 7  90678721.62345  22144641.664                    22144648.836
 118372885.593 7  92238689.76844  22525595.609                    22525606.180
 121733022.825 7  94856936.487 6  23164988.891                    23164999.137
 123559560.024 7  96280195.34944  23512604.805                    23512611.711
 124516562.932 7  97025901.34143  23694728.078                    23694739.457
 11  7 28 20  6  0.0000000  0  9G11G08G07G26G28G24G17G19G13
 113371392.119 8  88341412.67745  21573845.961                    21573853.262
 107527831.329 8  83787974.57846  20461858.250                    20461866.027
 106808047.710 8  83227084.871 8  20324893.984                    20324900.852
 122770285.353 7  95665175.40443  23362398.156                    23362406.617
 116343680.856 7  90657352.60145  22139422.703                    22139430.289
 118317993.153 7  92195916.49644  22515150.531                    22515160.297
 121641713.542 7  94785786.512 7  23147612.977                    23147623.395
 123660588.027 7  96358918.41044  23531830.266                    23531837.281
 124628181.964 7  97112876.99543  23715969.266                    23715980.129
 11  7 28 20  6 30.0000000  0  9G11G08G07G26G28G24G17G19G13
 113357796.976 7  88330819.07145  21571258.617                    21571266.148
 107482466.711 8  83752625.53346  20453225.672                    20453233.305
 106821182.121 7  83237319.464 8  20327393.383                    20327400.535
 122708535.906 6  95617059.00943  23350647.258                    23350656.125
 116316331.451 8  90636041.40245  22134218.336                    22134225.477
 118263455.060 7  92153419.31944  22504771.609                    22504781.590
 121550652.839 7  94714830.266 6  23130284.711                    23130295.621
 123761776.645 7  96437766.64044  23551085.672                    23551092.453
 124739839.790 7  97199882.88643  23737216.844                    23737227.094
 11  7 28 20  7  0.0000000  0  9G11G08G07G26G28G24G17G19G13
 113344760.440 7  88320660.75345  21568778.086                    21568785.141
 107437455.697 8  83717552.03046  20444660.547                    20444668.027
 106834779.943 8  83247915.152 8  20329980.789                    20329987.797
 122647312.756 7  95569352.66843  23338997.289                    23339006.117
 116289056.164 8  90614787.96345  22129027.922                    22129035.094
 118209274.631 7  92111200.85345  22494461.602                    22494471.879
 121459842.752 7  94644069.271 6  23113004.859                    23113014.105
 123863123.411 6  96516738.07244  23570370.797                    23570378.219
 124851533.597 6  97286916.74743  23758471.477                    23758483.152
 11  7 28 20  7 30.0000000  0  9G11G08G07G26G28G24G17G19G13
 113332283.753 8  88310938.68245  21566403.750                    21566411.266
 107392801.308 8  83682756.41846  20436162.867                    20436170.551
 106848842.445 8  83258872.931 8  20332657.039                    20332664.227
 122586618.151 7  95522058.22944  23327446.844                    23327456.461
 116261854.607 7  90593591.97045  22123851.938                    22123859.051
 118155455.048 7  92069263.56844  22484220.086                    22484230.109
 121369284.857 7  94573504.813 6  23095771.156                    23095781.766
 123964625.823 7  96595830.79444  23589686.352                    23589693.078
 124963260.497 7  97373976.40543  23779732.422                    23779744.203
 11  7 28 20  8  0.0000000  0  9G11G08G07G26G28G24G17G19G13
 113320367.975 7  88301653.66145  21564136.008                    21564143.441
 107348505.964 8  83648240.56046  20427733.695                    20427741.348
 106863370.259 8  83270193.283 8  20335421.344                    20335428.484
 122526454.159 7  95475177.27943  23315997.391                    23316008.102
 116234726.151 7  90572452.94945  22118689.617                    22118696.527
 118101998.886 7  92027609.47144  22474048.297                    22474058.195
 121278980.894 7  94503138.230 6  23078587.688                    23078597.078
 124066281.031 7  96675042.61044  23609030.453                    23609037.555
 125075018.013 7  97461059.92343  23800999.727                    23801012.031
 11  7 28 20  8 30.0000000  0  9G11G08G07G26G28G24G17G19G13
 113309013.746 7  88292806.22345  21561975.992                    21561982.930
 107304571.332 8  83614005.79446  20419373.422                    20419380.887
 106878363.562 8  83281876.356 8  20338274.742                    20338281.672
 122466822.026 6  95428710.72244  23304650.781                    23304660.508
 116207669.332 8  90551369.72445  22113540.563                    22113547.180
 118048908.521 7  91986240.39344  22463944.688                    22463954.988
 121188931.842 7  94432970.255 6  23061451.188                    23061461.188
 124168086.829 6  96754371.72044  23628403.539                    23628411.098
 125186802.415 7  97548164.38843  23822271.531                    23822283.488
 11  7 28 20  9  0.0000000  0  9G11G08G07G26G28G24G17G19G13
 113298222.242 8  88284397.27145  21559922.227                    21559929.547
 107261000.006 8  83580054.12046  20411081.992                    20411089.426
 106893823.630 8  83293923.143 8  20341216.945                    20341223.742
 122407724.200 7  95382660.51744  23293403.961                    23293414.359
 116180683.873 7  90530342.12845  22108405.578                    22108412.695
 117996186.941 7  91945158.69544  22453912.773                    22453922.570
 121099140.074 7  94363002.799 7  23044364.477                    23044374.512
 124270040.074 6  96833815.70744  23647805.008                    23647812.438
 125298610.567 6  97635287.35443  23843548.234                    23843559.969
 11  7 28 20  9 30.0000000  0  9G11G08G07G26G28G24G17G19G13
 113287994.853 8  88276427.88745  21557975.594                    21557982.727
 107217794.987 8  83546387.87446  20402860.391                    20402868.125
 106909751.656 8  83306334.578 7  20344247.656                    20344254.375
 122349162.594 7  95337028.10443  23282260.742                    23282269.273
 116153769.787 7  90509370.12645  22103283.945                    22103291.332
 117943837.423 7  91904366.90644  22443951.000                    22443960.250
 121009606.943 7  94293236.837 6  23027326.938                    23027336.617
 124372138.488 7  96913372.83244  23667233.500                    23667240.730
 125410440.624 6  97722427.38343  23864829.063                    23864841.031
 11  7 28 20 10  0.0000000  0  9G11G08G07G26G28G24G17G19G13
 113278332.478 7  88268898.76645  21556137.133                    21556144.113
 107174957.918 8  83513008.34846  20394708.477                    20394716.117
 106926148.011 8  83319110.943 8  20347367.844                    20347374.793
 122291138.967 7  95291814.91844  23271219.281                    23271228.020
 116126925.707 8  90488452.68645  22098175.313                    22098182.691
 117891861.991 7  91863866.62244  22434059.906                    22434069.996
 120920333.859 7  94223673.529 6  23010338.852                    23010348.590
 124474379.224 7  96993040.89944  23686688.984                    23686696.352
 125522289.060 7  97809581.72043  23886113.828                    23886125.293
